<?xml version="1.0" encoding="UTF-8" standalone="no" ?>
<gpx xmlns="http://www.topografix.com/GPX/1/1" xmlns:xsi="http://www.w3.org/2001/XMLSchema-instance" xsi:schemaLocation="http://www.topografix.com/GPX/1/1 http://www.topografix.com/GPX/1/1/gpx.xsd" version="1.1" creator="VisuGPX - https://www.visugpx.com">
  <metadata>
    <name>Le Mont Aurélien</name>
    <desc><![CDATA[La randonnée démarre du village de Pourcieux et elle permet d\'atteindre la crète du Mont Aurélien en remontant un éboulis assez instable. Ensuite la crète est facile et après le Mont Olympe on emprunte une piste qui revient au village après être passé près des ruines du chateau. ]]></desc>
  </metadata>
  <trk>
    <name><![CDATA[2012-01-25T10:11:55Z]]></name>
    <trkseg>
      <trkpt lat="43.46862" lon="5.78886">
        <ele>358.2283936</ele>
        <time>2012-01-25T10:11:55Z</time>
      </trkpt>
      <trkpt lat="43.46863" lon="5.78891">
        <ele>358.7089844</ele>
        <time>2012-01-25T10:12:02Z</time>
      </trkpt>
      <trkpt lat="43.46862" lon="5.78892">
        <ele>358.7089844</ele>
        <time>2012-01-25T10:12:04Z</time>
      </trkpt>
      <trkpt lat="43.46861" lon="5.789">
        <ele>358.2283936</ele>
        <time>2012-01-25T10:12:10Z</time>
      </trkpt>
      <trkpt lat="43.46861" lon="5.78903">
        <ele>358.2283936</ele>
        <time>2012-01-25T10:12:12Z</time>
      </trkpt>
      <trkpt lat="43.46858" lon="5.78918">
        <ele>356.3057861</ele>
        <time>2012-01-25T10:12:20Z</time>
      </trkpt>
      <trkpt lat="43.46858" lon="5.78922">
        <ele>356.786377</ele>
        <time>2012-01-25T10:12:22Z</time>
      </trkpt>
      <trkpt lat="43.46855" lon="5.78934">
        <ele>355.8251953</ele>
        <time>2012-01-25T10:12:29Z</time>
      </trkpt>
      <trkpt lat="43.46855" lon="5.78939">
        <ele>355.3444824</ele>
        <time>2012-01-25T10:12:31Z</time>
      </trkpt>
      <trkpt lat="43.46853" lon="5.78956">
        <ele>358.2283936</ele>
        <time>2012-01-25T10:12:39Z</time>
      </trkpt>
      <trkpt lat="43.46852" lon="5.78972">
        <ele>355.8251953</ele>
        <time>2012-01-25T10:12:46Z</time>
      </trkpt>
      <trkpt lat="43.46849" lon="5.78987">
        <ele>357.7478027</ele>
        <time>2012-01-25T10:12:54Z</time>
      </trkpt>
      <trkpt lat="43.46849" lon="5.79004">
        <ele>359.6704102</ele>
        <time>2012-01-25T10:13:04Z</time>
      </trkpt>
      <trkpt lat="43.46849" lon="5.79007">
        <ele>359.1896973</ele>
        <time>2012-01-25T10:13:06Z</time>
      </trkpt>
      <trkpt lat="43.46846" lon="5.7903">
        <ele>359.1896973</ele>
        <time>2012-01-25T10:13:18Z</time>
      </trkpt>
      <trkpt lat="43.46843" lon="5.79043">
        <ele>359.6704102</ele>
        <time>2012-01-25T10:13:25Z</time>
      </trkpt>
      <trkpt lat="43.4684" lon="5.79057">
        <ele>359.1896973</ele>
        <time>2012-01-25T10:13:33Z</time>
      </trkpt>
      <trkpt lat="43.46839" lon="5.7907">
        <ele>361.1124268</ele>
        <time>2012-01-25T10:13:40Z</time>
      </trkpt>
      <trkpt lat="43.46837" lon="5.79086">
        <ele>360.6317139</ele>
        <time>2012-01-25T10:13:48Z</time>
      </trkpt>
      <trkpt lat="43.46835" lon="5.79104">
        <ele>361.5931396</ele>
        <time>2012-01-25T10:13:57Z</time>
      </trkpt>
      <trkpt lat="43.46835" lon="5.79106">
        <ele>361.5931396</ele>
        <time>2012-01-25T10:13:58Z</time>
      </trkpt>
      <trkpt lat="43.46835" lon="5.7912">
        <ele>362.0737305</ele>
        <time>2012-01-25T10:14:05Z</time>
      </trkpt>
      <trkpt lat="43.46834" lon="5.79128">
        <ele>363.5157471</ele>
        <time>2012-01-25T10:14:11Z</time>
      </trkpt>
      <trkpt lat="43.46834" lon="5.79131">
        <ele>363.9963379</ele>
        <time>2012-01-25T10:14:16Z</time>
      </trkpt>
      <trkpt lat="43.46834" lon="5.79136">
        <ele>364.4769287</ele>
        <time>2012-01-25T10:14:19Z</time>
      </trkpt>
      <trkpt lat="43.46832" lon="5.79144">
        <ele>366.3995361</ele>
        <time>2012-01-25T10:14:23Z</time>
      </trkpt>
      <trkpt lat="43.46829" lon="5.79165">
        <ele>370.244873</ele>
        <time>2012-01-25T10:14:34Z</time>
      </trkpt>
      <trkpt lat="43.46829" lon="5.79174">
        <ele>370.244873</ele>
        <time>2012-01-25T10:14:39Z</time>
      </trkpt>
      <trkpt lat="43.46826" lon="5.79185">
        <ele>366.3995361</ele>
        <time>2012-01-25T10:14:46Z</time>
      </trkpt>
      <trkpt lat="43.46823" lon="5.79204">
        <ele>366.3995361</ele>
        <time>2012-01-25T10:14:54Z</time>
      </trkpt>
      <trkpt lat="43.46822" lon="5.79208">
        <ele>365.9189453</ele>
        <time>2012-01-25T10:14:56Z</time>
      </trkpt>
      <trkpt lat="43.46818" lon="5.79214">
        <ele>365.4383545</ele>
        <time>2012-01-25T10:15:00Z</time>
      </trkpt>
      <trkpt lat="43.46811" lon="5.79226">
        <ele>365.9189453</ele>
        <time>2012-01-25T10:15:06Z</time>
      </trkpt>
      <trkpt lat="43.46804" lon="5.79242">
        <ele>366.3995361</ele>
        <time>2012-01-25T10:15:14Z</time>
      </trkpt>
      <trkpt lat="43.46794" lon="5.79259">
        <ele>366.3995361</ele>
        <time>2012-01-25T10:15:23Z</time>
      </trkpt>
      <trkpt lat="43.46788" lon="5.79272">
        <ele>366.880249</ele>
        <time>2012-01-25T10:15:30Z</time>
      </trkpt>
      <trkpt lat="43.46779" lon="5.79289">
        <ele>368.8029785</ele>
        <time>2012-01-25T10:15:39Z</time>
      </trkpt>
      <trkpt lat="43.46773" lon="5.79302">
        <ele>368.8029785</ele>
        <time>2012-01-25T10:15:46Z</time>
      </trkpt>
      <trkpt lat="43.46764" lon="5.79317">
        <ele>370.244873</ele>
        <time>2012-01-25T10:15:54Z</time>
      </trkpt>
      <trkpt lat="43.46756" lon="5.79332">
        <ele>371.2062988</ele>
        <time>2012-01-25T10:16:02Z</time>
      </trkpt>
      <trkpt lat="43.46748" lon="5.79347">
        <ele>372.1674805</ele>
        <time>2012-01-25T10:16:10Z</time>
      </trkpt>
      <trkpt lat="43.46741" lon="5.79361">
        <ele>372.1674805</ele>
        <time>2012-01-25T10:16:18Z</time>
      </trkpt>
      <trkpt lat="43.46733" lon="5.79375">
        <ele>372.6481934</ele>
        <time>2012-01-25T10:16:26Z</time>
      </trkpt>
      <trkpt lat="43.46727" lon="5.79388">
        <ele>374.0900879</ele>
        <time>2012-01-25T10:16:33Z</time>
      </trkpt>
      <trkpt lat="43.46719" lon="5.79401">
        <ele>374.0900879</ele>
        <time>2012-01-25T10:16:40Z</time>
      </trkpt>
      <trkpt lat="43.46713" lon="5.79412">
        <ele>375.5321045</ele>
        <time>2012-01-25T10:16:46Z</time>
      </trkpt>
      <trkpt lat="43.46705" lon="5.79426">
        <ele>375.5321045</ele>
        <time>2012-01-25T10:16:54Z</time>
      </trkpt>
      <trkpt lat="43.46696" lon="5.79441">
        <ele>375.5321045</ele>
        <time>2012-01-25T10:17:02Z</time>
      </trkpt>
      <trkpt lat="43.46689" lon="5.79455">
        <ele>376.0128174</ele>
        <time>2012-01-25T10:17:10Z</time>
      </trkpt>
      <trkpt lat="43.46683" lon="5.79467">
        <ele>376.4935303</ele>
        <time>2012-01-25T10:17:16Z</time>
      </trkpt>
      <trkpt lat="43.46672" lon="5.79484">
        <ele>376.0128174</ele>
        <time>2012-01-25T10:17:27Z</time>
      </trkpt>
      <trkpt lat="43.46662" lon="5.79488">
        <ele>376.0128174</ele>
        <time>2012-01-25T10:17:34Z</time>
      </trkpt>
      <trkpt lat="43.46651" lon="5.79485">
        <ele>376.9742432</ele>
        <time>2012-01-25T10:17:41Z</time>
      </trkpt>
      <trkpt lat="43.46645" lon="5.79471">
        <ele>376.4935303</ele>
        <time>2012-01-25T10:17:48Z</time>
      </trkpt>
      <trkpt lat="43.46647" lon="5.79445">
        <ele>375.0515137</ele>
        <time>2012-01-25T10:17:59Z</time>
      </trkpt>
      <trkpt lat="43.46649" lon="5.79421">
        <ele>375.0515137</ele>
        <time>2012-01-25T10:18:09Z</time>
      </trkpt>
      <trkpt lat="43.46646" lon="5.7941">
        <ele>376.0128174</ele>
        <time>2012-01-25T10:18:15Z</time>
      </trkpt>
      <trkpt lat="43.46644" lon="5.79407">
        <ele>376.0128174</ele>
        <time>2012-01-25T10:18:17Z</time>
      </trkpt>
      <trkpt lat="43.46634" lon="5.79403">
        <ele>376.4935303</ele>
        <time>2012-01-25T10:18:23Z</time>
      </trkpt>
      <trkpt lat="43.46623" lon="5.7941">
        <ele>377.454834</ele>
        <time>2012-01-25T10:18:30Z</time>
      </trkpt>
      <trkpt lat="43.46618" lon="5.7942">
        <ele>376.0128174</ele>
        <time>2012-01-25T10:18:36Z</time>
      </trkpt>
      <trkpt lat="43.46612" lon="5.79436">
        <ele>375.5321045</ele>
        <time>2012-01-25T10:18:44Z</time>
      </trkpt>
      <trkpt lat="43.46609" lon="5.79446">
        <ele>376.4935303</ele>
        <time>2012-01-25T10:18:49Z</time>
      </trkpt>
      <trkpt lat="43.46604" lon="5.79457">
        <ele>376.4935303</ele>
        <time>2012-01-25T10:18:55Z</time>
      </trkpt>
      <trkpt lat="43.46598" lon="5.7947">
        <ele>377.9354248</ele>
        <time>2012-01-25T10:19:02Z</time>
      </trkpt>
      <trkpt lat="43.46595" lon="5.79481">
        <ele>377.9354248</ele>
        <time>2012-01-25T10:19:08Z</time>
      </trkpt>
      <trkpt lat="43.4659" lon="5.79495">
        <ele>376.9742432</ele>
        <time>2012-01-25T10:19:16Z</time>
      </trkpt>
      <trkpt lat="43.46586" lon="5.79507">
        <ele>376.4935303</ele>
        <time>2012-01-25T10:19:22Z</time>
      </trkpt>
      <trkpt lat="43.46577" lon="5.79522">
        <ele>375.5321045</ele>
        <time>2012-01-25T10:19:30Z</time>
      </trkpt>
      <trkpt lat="43.46567" lon="5.7953">
        <ele>376.0128174</ele>
        <time>2012-01-25T10:19:37Z</time>
      </trkpt>
      <trkpt lat="43.46557" lon="5.79527">
        <ele>375.0515137</ele>
        <time>2012-01-25T10:19:43Z</time>
      </trkpt>
      <trkpt lat="43.46545" lon="5.79521">
        <ele>373.6094971</ele>
        <time>2012-01-25T10:19:51Z</time>
      </trkpt>
      <trkpt lat="43.46541" lon="5.79519">
        <ele>374.0900879</ele>
        <time>2012-01-25T10:19:54Z</time>
      </trkpt>
      <trkpt lat="43.46535" lon="5.79514">
        <ele>372.6481934</ele>
        <time>2012-01-25T10:19:58Z</time>
      </trkpt>
      <trkpt lat="43.46532" lon="5.79512">
        <ele>372.1674805</ele>
        <time>2012-01-25T10:20:00Z</time>
      </trkpt>
      <trkpt lat="43.4652" lon="5.79507">
        <ele>372.1674805</ele>
        <time>2012-01-25T10:20:07Z</time>
      </trkpt>
      <trkpt lat="43.46514" lon="5.79502">
        <ele>373.1289063</ele>
        <time>2012-01-25T10:20:12Z</time>
      </trkpt>
      <trkpt lat="43.46503" lon="5.79493">
        <ele>373.6094971</ele>
        <time>2012-01-25T10:20:19Z</time>
      </trkpt>
      <trkpt lat="43.46495" lon="5.79487">
        <ele>373.1289063</ele>
        <time>2012-01-25T10:20:24Z</time>
      </trkpt>
      <trkpt lat="43.46487" lon="5.79482">
        <ele>374.0900879</ele>
        <time>2012-01-25T10:20:30Z</time>
      </trkpt>
      <trkpt lat="43.46477" lon="5.79469">
        <ele>373.6094971</ele>
        <time>2012-01-25T10:20:38Z</time>
      </trkpt>
      <trkpt lat="43.46471" lon="5.79459">
        <ele>372.1674805</ele>
        <time>2012-01-25T10:20:44Z</time>
      </trkpt>
      <trkpt lat="43.46467" lon="5.79448">
        <ele>370.7255859</ele>
        <time>2012-01-25T10:20:49Z</time>
      </trkpt>
      <trkpt lat="43.46462" lon="5.79436">
        <ele>369.2836914</ele>
        <time>2012-01-25T10:20:55Z</time>
      </trkpt>
      <trkpt lat="43.46455" lon="5.79423">
        <ele>371.2062988</ele>
        <time>2012-01-25T10:21:03Z</time>
      </trkpt>
      <trkpt lat="43.46445" lon="5.79417">
        <ele>371.2062988</ele>
        <time>2012-01-25T10:21:10Z</time>
      </trkpt>
      <trkpt lat="43.46435" lon="5.79419">
        <ele>371.6868896</ele>
        <time>2012-01-25T10:21:16Z</time>
      </trkpt>
      <trkpt lat="43.46426" lon="5.79429">
        <ele>371.6868896</ele>
        <time>2012-01-25T10:21:24Z</time>
      </trkpt>
      <trkpt lat="43.46419" lon="5.79437">
        <ele>370.7255859</ele>
        <time>2012-01-25T10:21:31Z</time>
      </trkpt>
      <trkpt lat="43.4641" lon="5.79442">
        <ele>369.7642822</ele>
        <time>2012-01-25T10:21:37Z</time>
      </trkpt>
      <trkpt lat="43.46406" lon="5.79445">
        <ele>368.8029785</ele>
        <time>2012-01-25T10:21:40Z</time>
      </trkpt>
      <trkpt lat="43.46399" lon="5.79447">
        <ele>369.2836914</ele>
        <time>2012-01-25T10:21:44Z</time>
      </trkpt>
      <trkpt lat="43.46387" lon="5.79443">
        <ele>371.2062988</ele>
        <time>2012-01-25T10:21:51Z</time>
      </trkpt>
      <trkpt lat="43.46375" lon="5.79434">
        <ele>371.6868896</ele>
        <time>2012-01-25T10:21:59Z</time>
      </trkpt>
      <trkpt lat="43.46362" lon="5.79421">
        <ele>373.1289063</ele>
        <time>2012-01-25T10:22:08Z</time>
      </trkpt>
      <trkpt lat="43.46354" lon="5.79415">
        <ele>372.1674805</ele>
        <time>2012-01-25T10:22:14Z</time>
      </trkpt>
      <trkpt lat="43.46342" lon="5.79405">
        <ele>371.6868896</ele>
        <time>2012-01-25T10:22:23Z</time>
      </trkpt>
      <trkpt lat="43.46331" lon="5.79397">
        <ele>374.0900879</ele>
        <time>2012-01-25T10:22:30Z</time>
      </trkpt>
      <trkpt lat="43.46318" lon="5.79391">
        <ele>376.9742432</ele>
        <time>2012-01-25T10:22:39Z</time>
      </trkpt>
      <trkpt lat="43.46308" lon="5.79383">
        <ele>377.454834</ele>
        <time>2012-01-25T10:22:46Z</time>
      </trkpt>
      <trkpt lat="43.46305" lon="5.7938">
        <ele>377.9354248</ele>
        <time>2012-01-25T10:22:49Z</time>
      </trkpt>
      <trkpt lat="43.463" lon="5.7938">
        <ele>378.4161377</ele>
        <time>2012-01-25T10:22:53Z</time>
      </trkpt>
      <trkpt lat="43.46299" lon="5.79381">
        <ele>379.3774414</ele>
        <time>2012-01-25T10:23:01Z</time>
      </trkpt>
      <trkpt lat="43.46299" lon="5.79381">
        <ele>379.8580322</ele>
        <time>2012-01-25T10:23:04Z</time>
      </trkpt>
      <trkpt lat="43.46298" lon="5.79381">
        <ele>381.7806396</ele>
        <time>2012-01-25T10:23:09Z</time>
      </trkpt>
      <trkpt lat="43.46298" lon="5.79383">
        <ele>383.7032471</ele>
        <time>2012-01-25T10:23:14Z</time>
      </trkpt>
      <trkpt lat="43.46298" lon="5.79383">
        <ele>385.1453857</ele>
        <time>2012-01-25T10:23:21Z</time>
      </trkpt>
      <trkpt lat="43.46299" lon="5.79383">
        <ele>386.1066895</ele>
        <time>2012-01-25T10:23:31Z</time>
      </trkpt>
      <trkpt lat="43.46298" lon="5.7938">
        <ele>386.1066895</ele>
        <time>2012-01-25T10:23:33Z</time>
      </trkpt>
      <trkpt lat="43.46295" lon="5.79377">
        <ele>386.1066895</ele>
        <time>2012-01-25T10:23:37Z</time>
      </trkpt>
      <trkpt lat="43.46291" lon="5.79376">
        <ele>386.1066895</ele>
        <time>2012-01-25T10:23:40Z</time>
      </trkpt>
      <trkpt lat="43.4628" lon="5.7938">
        <ele>386.1066895</ele>
        <time>2012-01-25T10:23:47Z</time>
      </trkpt>
      <trkpt lat="43.46272" lon="5.79389">
        <ele>385.1453857</ele>
        <time>2012-01-25T10:23:54Z</time>
      </trkpt>
      <trkpt lat="43.46262" lon="5.79404">
        <ele>384.6647949</ele>
        <time>2012-01-25T10:24:04Z</time>
      </trkpt>
      <trkpt lat="43.46252" lon="5.79422">
        <ele>385.1453857</ele>
        <time>2012-01-25T10:24:14Z</time>
      </trkpt>
      <trkpt lat="43.46243" lon="5.79439">
        <ele>384.6647949</ele>
        <time>2012-01-25T10:24:24Z</time>
      </trkpt>
      <trkpt lat="43.46235" lon="5.79453">
        <ele>384.6647949</ele>
        <time>2012-01-25T10:24:32Z</time>
      </trkpt>
      <trkpt lat="43.46227" lon="5.79464">
        <ele>385.6259766</ele>
        <time>2012-01-25T10:24:40Z</time>
      </trkpt>
      <trkpt lat="43.46224" lon="5.79467">
        <ele>385.1453857</ele>
        <time>2012-01-25T10:24:46Z</time>
      </trkpt>
      <trkpt lat="43.46224" lon="5.79466">
        <ele>384.6647949</ele>
        <time>2012-01-25T10:24:49Z</time>
      </trkpt>
      <trkpt lat="43.46224" lon="5.79467">
        <ele>383.7032471</ele>
        <time>2012-01-25T10:24:51Z</time>
      </trkpt>
      <trkpt lat="43.46218" lon="5.79484">
        <ele>382.7420654</ele>
        <time>2012-01-25T10:25:01Z</time>
      </trkpt>
      <trkpt lat="43.46212" lon="5.79496">
        <ele>382.2613525</ele>
        <time>2012-01-25T10:25:07Z</time>
      </trkpt>
      <trkpt lat="43.46205" lon="5.79504">
        <ele>383.2226563</ele>
        <time>2012-01-25T10:25:14Z</time>
      </trkpt>
      <trkpt lat="43.462" lon="5.79503">
        <ele>383.2226563</ele>
        <time>2012-01-25T10:25:20Z</time>
      </trkpt>
      <trkpt lat="43.46193" lon="5.79499">
        <ele>383.7032471</ele>
        <time>2012-01-25T10:25:26Z</time>
      </trkpt>
      <trkpt lat="43.46185" lon="5.79495">
        <ele>385.1453857</ele>
        <time>2012-01-25T10:25:32Z</time>
      </trkpt>
      <trkpt lat="43.46177" lon="5.79492">
        <ele>383.7032471</ele>
        <time>2012-01-25T10:25:37Z</time>
      </trkpt>
      <trkpt lat="43.46167" lon="5.7949">
        <ele>385.1453857</ele>
        <time>2012-01-25T10:25:43Z</time>
      </trkpt>
      <trkpt lat="43.46156" lon="5.79491">
        <ele>388.0292969</ele>
        <time>2012-01-25T10:25:50Z</time>
      </trkpt>
      <trkpt lat="43.46147" lon="5.79491">
        <ele>388.9906006</ele>
        <time>2012-01-25T10:25:56Z</time>
      </trkpt>
      <trkpt lat="43.46137" lon="5.79487">
        <ele>388.5100098</ele>
        <time>2012-01-25T10:26:03Z</time>
      </trkpt>
      <trkpt lat="43.46131" lon="5.79485">
        <ele>386.5874023</ele>
        <time>2012-01-25T10:26:07Z</time>
      </trkpt>
      <trkpt lat="43.46122" lon="5.79487">
        <ele>384.6647949</ele>
        <time>2012-01-25T10:26:13Z</time>
      </trkpt>
      <trkpt lat="43.46118" lon="5.7949">
        <ele>384.184082</ele>
        <time>2012-01-25T10:26:16Z</time>
      </trkpt>
      <trkpt lat="43.46111" lon="5.795">
        <ele>382.7420654</ele>
        <time>2012-01-25T10:26:22Z</time>
      </trkpt>
      <trkpt lat="43.46109" lon="5.79504">
        <ele>383.2226563</ele>
        <time>2012-01-25T10:26:24Z</time>
      </trkpt>
      <trkpt lat="43.46107" lon="5.79508">
        <ele>383.2226563</ele>
        <time>2012-01-25T10:26:27Z</time>
      </trkpt>
      <trkpt lat="43.46105" lon="5.79514">
        <ele>382.7420654</ele>
        <time>2012-01-25T10:26:31Z</time>
      </trkpt>
      <trkpt lat="43.46094" lon="5.79524">
        <ele>382.2613525</ele>
        <time>2012-01-25T10:26:39Z</time>
      </trkpt>
      <trkpt lat="43.46083" lon="5.79528">
        <ele>384.6647949</ele>
        <time>2012-01-25T10:26:46Z</time>
      </trkpt>
      <trkpt lat="43.46074" lon="5.79531">
        <ele>387.548584</ele>
        <time>2012-01-25T10:26:52Z</time>
      </trkpt>
      <trkpt lat="43.46062" lon="5.79542">
        <ele>390.913208</ele>
        <time>2012-01-25T10:27:01Z</time>
      </trkpt>
      <trkpt lat="43.46054" lon="5.79555">
        <ele>393.7972412</ele>
        <time>2012-01-25T10:27:09Z</time>
      </trkpt>
      <trkpt lat="43.46049" lon="5.79564">
        <ele>393.7972412</ele>
        <time>2012-01-25T10:27:14Z</time>
      </trkpt>
      <trkpt lat="43.46039" lon="5.79566">
        <ele>394.2779541</ele>
        <time>2012-01-25T10:27:20Z</time>
      </trkpt>
      <trkpt lat="43.46027" lon="5.7956">
        <ele>396.2005615</ele>
        <time>2012-01-25T10:27:29Z</time>
      </trkpt>
      <trkpt lat="43.46016" lon="5.79552">
        <ele>396.6811523</ele>
        <time>2012-01-25T10:27:37Z</time>
      </trkpt>
      <trkpt lat="43.46007" lon="5.79546">
        <ele>397.1617432</ele>
        <time>2012-01-25T10:27:43Z</time>
      </trkpt>
      <trkpt lat="43.45998" lon="5.79541">
        <ele>398.1231689</ele>
        <time>2012-01-25T10:27:49Z</time>
      </trkpt>
      <trkpt lat="43.45989" lon="5.79538">
        <ele>399.0843506</ele>
        <time>2012-01-25T10:27:55Z</time>
      </trkpt>
      <trkpt lat="43.45979" lon="5.79538">
        <ele>400.0458984</ele>
        <time>2012-01-25T10:28:01Z</time>
      </trkpt>
      <trkpt lat="43.45967" lon="5.7954">
        <ele>400.5264893</ele>
        <time>2012-01-25T10:28:09Z</time>
      </trkpt>
      <trkpt lat="43.45954" lon="5.7954">
        <ele>402.4490967</ele>
        <time>2012-01-25T10:28:17Z</time>
      </trkpt>
      <trkpt lat="43.45942" lon="5.79543">
        <ele>404.8522949</ele>
        <time>2012-01-25T10:28:25Z</time>
      </trkpt>
      <trkpt lat="43.4593" lon="5.79543">
        <ele>404.3717041</ele>
        <time>2012-01-25T10:28:33Z</time>
      </trkpt>
      <trkpt lat="43.45922" lon="5.79538">
        <ele>401.487793</ele>
        <time>2012-01-25T10:28:39Z</time>
      </trkpt>
      <trkpt lat="43.45914" lon="5.79534">
        <ele>401.0070801</ele>
        <time>2012-01-25T10:28:45Z</time>
      </trkpt>
      <trkpt lat="43.45908" lon="5.7953">
        <ele>401.487793</ele>
        <time>2012-01-25T10:28:50Z</time>
      </trkpt>
      <trkpt lat="43.45898" lon="5.79528">
        <ele>403.4104004</ele>
        <time>2012-01-25T10:28:56Z</time>
      </trkpt>
      <trkpt lat="43.45889" lon="5.79528">
        <ele>406.2943115</ele>
        <time>2012-01-25T10:29:02Z</time>
      </trkpt>
      <trkpt lat="43.45887" lon="5.79528">
        <ele>406.7749023</ele>
        <time>2012-01-25T10:29:03Z</time>
      </trkpt>
      <trkpt lat="43.45875" lon="5.79528">
        <ele>411.1009521</ele>
        <time>2012-01-25T10:29:10Z</time>
      </trkpt>
      <trkpt lat="43.45866" lon="5.79523">
        <ele>410.6202393</ele>
        <time>2012-01-25T10:29:17Z</time>
      </trkpt>
      <trkpt lat="43.45858" lon="5.79517">
        <ele>409.6590576</ele>
        <time>2012-01-25T10:29:23Z</time>
      </trkpt>
      <trkpt lat="43.45849" lon="5.79514">
        <ele>408.217041</ele>
        <time>2012-01-25T10:29:29Z</time>
      </trkpt>
      <trkpt lat="43.45839" lon="5.79512">
        <ele>409.6590576</ele>
        <time>2012-01-25T10:29:35Z</time>
      </trkpt>
      <trkpt lat="43.45828" lon="5.79513">
        <ele>411.581665</ele>
        <time>2012-01-25T10:29:42Z</time>
      </trkpt>
      <trkpt lat="43.45817" lon="5.79515">
        <ele>413.0235596</ele>
        <time>2012-01-25T10:29:48Z</time>
      </trkpt>
      <trkpt lat="43.4581" lon="5.79515">
        <ele>413.0235596</ele>
        <time>2012-01-25T10:29:53Z</time>
      </trkpt>
      <trkpt lat="43.45798" lon="5.79516">
        <ele>414.946167</ele>
        <time>2012-01-25T10:30:00Z</time>
      </trkpt>
      <trkpt lat="43.4579" lon="5.79517">
        <ele>417.3496094</ele>
        <time>2012-01-25T10:30:05Z</time>
      </trkpt>
      <trkpt lat="43.4578" lon="5.79518">
        <ele>418.7915039</ele>
        <time>2012-01-25T10:30:11Z</time>
      </trkpt>
      <trkpt lat="43.45767" lon="5.7952">
        <ele>417.3496094</ele>
        <time>2012-01-25T10:30:20Z</time>
      </trkpt>
      <trkpt lat="43.45754" lon="5.79523">
        <ele>420.2333984</ele>
        <time>2012-01-25T10:30:28Z</time>
      </trkpt>
      <trkpt lat="43.45744" lon="5.79525">
        <ele>421.1948242</ele>
        <time>2012-01-25T10:30:34Z</time>
      </trkpt>
      <trkpt lat="43.45737" lon="5.79527">
        <ele>419.2722168</ele>
        <time>2012-01-25T10:30:39Z</time>
      </trkpt>
      <trkpt lat="43.45726" lon="5.79533">
        <ele>420.2333984</ele>
        <time>2012-01-25T10:30:47Z</time>
      </trkpt>
      <trkpt lat="43.45714" lon="5.79538">
        <ele>419.7528076</ele>
        <time>2012-01-25T10:30:55Z</time>
      </trkpt>
      <trkpt lat="43.45712" lon="5.79538">
        <ele>420.2333984</ele>
        <time>2012-01-25T10:30:56Z</time>
      </trkpt>
      <trkpt lat="43.45704" lon="5.79541">
        <ele>420.2333984</ele>
        <time>2012-01-25T10:31:02Z</time>
      </trkpt>
      <trkpt lat="43.45692" lon="5.79544">
        <ele>419.7528076</ele>
        <time>2012-01-25T10:31:10Z</time>
      </trkpt>
      <trkpt lat="43.45681" lon="5.79547">
        <ele>421.1948242</ele>
        <time>2012-01-25T10:31:18Z</time>
      </trkpt>
      <trkpt lat="43.45676" lon="5.79548">
        <ele>422.6367188</ele>
        <time>2012-01-25T10:31:21Z</time>
      </trkpt>
      <trkpt lat="43.45666" lon="5.7955">
        <ele>425.0401611</ele>
        <time>2012-01-25T10:31:27Z</time>
      </trkpt>
      <trkpt lat="43.4566" lon="5.7955">
        <ele>424.0787354</ele>
        <time>2012-01-25T10:31:31Z</time>
      </trkpt>
      <trkpt lat="43.45647" lon="5.79551">
        <ele>426.0013428</ele>
        <time>2012-01-25T10:31:39Z</time>
      </trkpt>
      <trkpt lat="43.45635" lon="5.79555">
        <ele>428.4046631</ele>
        <time>2012-01-25T10:31:46Z</time>
      </trkpt>
      <trkpt lat="43.45625" lon="5.79555">
        <ele>429.3659668</ele>
        <time>2012-01-25T10:31:53Z</time>
      </trkpt>
      <trkpt lat="43.45614" lon="5.79553">
        <ele>430.3272705</ele>
        <time>2012-01-25T10:32:00Z</time>
      </trkpt>
      <trkpt lat="43.45605" lon="5.79547">
        <ele>429.8465576</ele>
        <time>2012-01-25T10:32:07Z</time>
      </trkpt>
      <trkpt lat="43.45602" lon="5.79546">
        <ele>429.8465576</ele>
        <time>2012-01-25T10:32:09Z</time>
      </trkpt>
      <trkpt lat="43.45593" lon="5.79544">
        <ele>429.8465576</ele>
        <time>2012-01-25T10:32:17Z</time>
      </trkpt>
      <trkpt lat="43.45586" lon="5.79553">
        <ele>433.2113037</ele>
        <time>2012-01-25T10:32:24Z</time>
      </trkpt>
      <trkpt lat="43.45582" lon="5.79561">
        <ele>429.8465576</ele>
        <time>2012-01-25T10:32:30Z</time>
      </trkpt>
      <trkpt lat="43.45573" lon="5.79569">
        <ele>428.885376</ele>
        <time>2012-01-25T10:32:37Z</time>
      </trkpt>
      <trkpt lat="43.45568" lon="5.79571">
        <ele>428.885376</ele>
        <time>2012-01-25T10:32:40Z</time>
      </trkpt>
      <trkpt lat="43.45558" lon="5.79573">
        <ele>428.885376</ele>
        <time>2012-01-25T10:32:47Z</time>
      </trkpt>
      <trkpt lat="43.45548" lon="5.79571">
        <ele>428.885376</ele>
        <time>2012-01-25T10:32:54Z</time>
      </trkpt>
      <trkpt lat="43.45536" lon="5.79571">
        <ele>432.25</ele>
        <time>2012-01-25T10:33:02Z</time>
      </trkpt>
      <trkpt lat="43.45527" lon="5.79573">
        <ele>431.769165</ele>
        <time>2012-01-25T10:33:08Z</time>
      </trkpt>
      <trkpt lat="43.45522" lon="5.79577">
        <ele>432.7307129</ele>
        <time>2012-01-25T10:33:12Z</time>
      </trkpt>
      <trkpt lat="43.45518" lon="5.79579">
        <ele>432.7307129</ele>
        <time>2012-01-25T10:33:15Z</time>
      </trkpt>
      <trkpt lat="43.45513" lon="5.79583">
        <ele>434.6533203</ele>
        <time>2012-01-25T10:33:20Z</time>
      </trkpt>
      <trkpt lat="43.45512" lon="5.79587">
        <ele>440.9018555</ele>
        <time>2012-01-25T10:33:27Z</time>
      </trkpt>
      <trkpt lat="43.45517" lon="5.79585">
        <ele>435.614502</ele>
        <time>2012-01-25T10:33:43Z</time>
      </trkpt>
      <trkpt lat="43.45515" lon="5.79578">
        <ele>439.4597168</ele>
        <time>2012-01-25T10:33:56Z</time>
      </trkpt>
      <trkpt lat="43.45515" lon="5.79576">
        <ele>440.4212646</ele>
        <time>2012-01-25T10:34:03Z</time>
      </trkpt>
      <trkpt lat="43.4552" lon="5.79574">
        <ele>440.4212646</ele>
        <time>2012-01-25T10:34:07Z</time>
      </trkpt>
      <trkpt lat="43.45528" lon="5.79563">
        <ele>439.9404297</ele>
        <time>2012-01-25T10:34:15Z</time>
      </trkpt>
      <trkpt lat="43.45534" lon="5.79553">
        <ele>438.0178223</ele>
        <time>2012-01-25T10:34:22Z</time>
      </trkpt>
      <trkpt lat="43.45539" lon="5.79544">
        <ele>438.0178223</ele>
        <time>2012-01-25T10:34:28Z</time>
      </trkpt>
      <trkpt lat="43.45548" lon="5.79531">
        <ele>436.5759277</ele>
        <time>2012-01-25T10:34:36Z</time>
      </trkpt>
      <trkpt lat="43.45555" lon="5.7952">
        <ele>434.1726074</ele>
        <time>2012-01-25T10:34:43Z</time>
      </trkpt>
      <trkpt lat="43.45566" lon="5.79506">
        <ele>432.25</ele>
        <time>2012-01-25T10:34:53Z</time>
      </trkpt>
      <trkpt lat="43.45574" lon="5.79493">
        <ele>429.8465576</ele>
        <time>2012-01-25T10:35:02Z</time>
      </trkpt>
      <trkpt lat="43.45579" lon="5.79483">
        <ele>429.8465576</ele>
        <time>2012-01-25T10:35:08Z</time>
      </trkpt>
      <trkpt lat="43.4558" lon="5.79474">
        <ele>430.3272705</ele>
        <time>2012-01-25T10:35:13Z</time>
      </trkpt>
      <trkpt lat="43.4558" lon="5.79471">
        <ele>430.3272705</ele>
        <time>2012-01-25T10:35:18Z</time>
      </trkpt>
      <trkpt lat="43.45579" lon="5.79462">
        <ele>432.25</ele>
        <time>2012-01-25T10:35:23Z</time>
      </trkpt>
      <trkpt lat="43.45576" lon="5.79456">
        <ele>434.1726074</ele>
        <time>2012-01-25T10:35:27Z</time>
      </trkpt>
      <trkpt lat="43.45568" lon="5.79449">
        <ele>436.5759277</ele>
        <time>2012-01-25T10:35:35Z</time>
      </trkpt>
      <trkpt lat="43.45564" lon="5.79451">
        <ele>437.0565186</ele>
        <time>2012-01-25T10:35:40Z</time>
      </trkpt>
      <trkpt lat="43.45561" lon="5.79463">
        <ele>439.9404297</ele>
        <time>2012-01-25T10:35:48Z</time>
      </trkpt>
      <trkpt lat="43.45558" lon="5.79471">
        <ele>438.4985352</ele>
        <time>2012-01-25T10:35:55Z</time>
      </trkpt>
      <trkpt lat="43.45553" lon="5.79476">
        <ele>435.1339111</ele>
        <time>2012-01-25T10:36:00Z</time>
      </trkpt>
      <trkpt lat="43.45549" lon="5.7948">
        <ele>432.7307129</ele>
        <time>2012-01-25T10:36:04Z</time>
      </trkpt>
      <trkpt lat="43.45542" lon="5.79487">
        <ele>427.9239502</ele>
        <time>2012-01-25T10:36:12Z</time>
      </trkpt>
      <trkpt lat="43.45533" lon="5.79495">
        <ele>422.1560059</ele>
        <time>2012-01-25T10:36:20Z</time>
      </trkpt>
      <trkpt lat="43.45531" lon="5.79497">
        <ele>420.7141113</ele>
        <time>2012-01-25T10:36:22Z</time>
      </trkpt>
      <trkpt lat="43.45524" lon="5.79505">
        <ele>420.7141113</ele>
        <time>2012-01-25T10:36:29Z</time>
      </trkpt>
      <trkpt lat="43.45521" lon="5.79508">
        <ele>419.2722168</ele>
        <time>2012-01-25T10:36:32Z</time>
      </trkpt>
      <trkpt lat="43.45512" lon="5.79512">
        <ele>420.7141113</ele>
        <time>2012-01-25T10:36:39Z</time>
      </trkpt>
      <trkpt lat="43.45509" lon="5.79514">
        <ele>426.4820557</ele>
        <time>2012-01-25T10:36:42Z</time>
      </trkpt>
      <trkpt lat="43.45503" lon="5.79508">
        <ele>433.2113037</ele>
        <time>2012-01-25T10:36:50Z</time>
      </trkpt>
      <trkpt lat="43.455" lon="5.79505">
        <ele>434.6533203</ele>
        <time>2012-01-25T10:36:53Z</time>
      </trkpt>
      <trkpt lat="43.45495" lon="5.79502">
        <ele>438.0178223</ele>
        <time>2012-01-25T10:36:57Z</time>
      </trkpt>
      <trkpt lat="43.45485" lon="5.79509">
        <ele>444.7470703</ele>
        <time>2012-01-25T10:37:05Z</time>
      </trkpt>
      <trkpt lat="43.45475" lon="5.79513">
        <ele>447.1502686</ele>
        <time>2012-01-25T10:37:12Z</time>
      </trkpt>
      <trkpt lat="43.45465" lon="5.79509">
        <ele>449.072998</ele>
        <time>2012-01-25T10:37:20Z</time>
      </trkpt>
      <trkpt lat="43.45458" lon="5.79509">
        <ele>451.4763184</ele>
        <time>2012-01-25T10:37:25Z</time>
      </trkpt>
      <trkpt lat="43.45448" lon="5.79499">
        <ele>453.3989258</ele>
        <time>2012-01-25T10:37:34Z</time>
      </trkpt>
      <trkpt lat="43.45445" lon="5.79493">
        <ele>455.3215332</ele>
        <time>2012-01-25T10:37:39Z</time>
      </trkpt>
      <trkpt lat="43.45445" lon="5.79488">
        <ele>455.8022461</ele>
        <time>2012-01-25T10:37:44Z</time>
      </trkpt>
      <trkpt lat="43.4545" lon="5.79475">
        <ele>460.1281738</ele>
        <time>2012-01-25T10:37:52Z</time>
      </trkpt>
      <trkpt lat="43.45454" lon="5.79465">
        <ele>460.1281738</ele>
        <time>2012-01-25T10:37:59Z</time>
      </trkpt>
      <trkpt lat="43.45455" lon="5.79455">
        <ele>460.6087646</ele>
        <time>2012-01-25T10:38:05Z</time>
      </trkpt>
      <trkpt lat="43.4545" lon="5.79446">
        <ele>462.5313721</ele>
        <time>2012-01-25T10:38:11Z</time>
      </trkpt>
      <trkpt lat="43.45439" lon="5.79442">
        <ele>465.4155273</ele>
        <time>2012-01-25T10:38:19Z</time>
      </trkpt>
      <trkpt lat="43.45431" lon="5.79441">
        <ele>463.9733887</ele>
        <time>2012-01-25T10:38:25Z</time>
      </trkpt>
      <trkpt lat="43.45428" lon="5.79444">
        <ele>465.8961182</ele>
        <time>2012-01-25T10:38:32Z</time>
      </trkpt>
      <trkpt lat="43.45425" lon="5.79451">
        <ele>471.1833496</ele>
        <time>2012-01-25T10:38:41Z</time>
      </trkpt>
      <trkpt lat="43.45422" lon="5.79456">
        <ele>469.2607422</ele>
        <time>2012-01-25T10:38:45Z</time>
      </trkpt>
      <trkpt lat="43.45417" lon="5.79465">
        <ele>467.8187256</ele>
        <time>2012-01-25T10:38:52Z</time>
      </trkpt>
      <trkpt lat="43.4541" lon="5.79471">
        <ele>464.9348145</ele>
        <time>2012-01-25T10:38:58Z</time>
      </trkpt>
      <trkpt lat="43.45404" lon="5.79473">
        <ele>462.5313721</ele>
        <time>2012-01-25T10:39:02Z</time>
      </trkpt>
      <trkpt lat="43.45397" lon="5.79474">
        <ele>463.9733887</ele>
        <time>2012-01-25T10:39:07Z</time>
      </trkpt>
      <trkpt lat="43.45388" lon="5.79467">
        <ele>464.9348145</ele>
        <time>2012-01-25T10:39:16Z</time>
      </trkpt>
      <trkpt lat="43.45381" lon="5.79463">
        <ele>464.9348145</ele>
        <time>2012-01-25T10:39:22Z</time>
      </trkpt>
      <trkpt lat="43.45371" lon="5.79458">
        <ele>466.376709</ele>
        <time>2012-01-25T10:39:30Z</time>
      </trkpt>
      <trkpt lat="43.4537" lon="5.79458">
        <ele>467.3381348</ele>
        <time>2012-01-25T10:39:31Z</time>
      </trkpt>
      <trkpt lat="43.45367" lon="5.79451">
        <ele>468.7800293</ele>
        <time>2012-01-25T10:39:38Z</time>
      </trkpt>
      <trkpt lat="43.45367" lon="5.79443">
        <ele>469.2607422</ele>
        <time>2012-01-25T10:39:44Z</time>
      </trkpt>
      <trkpt lat="43.45366" lon="5.79427">
        <ele>472.1446533</ele>
        <time>2012-01-25T10:39:53Z</time>
      </trkpt>
      <trkpt lat="43.45366" lon="5.79426">
        <ele>472.1446533</ele>
        <time>2012-01-25T10:39:54Z</time>
      </trkpt>
      <trkpt lat="43.45364" lon="5.79421">
        <ele>471.6639404</ele>
        <time>2012-01-25T10:39:57Z</time>
      </trkpt>
      <trkpt lat="43.45357" lon="5.79401">
        <ele>480.315918</ele>
        <time>2012-01-25T10:40:08Z</time>
      </trkpt>
      <trkpt lat="43.45349" lon="5.79389">
        <ele>485.6030273</ele>
        <time>2012-01-25T10:40:15Z</time>
      </trkpt>
      <trkpt lat="43.45349" lon="5.79388">
        <ele>485.6030273</ele>
        <time>2012-01-25T10:40:16Z</time>
      </trkpt>
      <trkpt lat="43.45348" lon="5.79376">
        <ele>484.6418457</ele>
        <time>2012-01-25T10:40:23Z</time>
      </trkpt>
      <trkpt lat="43.45345" lon="5.79363">
        <ele>485.1224365</ele>
        <time>2012-01-25T10:40:31Z</time>
      </trkpt>
      <trkpt lat="43.45341" lon="5.79354">
        <ele>485.6030273</ele>
        <time>2012-01-25T10:40:38Z</time>
      </trkpt>
      <trkpt lat="43.45339" lon="5.79348">
        <ele>486.5644531</ele>
        <time>2012-01-25T10:40:44Z</time>
      </trkpt>
      <trkpt lat="43.45337" lon="5.79347">
        <ele>487.0450439</ele>
        <time>2012-01-25T10:40:46Z</time>
      </trkpt>
      <trkpt lat="43.45335" lon="5.79347">
        <ele>488.0064697</ele>
        <time>2012-01-25T10:40:49Z</time>
      </trkpt>
      <trkpt lat="43.45332" lon="5.7935">
        <ele>487.5256348</ele>
        <time>2012-01-25T10:40:53Z</time>
      </trkpt>
      <trkpt lat="43.45329" lon="5.79351">
        <ele>492.8129883</ele>
        <time>2012-01-25T10:41:01Z</time>
      </trkpt>
      <trkpt lat="43.45326" lon="5.79353">
        <ele>492.8129883</ele>
        <time>2012-01-25T10:41:03Z</time>
      </trkpt>
      <trkpt lat="43.45326" lon="5.79358">
        <ele>497.6196289</ele>
        <time>2012-01-25T10:41:08Z</time>
      </trkpt>
      <trkpt lat="43.45323" lon="5.79361">
        <ele>500.9841309</ele>
        <time>2012-01-25T10:41:12Z</time>
      </trkpt>
      <trkpt lat="43.4531" lon="5.79368">
        <ele>497.138916</ele>
        <time>2012-01-25T10:41:20Z</time>
      </trkpt>
      <trkpt lat="43.453" lon="5.79368">
        <ele>494.2550049</ele>
        <time>2012-01-25T10:41:28Z</time>
      </trkpt>
      <trkpt lat="43.45294" lon="5.79367">
        <ele>494.2550049</ele>
        <time>2012-01-25T10:41:33Z</time>
      </trkpt>
      <trkpt lat="43.45286" lon="5.79368">
        <ele>497.138916</ele>
        <time>2012-01-25T10:41:41Z</time>
      </trkpt>
      <trkpt lat="43.45286" lon="5.79367">
        <ele>497.6196289</ele>
        <time>2012-01-25T10:41:42Z</time>
      </trkpt>
      <trkpt lat="43.45278" lon="5.79368">
        <ele>500.0229492</ele>
        <time>2012-01-25T10:41:51Z</time>
      </trkpt>
      <trkpt lat="43.4527" lon="5.79369">
        <ele>504.8294678</ele>
        <time>2012-01-25T10:41:59Z</time>
      </trkpt>
      <trkpt lat="43.45263" lon="5.79368">
        <ele>505.3101807</ele>
        <time>2012-01-25T10:42:06Z</time>
      </trkpt>
      <trkpt lat="43.45255" lon="5.7937">
        <ele>504.8294678</ele>
        <time>2012-01-25T10:42:12Z</time>
      </trkpt>
      <trkpt lat="43.45247" lon="5.79367">
        <ele>503.8681641</ele>
        <time>2012-01-25T10:42:18Z</time>
      </trkpt>
      <trkpt lat="43.45238" lon="5.79368">
        <ele>501.9455566</ele>
        <time>2012-01-25T10:42:25Z</time>
      </trkpt>
      <trkpt lat="43.45236" lon="5.79367">
        <ele>500.9841309</ele>
        <time>2012-01-25T10:42:27Z</time>
      </trkpt>
      <trkpt lat="43.4523" lon="5.79368">
        <ele>500.9841309</ele>
        <time>2012-01-25T10:42:31Z</time>
      </trkpt>
      <trkpt lat="43.45227" lon="5.7937">
        <ele>503.3874512</ele>
        <time>2012-01-25T10:42:34Z</time>
      </trkpt>
      <trkpt lat="43.45219" lon="5.79371">
        <ele>507.713501</ele>
        <time>2012-01-25T10:42:41Z</time>
      </trkpt>
      <trkpt lat="43.45213" lon="5.79373">
        <ele>509.6361084</ele>
        <time>2012-01-25T10:42:47Z</time>
      </trkpt>
      <trkpt lat="43.4521" lon="5.79375">
        <ele>511.0780029</ele>
        <time>2012-01-25T10:42:49Z</time>
      </trkpt>
      <trkpt lat="43.45207" lon="5.79378">
        <ele>512.5200195</ele>
        <time>2012-01-25T10:42:52Z</time>
      </trkpt>
      <trkpt lat="43.45198" lon="5.79379">
        <ele>517.807251</ele>
        <time>2012-01-25T10:43:00Z</time>
      </trkpt>
      <trkpt lat="43.45189" lon="5.79372">
        <ele>517.807251</ele>
        <time>2012-01-25T10:43:08Z</time>
      </trkpt>
      <trkpt lat="43.45188" lon="5.7937">
        <ele>518.2878418</ele>
        <time>2012-01-25T10:43:09Z</time>
      </trkpt>
      <trkpt lat="43.45186" lon="5.79363">
        <ele>518.7685547</ele>
        <time>2012-01-25T10:43:13Z</time>
      </trkpt>
      <trkpt lat="43.4518" lon="5.79357">
        <ele>518.2878418</ele>
        <time>2012-01-25T10:43:19Z</time>
      </trkpt>
      <trkpt lat="43.4517" lon="5.79353">
        <ele>521.1719971</ele>
        <time>2012-01-25T10:43:27Z</time>
      </trkpt>
      <trkpt lat="43.45168" lon="5.7935">
        <ele>521.6525879</ele>
        <time>2012-01-25T10:43:30Z</time>
      </trkpt>
      <trkpt lat="43.45162" lon="5.79349">
        <ele>525.9783936</ele>
        <time>2012-01-25T10:43:35Z</time>
      </trkpt>
      <trkpt lat="43.45148" lon="5.79347">
        <ele>529.8237305</ele>
        <time>2012-01-25T10:43:45Z</time>
      </trkpt>
      <trkpt lat="43.45138" lon="5.79345">
        <ele>531.2657471</ele>
        <time>2012-01-25T10:43:52Z</time>
      </trkpt>
      <trkpt lat="43.45131" lon="5.79338">
        <ele>532.7077637</ele>
        <time>2012-01-25T10:43:59Z</time>
      </trkpt>
      <trkpt lat="43.45125" lon="5.7933">
        <ele>531.7463379</ele>
        <time>2012-01-25T10:44:06Z</time>
      </trkpt>
      <trkpt lat="43.4512" lon="5.79321">
        <ele>531.2657471</ele>
        <time>2012-01-25T10:44:12Z</time>
      </trkpt>
      <trkpt lat="43.45114" lon="5.79315">
        <ele>530.7851563</ele>
        <time>2012-01-25T10:44:18Z</time>
      </trkpt>
      <trkpt lat="43.45107" lon="5.79311">
        <ele>531.2657471</ele>
        <time>2012-01-25T10:44:24Z</time>
      </trkpt>
      <trkpt lat="43.45102" lon="5.79305">
        <ele>531.7463379</ele>
        <time>2012-01-25T10:44:29Z</time>
      </trkpt>
      <trkpt lat="43.45096" lon="5.793">
        <ele>531.7463379</ele>
        <time>2012-01-25T10:44:34Z</time>
      </trkpt>
      <trkpt lat="43.45084" lon="5.79293">
        <ele>532.2270508</ele>
        <time>2012-01-25T10:44:43Z</time>
      </trkpt>
      <trkpt lat="43.45082" lon="5.79291">
        <ele>532.2270508</ele>
        <time>2012-01-25T10:44:45Z</time>
      </trkpt>
      <trkpt lat="43.4508" lon="5.79286">
        <ele>531.7463379</ele>
        <time>2012-01-25T10:44:49Z</time>
      </trkpt>
      <trkpt lat="43.45075" lon="5.79282">
        <ele>533.6689453</ele>
        <time>2012-01-25T10:44:54Z</time>
      </trkpt>
      <trkpt lat="43.45068" lon="5.7928">
        <ele>534.1496582</ele>
        <time>2012-01-25T10:44:59Z</time>
      </trkpt>
      <trkpt lat="43.45067" lon="5.79279">
        <ele>534.1496582</ele>
        <time>2012-01-25T10:45:00Z</time>
      </trkpt>
      <trkpt lat="43.45062" lon="5.79271">
        <ele>536.5531006</ele>
        <time>2012-01-25T10:45:05Z</time>
      </trkpt>
      <trkpt lat="43.45057" lon="5.79263">
        <ele>534.1496582</ele>
        <time>2012-01-25T10:45:11Z</time>
      </trkpt>
      <trkpt lat="43.45053" lon="5.79258">
        <ele>532.7077637</ele>
        <time>2012-01-25T10:45:15Z</time>
      </trkpt>
      <trkpt lat="43.45047" lon="5.79253">
        <ele>533.1883545</ele>
        <time>2012-01-25T10:45:21Z</time>
      </trkpt>
      <trkpt lat="43.45042" lon="5.79249">
        <ele>536.5531006</ele>
        <time>2012-01-25T10:45:26Z</time>
      </trkpt>
      <trkpt lat="43.4504" lon="5.79243">
        <ele>537.9949951</ele>
        <time>2012-01-25T10:45:31Z</time>
      </trkpt>
      <trkpt lat="43.45033" lon="5.79242">
        <ele>541.3594971</ele>
        <time>2012-01-25T10:45:39Z</time>
      </trkpt>
      <trkpt lat="43.45025" lon="5.79245">
        <ele>543.2821045</ele>
        <time>2012-01-25T10:45:47Z</time>
      </trkpt>
      <trkpt lat="43.45022" lon="5.79246">
        <ele>543.7628174</ele>
        <time>2012-01-25T10:45:50Z</time>
      </trkpt>
      <trkpt lat="43.45013" lon="5.79251">
        <ele>549.0500488</ele>
        <time>2012-01-25T10:45:59Z</time>
      </trkpt>
      <trkpt lat="43.45005" lon="5.79264">
        <ele>559.6247559</ele>
        <time>2012-01-25T10:46:06Z</time>
      </trkpt>
      <trkpt lat="43.44999" lon="5.7927">
        <ele>564.9118652</ele>
        <time>2012-01-25T10:46:12Z</time>
      </trkpt>
      <trkpt lat="43.44992" lon="5.79272">
        <ele>566.3537598</ele>
        <time>2012-01-25T10:46:20Z</time>
      </trkpt>
      <trkpt lat="43.4499" lon="5.79272">
        <ele>567.3151855</ele>
        <time>2012-01-25T10:46:21Z</time>
      </trkpt>
      <trkpt lat="43.44982" lon="5.79271">
        <ele>565.3925781</ele>
        <time>2012-01-25T10:46:30Z</time>
      </trkpt>
      <trkpt lat="43.4498" lon="5.79273">
        <ele>566.3537598</ele>
        <time>2012-01-25T10:46:32Z</time>
      </trkpt>
      <trkpt lat="43.44979" lon="5.7927">
        <ele>565.873291</ele>
        <time>2012-01-25T10:46:36Z</time>
      </trkpt>
      <trkpt lat="43.44974" lon="5.79262">
        <ele>565.873291</ele>
        <time>2012-01-25T10:46:42Z</time>
      </trkpt>
      <trkpt lat="43.44967" lon="5.79261">
        <ele>566.8344727</ele>
        <time>2012-01-25T10:46:49Z</time>
      </trkpt>
      <trkpt lat="43.44964" lon="5.79261">
        <ele>567.3151855</ele>
        <time>2012-01-25T10:46:52Z</time>
      </trkpt>
      <trkpt lat="43.44956" lon="5.79256">
        <ele>569.7185059</ele>
        <time>2012-01-25T10:46:59Z</time>
      </trkpt>
      <trkpt lat="43.44951" lon="5.79255">
        <ele>570.6796875</ele>
        <time>2012-01-25T10:47:03Z</time>
      </trkpt>
      <trkpt lat="43.44942" lon="5.79261">
        <ele>573.083252</ele>
        <time>2012-01-25T10:47:11Z</time>
      </trkpt>
      <trkpt lat="43.44939" lon="5.79258">
        <ele>571.6408691</ele>
        <time>2012-01-25T10:47:15Z</time>
      </trkpt>
      <trkpt lat="43.44935" lon="5.79256">
        <ele>570.6796875</ele>
        <time>2012-01-25T10:47:20Z</time>
      </trkpt>
      <trkpt lat="43.44932" lon="5.79264">
        <ele>569.7185059</ele>
        <time>2012-01-25T10:47:27Z</time>
      </trkpt>
      <trkpt lat="43.4493" lon="5.79267">
        <ele>570.1989746</ele>
        <time>2012-01-25T10:47:30Z</time>
      </trkpt>
      <trkpt lat="43.44926" lon="5.79272">
        <ele>571.1604004</ele>
        <time>2012-01-25T10:47:35Z</time>
      </trkpt>
      <trkpt lat="43.44923" lon="5.79276">
        <ele>573.083252</ele>
        <time>2012-01-25T10:47:40Z</time>
      </trkpt>
      <trkpt lat="43.44924" lon="5.79288">
        <ele>574.0444336</ele>
        <time>2012-01-25T10:47:48Z</time>
      </trkpt>
      <trkpt lat="43.44923" lon="5.79291">
        <ele>575.0058594</ele>
        <time>2012-01-25T10:47:50Z</time>
      </trkpt>
      <trkpt lat="43.44923" lon="5.79305">
        <ele>575.4863281</ele>
        <time>2012-01-25T10:47:59Z</time>
      </trkpt>
      <trkpt lat="43.44923" lon="5.79308">
        <ele>576.4477539</ele>
        <time>2012-01-25T10:48:01Z</time>
      </trkpt>
      <trkpt lat="43.44923" lon="5.79313">
        <ele>576.4477539</ele>
        <time>2012-01-25T10:48:05Z</time>
      </trkpt>
      <trkpt lat="43.44923" lon="5.79322">
        <ele>580.2929688</ele>
        <time>2012-01-25T10:48:12Z</time>
      </trkpt>
      <trkpt lat="43.44929" lon="5.79336">
        <ele>582.2155762</ele>
        <time>2012-01-25T10:48:23Z</time>
      </trkpt>
      <trkpt lat="43.44932" lon="5.79344">
        <ele>583.6574707</ele>
        <time>2012-01-25T10:48:29Z</time>
      </trkpt>
      <trkpt lat="43.44932" lon="5.79353">
        <ele>583.6574707</ele>
        <time>2012-01-25T10:48:35Z</time>
      </trkpt>
      <trkpt lat="43.44933" lon="5.79362">
        <ele>585.0996094</ele>
        <time>2012-01-25T10:48:43Z</time>
      </trkpt>
      <trkpt lat="43.44933" lon="5.79364">
        <ele>587.0219727</ele>
        <time>2012-01-25T10:48:51Z</time>
      </trkpt>
      <trkpt lat="43.44933" lon="5.79365">
        <ele>587.0219727</ele>
        <time>2012-01-25T10:48:58Z</time>
      </trkpt>
      <trkpt lat="43.44926" lon="5.79352">
        <ele>586.060791</ele>
        <time>2012-01-25T10:49:07Z</time>
      </trkpt>
      <trkpt lat="43.44919" lon="5.79344">
        <ele>586.060791</ele>
        <time>2012-01-25T10:49:13Z</time>
      </trkpt>
      <trkpt lat="43.44912" lon="5.79342">
        <ele>586.5415039</ele>
        <time>2012-01-25T10:49:19Z</time>
      </trkpt>
      <trkpt lat="43.44911" lon="5.79341">
        <ele>587.9833984</ele>
        <time>2012-01-25T10:49:27Z</time>
      </trkpt>
      <trkpt lat="43.44908" lon="5.79337">
        <ele>589.90625</ele>
        <time>2012-01-25T10:49:46Z</time>
      </trkpt>
      <trkpt lat="43.44898" lon="5.79335">
        <ele>587.9833984</ele>
        <time>2012-01-25T10:49:54Z</time>
      </trkpt>
      <trkpt lat="43.44893" lon="5.79323">
        <ele>587.9833984</ele>
        <time>2012-01-25T10:50:01Z</time>
      </trkpt>
      <trkpt lat="43.44895" lon="5.7931">
        <ele>587.5026855</ele>
        <time>2012-01-25T10:50:08Z</time>
      </trkpt>
      <trkpt lat="43.44897" lon="5.79304">
        <ele>587.9833984</ele>
        <time>2012-01-25T10:50:11Z</time>
      </trkpt>
      <trkpt lat="43.44894" lon="5.79293">
        <ele>588.9450684</ele>
        <time>2012-01-25T10:50:17Z</time>
      </trkpt>
      <trkpt lat="43.44885" lon="5.79283">
        <ele>587.0219727</ele>
        <time>2012-01-25T10:50:25Z</time>
      </trkpt>
      <trkpt lat="43.44877" lon="5.79274">
        <ele>589.4255371</ele>
        <time>2012-01-25T10:50:33Z</time>
      </trkpt>
      <trkpt lat="43.44873" lon="5.79263">
        <ele>587.5026855</ele>
        <time>2012-01-25T10:50:40Z</time>
      </trkpt>
      <trkpt lat="43.44869" lon="5.79248">
        <ele>584.1381836</ele>
        <time>2012-01-25T10:50:49Z</time>
      </trkpt>
      <trkpt lat="43.44866" lon="5.79233">
        <ele>586.060791</ele>
        <time>2012-01-25T10:50:57Z</time>
      </trkpt>
      <trkpt lat="43.44865" lon="5.79219">
        <ele>590.3869629</ele>
        <time>2012-01-25T10:51:05Z</time>
      </trkpt>
      <trkpt lat="43.44862" lon="5.79207">
        <ele>593.270752</ele>
        <time>2012-01-25T10:51:12Z</time>
      </trkpt>
      <trkpt lat="43.44861" lon="5.79194">
        <ele>594.7126465</ele>
        <time>2012-01-25T10:51:20Z</time>
      </trkpt>
      <trkpt lat="43.44861" lon="5.79192">
        <ele>594.7126465</ele>
        <time>2012-01-25T10:51:27Z</time>
      </trkpt>
      <trkpt lat="43.44863" lon="5.79188">
        <ele>592.7902832</ele>
        <time>2012-01-25T10:51:45Z</time>
      </trkpt>
      <trkpt lat="43.44868" lon="5.79179">
        <ele>597.5966797</ele>
        <time>2012-01-25T10:51:50Z</time>
      </trkpt>
      <trkpt lat="43.44868" lon="5.79177">
        <ele>604.3261719</ele>
        <time>2012-01-25T10:51:57Z</time>
      </trkpt>
      <trkpt lat="43.44872" lon="5.79176">
        <ele>594.7126465</ele>
        <time>2012-01-25T10:52:10Z</time>
      </trkpt>
      <trkpt lat="43.44871" lon="5.79177">
        <ele>597.1159668</ele>
        <time>2012-01-25T10:52:11Z</time>
      </trkpt>
      <trkpt lat="43.44869" lon="5.7917">
        <ele>598.0773926</ele>
        <time>2012-01-25T10:52:17Z</time>
      </trkpt>
      <trkpt lat="43.44868" lon="5.79158">
        <ele>602.8837891</ele>
        <time>2012-01-25T10:52:25Z</time>
      </trkpt>
      <trkpt lat="43.44867" lon="5.79151">
        <ele>603.8452148</ele>
        <time>2012-01-25T10:52:30Z</time>
      </trkpt>
      <trkpt lat="43.44866" lon="5.79148">
        <ele>603.364502</ele>
        <time>2012-01-25T10:52:33Z</time>
      </trkpt>
      <trkpt lat="43.44863" lon="5.79146">
        <ele>602.8837891</ele>
        <time>2012-01-25T10:52:39Z</time>
      </trkpt>
      <trkpt lat="43.44861" lon="5.79145">
        <ele>603.364502</ele>
        <time>2012-01-25T10:52:41Z</time>
      </trkpt>
      <trkpt lat="43.44859" lon="5.79144">
        <ele>602.8837891</ele>
        <time>2012-01-25T10:52:43Z</time>
      </trkpt>
      <trkpt lat="43.44855" lon="5.79142">
        <ele>603.364502</ele>
        <time>2012-01-25T10:52:48Z</time>
      </trkpt>
      <trkpt lat="43.44852" lon="5.79139">
        <ele>604.8066406</ele>
        <time>2012-01-25T10:52:52Z</time>
      </trkpt>
      <trkpt lat="43.44849" lon="5.79135">
        <ele>607.6906738</ele>
        <time>2012-01-25T10:52:56Z</time>
      </trkpt>
      <trkpt lat="43.44846" lon="5.79133">
        <ele>608.1713867</ele>
        <time>2012-01-25T10:53:03Z</time>
      </trkpt>
      <trkpt lat="43.44842" lon="5.79134">
        <ele>610.5744629</ele>
        <time>2012-01-25T10:53:08Z</time>
      </trkpt>
      <trkpt lat="43.44841" lon="5.79134">
        <ele>612.9777832</ele>
        <time>2012-01-25T10:53:12Z</time>
      </trkpt>
      <trkpt lat="43.44839" lon="5.79135">
        <ele>615.8618164</ele>
        <time>2012-01-25T10:53:14Z</time>
      </trkpt>
      <trkpt lat="43.44836" lon="5.79137">
        <ele>618.7456055</ele>
        <time>2012-01-25T10:53:19Z</time>
      </trkpt>
      <trkpt lat="43.44832" lon="5.79139">
        <ele>623.5524902</ele>
        <time>2012-01-25T10:53:24Z</time>
      </trkpt>
      <trkpt lat="43.44829" lon="5.79134">
        <ele>621.1491699</ele>
        <time>2012-01-25T10:53:30Z</time>
      </trkpt>
      <trkpt lat="43.44826" lon="5.79131">
        <ele>620.668457</ele>
        <time>2012-01-25T10:53:36Z</time>
      </trkpt>
      <trkpt lat="43.44823" lon="5.79133">
        <ele>624.032959</ele>
        <time>2012-01-25T10:53:43Z</time>
      </trkpt>
      <trkpt lat="43.44821" lon="5.79131">
        <ele>628.8395996</ele>
        <time>2012-01-25T10:53:53Z</time>
      </trkpt>
      <trkpt lat="43.44821" lon="5.7913">
        <ele>629.8007813</ele>
        <time>2012-01-25T10:53:55Z</time>
      </trkpt>
      <trkpt lat="43.44813" lon="5.79129">
        <ele>627.8781738</ele>
        <time>2012-01-25T10:54:03Z</time>
      </trkpt>
      <trkpt lat="43.4481" lon="5.79129">
        <ele>628.3588867</ele>
        <time>2012-01-25T10:54:08Z</time>
      </trkpt>
      <trkpt lat="43.4481" lon="5.79129">
        <ele>630.762207</ele>
        <time>2012-01-25T10:54:13Z</time>
      </trkpt>
      <trkpt lat="43.44807" lon="5.79132">
        <ele>631.7233887</ele>
        <time>2012-01-25T10:54:19Z</time>
      </trkpt>
      <trkpt lat="43.44805" lon="5.79133">
        <ele>634.6074219</ele>
        <time>2012-01-25T10:54:27Z</time>
      </trkpt>
      <trkpt lat="43.44802" lon="5.79131">
        <ele>636.0495605</ele>
        <time>2012-01-25T10:54:32Z</time>
      </trkpt>
      <trkpt lat="43.44799" lon="5.79133">
        <ele>638.9335938</ele>
        <time>2012-01-25T10:54:40Z</time>
      </trkpt>
      <trkpt lat="43.44796" lon="5.79135">
        <ele>646.1433105</ele>
        <time>2012-01-25T10:54:52Z</time>
      </trkpt>
      <trkpt lat="43.44793" lon="5.79139">
        <ele>645.6625977</ele>
        <time>2012-01-25T10:54:59Z</time>
      </trkpt>
      <trkpt lat="43.44789" lon="5.79142">
        <ele>646.6240234</ele>
        <time>2012-01-25T10:55:07Z</time>
      </trkpt>
      <trkpt lat="43.44788" lon="5.79146">
        <ele>649.9885254</ele>
        <time>2012-01-25T10:55:19Z</time>
      </trkpt>
      <trkpt lat="43.44786" lon="5.79146">
        <ele>650.949707</ele>
        <time>2012-01-25T10:55:24Z</time>
      </trkpt>
      <trkpt lat="43.44778" lon="5.7915">
        <ele>651.9111328</ele>
        <time>2012-01-25T10:55:42Z</time>
      </trkpt>
      <trkpt lat="43.44777" lon="5.7915">
        <ele>652.3918457</ele>
        <time>2012-01-25T10:55:45Z</time>
      </trkpt>
      <trkpt lat="43.44776" lon="5.79151">
        <ele>654.795166</ele>
        <time>2012-01-25T10:55:52Z</time>
      </trkpt>
      <trkpt lat="43.44763" lon="5.79158">
        <ele>662.9663086</ele>
        <time>2012-01-25T10:56:24Z</time>
      </trkpt>
      <trkpt lat="43.44759" lon="5.79159">
        <ele>658.1599121</ele>
        <time>2012-01-25T10:56:28Z</time>
      </trkpt>
      <trkpt lat="43.44754" lon="5.79159">
        <ele>657.6791992</ele>
        <time>2012-01-25T10:56:37Z</time>
      </trkpt>
      <trkpt lat="43.44754" lon="5.79161">
        <ele>661.0437012</ele>
        <time>2012-01-25T10:56:44Z</time>
      </trkpt>
      <trkpt lat="43.44751" lon="5.79162">
        <ele>663.9274902</ele>
        <time>2012-01-25T10:56:51Z</time>
      </trkpt>
      <trkpt lat="43.44748" lon="5.79164">
        <ele>673.5410156</ele>
        <time>2012-01-25T10:57:15Z</time>
      </trkpt>
      <trkpt lat="43.44748" lon="5.79164">
        <ele>674.0214844</ele>
        <time>2012-01-25T10:57:16Z</time>
      </trkpt>
      <trkpt lat="43.44735" lon="5.7917">
        <ele>674.9829102</ele>
        <time>2012-01-25T10:57:46Z</time>
      </trkpt>
      <trkpt lat="43.44735" lon="5.79172">
        <ele>674.0214844</ele>
        <time>2012-01-25T10:57:51Z</time>
      </trkpt>
      <trkpt lat="43.44736" lon="5.79172">
        <ele>675.4633789</ele>
        <time>2012-01-25T10:57:58Z</time>
      </trkpt>
      <trkpt lat="43.44737" lon="5.79175">
        <ele>677.3862305</ele>
        <time>2012-01-25T10:58:04Z</time>
      </trkpt>
      <trkpt lat="43.44739" lon="5.79179">
        <ele>679.3085938</ele>
        <time>2012-01-25T10:58:12Z</time>
      </trkpt>
      <trkpt lat="43.44739" lon="5.79182">
        <ele>680.7507324</ele>
        <time>2012-01-25T10:58:19Z</time>
      </trkpt>
      <trkpt lat="43.44743" lon="5.79184">
        <ele>682.192627</ele>
        <time>2012-01-25T10:58:26Z</time>
      </trkpt>
      <trkpt lat="43.44739" lon="5.79187">
        <ele>679.7893066</ele>
        <time>2012-01-25T10:58:34Z</time>
      </trkpt>
      <trkpt lat="43.44737" lon="5.79189">
        <ele>680.7507324</ele>
        <time>2012-01-25T10:58:38Z</time>
      </trkpt>
      <trkpt lat="43.44736" lon="5.79193">
        <ele>681.7119141</ele>
        <time>2012-01-25T10:58:47Z</time>
      </trkpt>
      <trkpt lat="43.44736" lon="5.79193">
        <ele>682.192627</ele>
        <time>2012-01-25T10:58:48Z</time>
      </trkpt>
      <trkpt lat="43.44739" lon="5.79195">
        <ele>685.0769043</ele>
        <time>2012-01-25T10:58:54Z</time>
      </trkpt>
      <trkpt lat="43.44742" lon="5.79198">
        <ele>685.0769043</ele>
        <time>2012-01-25T10:59:00Z</time>
      </trkpt>
      <trkpt lat="43.44743" lon="5.79203">
        <ele>685.557373</ele>
        <time>2012-01-25T10:59:04Z</time>
      </trkpt>
      <trkpt lat="43.44743" lon="5.79206">
        <ele>687.9606934</ele>
        <time>2012-01-25T10:59:10Z</time>
      </trkpt>
      <trkpt lat="43.44742" lon="5.79206">
        <ele>689.8833008</ele>
        <time>2012-01-25T10:59:16Z</time>
      </trkpt>
      <trkpt lat="43.4474" lon="5.79207">
        <ele>691.3251953</ele>
        <time>2012-01-25T10:59:22Z</time>
      </trkpt>
      <trkpt lat="43.44738" lon="5.79206">
        <ele>691.3251953</ele>
        <time>2012-01-25T10:59:28Z</time>
      </trkpt>
      <trkpt lat="43.44737" lon="5.79204">
        <ele>691.8059082</ele>
        <time>2012-01-25T10:59:34Z</time>
      </trkpt>
      <trkpt lat="43.44734" lon="5.79207">
        <ele>693.2478027</ele>
        <time>2012-01-25T10:59:43Z</time>
      </trkpt>
      <trkpt lat="43.44735" lon="5.79212">
        <ele>693.2478027</ele>
        <time>2012-01-25T10:59:49Z</time>
      </trkpt>
      <trkpt lat="43.44735" lon="5.79213">
        <ele>693.2478027</ele>
        <time>2012-01-25T10:59:50Z</time>
      </trkpt>
      <trkpt lat="43.44735" lon="5.79218">
        <ele>694.6896973</ele>
        <time>2012-01-25T10:59:57Z</time>
      </trkpt>
      <trkpt lat="43.44734" lon="5.79217">
        <ele>696.1318359</ele>
        <time>2012-01-25T11:00:02Z</time>
      </trkpt>
      <trkpt lat="43.44732" lon="5.79216">
        <ele>696.1318359</ele>
        <time>2012-01-25T11:00:17Z</time>
      </trkpt>
      <trkpt lat="43.4473" lon="5.79217">
        <ele>698.0544434</ele>
        <time>2012-01-25T11:00:21Z</time>
      </trkpt>
      <trkpt lat="43.44727" lon="5.79219">
        <ele>700.9384766</ele>
        <time>2012-01-25T11:00:27Z</time>
      </trkpt>
      <trkpt lat="43.44725" lon="5.79223">
        <ele>703.8225098</ele>
        <time>2012-01-25T11:00:33Z</time>
      </trkpt>
      <trkpt lat="43.44725" lon="5.79223">
        <ele>704.3032227</ele>
        <time>2012-01-25T11:00:48Z</time>
      </trkpt>
      <trkpt lat="43.44725" lon="5.79223">
        <ele>704.3032227</ele>
        <time>2012-01-25T11:00:49Z</time>
      </trkpt>
      <trkpt lat="43.44725" lon="5.79229">
        <ele>707.6677246</ele>
        <time>2012-01-25T11:01:05Z</time>
      </trkpt>
      <trkpt lat="43.44722" lon="5.79234">
        <ele>708.1484375</ele>
        <time>2012-01-25T11:01:12Z</time>
      </trkpt>
      <trkpt lat="43.4472" lon="5.79237">
        <ele>709.1096191</ele>
        <time>2012-01-25T11:01:17Z</time>
      </trkpt>
      <trkpt lat="43.44718" lon="5.79239">
        <ele>710.0708008</ele>
        <time>2012-01-25T11:01:23Z</time>
      </trkpt>
      <trkpt lat="43.44716" lon="5.79237">
        <ele>711.0322266</ele>
        <time>2012-01-25T11:01:29Z</time>
      </trkpt>
      <trkpt lat="43.44714" lon="5.79234">
        <ele>711.9936523</ele>
        <time>2012-01-25T11:01:35Z</time>
      </trkpt>
      <trkpt lat="43.44712" lon="5.79233">
        <ele>713.9160156</ele>
        <time>2012-01-25T11:01:41Z</time>
      </trkpt>
      <trkpt lat="43.44709" lon="5.79235">
        <ele>714.8774414</ele>
        <time>2012-01-25T11:01:47Z</time>
      </trkpt>
      <trkpt lat="43.44705" lon="5.7924">
        <ele>716.800293</ele>
        <time>2012-01-25T11:01:55Z</time>
      </trkpt>
      <trkpt lat="43.44703" lon="5.79246">
        <ele>721.6066895</ele>
        <time>2012-01-25T11:02:03Z</time>
      </trkpt>
      <trkpt lat="43.44698" lon="5.79247">
        <ele>723.0488281</ele>
        <time>2012-01-25T11:02:10Z</time>
      </trkpt>
      <trkpt lat="43.44694" lon="5.79246">
        <ele>725.4519043</ele>
        <time>2012-01-25T11:02:17Z</time>
      </trkpt>
      <trkpt lat="43.44689" lon="5.79245">
        <ele>727.8552246</ele>
        <time>2012-01-25T11:02:25Z</time>
      </trkpt>
      <trkpt lat="43.44686" lon="5.79242">
        <ele>729.777832</ele>
        <time>2012-01-25T11:02:33Z</time>
      </trkpt>
      <trkpt lat="43.44683" lon="5.79242">
        <ele>730.2585449</ele>
        <time>2012-01-25T11:02:40Z</time>
      </trkpt>
      <trkpt lat="43.44677" lon="5.79243">
        <ele>730.2585449</ele>
        <time>2012-01-25T11:02:54Z</time>
      </trkpt>
      <trkpt lat="43.44674" lon="5.79244">
        <ele>733.1425781</ele>
        <time>2012-01-25T11:03:04Z</time>
      </trkpt>
      <trkpt lat="43.44671" lon="5.79244">
        <ele>735.5458984</ele>
        <time>2012-01-25T11:03:12Z</time>
      </trkpt>
      <trkpt lat="43.44668" lon="5.79243">
        <ele>736.987793</ele>
        <time>2012-01-25T11:03:17Z</time>
      </trkpt>
      <trkpt lat="43.44666" lon="5.79241">
        <ele>739.3911133</ele>
        <time>2012-01-25T11:03:24Z</time>
      </trkpt>
      <trkpt lat="43.44663" lon="5.79238">
        <ele>741.3137207</ele>
        <time>2012-01-25T11:03:32Z</time>
      </trkpt>
      <trkpt lat="43.44661" lon="5.79233">
        <ele>741.7944336</ele>
        <time>2012-01-25T11:03:38Z</time>
      </trkpt>
      <trkpt lat="43.4466" lon="5.79231">
        <ele>742.7558594</ele>
        <time>2012-01-25T11:03:43Z</time>
      </trkpt>
      <trkpt lat="43.44657" lon="5.79228">
        <ele>743.717041</ele>
        <time>2012-01-25T11:03:48Z</time>
      </trkpt>
      <trkpt lat="43.44652" lon="5.79224">
        <ele>743.717041</ele>
        <time>2012-01-25T11:03:57Z</time>
      </trkpt>
      <trkpt lat="43.44651" lon="5.79226">
        <ele>744.1977539</ele>
        <time>2012-01-25T11:04:05Z</time>
      </trkpt>
      <trkpt lat="43.44649" lon="5.79227">
        <ele>745.1589355</ele>
        <time>2012-01-25T11:04:11Z</time>
      </trkpt>
      <trkpt lat="43.44649" lon="5.79227">
        <ele>745.6396484</ele>
        <time>2012-01-25T11:04:12Z</time>
      </trkpt>
      <trkpt lat="43.44645" lon="5.7923">
        <ele>747.5622559</ele>
        <time>2012-01-25T11:04:21Z</time>
      </trkpt>
      <trkpt lat="43.44644" lon="5.7923">
        <ele>747.081543</ele>
        <time>2012-01-25T11:04:23Z</time>
      </trkpt>
      <trkpt lat="43.44642" lon="5.79229">
        <ele>749.0043945</ele>
        <time>2012-01-25T11:04:30Z</time>
      </trkpt>
      <trkpt lat="43.4464" lon="5.79225">
        <ele>746.1203613</ele>
        <time>2012-01-25T11:04:42Z</time>
      </trkpt>
      <trkpt lat="43.44637" lon="5.79219">
        <ele>743.717041</ele>
        <time>2012-01-25T11:04:49Z</time>
      </trkpt>
      <trkpt lat="43.44636" lon="5.79216">
        <ele>743.2363281</ele>
        <time>2012-01-25T11:04:55Z</time>
      </trkpt>
      <trkpt lat="43.44633" lon="5.79216">
        <ele>744.1977539</ele>
        <time>2012-01-25T11:05:02Z</time>
      </trkpt>
      <trkpt lat="43.44633" lon="5.79221">
        <ele>747.5622559</ele>
        <time>2012-01-25T11:05:12Z</time>
      </trkpt>
      <trkpt lat="43.44633" lon="5.79224">
        <ele>749.0043945</ele>
        <time>2012-01-25T11:05:18Z</time>
      </trkpt>
      <trkpt lat="43.44634" lon="5.79226">
        <ele>749.4851074</ele>
        <time>2012-01-25T11:05:22Z</time>
      </trkpt>
      <trkpt lat="43.44635" lon="5.79228">
        <ele>749.9658203</ele>
        <time>2012-01-25T11:05:32Z</time>
      </trkpt>
      <trkpt lat="43.44636" lon="5.79227">
        <ele>750.4465332</ele>
        <time>2012-01-25T11:05:38Z</time>
      </trkpt>
      <trkpt lat="43.44635" lon="5.79229">
        <ele>751.4077148</ele>
        <time>2012-01-25T11:05:46Z</time>
      </trkpt>
      <trkpt lat="43.44634" lon="5.79233">
        <ele>752.3688965</ele>
        <time>2012-01-25T11:05:52Z</time>
      </trkpt>
      <trkpt lat="43.44633" lon="5.79237">
        <ele>753.8110352</ele>
        <time>2012-01-25T11:06:00Z</time>
      </trkpt>
      <trkpt lat="43.44633" lon="5.79242">
        <ele>754.7722168</ele>
        <time>2012-01-25T11:06:06Z</time>
      </trkpt>
      <trkpt lat="43.44632" lon="5.79245">
        <ele>753.8110352</ele>
        <time>2012-01-25T11:06:14Z</time>
      </trkpt>
      <trkpt lat="43.44631" lon="5.79247">
        <ele>754.7722168</ele>
        <time>2012-01-25T11:06:22Z</time>
      </trkpt>
      <trkpt lat="43.4463" lon="5.79248">
        <ele>756.6948242</ele>
        <time>2012-01-25T11:06:31Z</time>
      </trkpt>
      <trkpt lat="43.44625" lon="5.79249">
        <ele>759.0981445</ele>
        <time>2012-01-25T11:06:50Z</time>
      </trkpt>
      <trkpt lat="43.44624" lon="5.79251">
        <ele>760.0593262</ele>
        <time>2012-01-25T11:07:05Z</time>
      </trkpt>
      <trkpt lat="43.44623" lon="5.7925">
        <ele>760.0593262</ele>
        <time>2012-01-25T11:07:12Z</time>
      </trkpt>
      <trkpt lat="43.44621" lon="5.7925">
        <ele>760.0593262</ele>
        <time>2012-01-25T11:07:18Z</time>
      </trkpt>
      <trkpt lat="43.44618" lon="5.79252">
        <ele>761.020752</ele>
        <time>2012-01-25T11:07:26Z</time>
      </trkpt>
      <trkpt lat="43.44615" lon="5.79253">
        <ele>761.5014648</ele>
        <time>2012-01-25T11:07:32Z</time>
      </trkpt>
      <trkpt lat="43.44614" lon="5.79256">
        <ele>762.9433594</ele>
        <time>2012-01-25T11:07:38Z</time>
      </trkpt>
      <trkpt lat="43.44614" lon="5.79258">
        <ele>763.4240723</ele>
        <time>2012-01-25T11:07:40Z</time>
      </trkpt>
      <trkpt lat="43.44613" lon="5.79263">
        <ele>762.9433594</ele>
        <time>2012-01-25T11:07:47Z</time>
      </trkpt>
      <trkpt lat="43.44613" lon="5.79265">
        <ele>765.3469238</ele>
        <time>2012-01-25T11:08:09Z</time>
      </trkpt>
      <trkpt lat="43.44611" lon="5.79267">
        <ele>767.75</ele>
        <time>2012-01-25T11:08:21Z</time>
      </trkpt>
      <trkpt lat="43.44609" lon="5.79264">
        <ele>769.6728516</ele>
        <time>2012-01-25T11:08:27Z</time>
      </trkpt>
      <trkpt lat="43.44607" lon="5.79264">
        <ele>770.1533203</ele>
        <time>2012-01-25T11:08:32Z</time>
      </trkpt>
      <trkpt lat="43.44605" lon="5.79261">
        <ele>771.5952148</ele>
        <time>2012-01-25T11:08:38Z</time>
      </trkpt>
      <trkpt lat="43.44604" lon="5.79257">
        <ele>772.0759277</ele>
        <time>2012-01-25T11:08:44Z</time>
      </trkpt>
      <trkpt lat="43.44605" lon="5.79253">
        <ele>771.5952148</ele>
        <time>2012-01-25T11:08:48Z</time>
      </trkpt>
      <trkpt lat="43.44605" lon="5.79246">
        <ele>770.6340332</ele>
        <time>2012-01-25T11:08:55Z</time>
      </trkpt>
      <trkpt lat="43.44604" lon="5.79242">
        <ele>770.6340332</ele>
        <time>2012-01-25T11:09:01Z</time>
      </trkpt>
      <trkpt lat="43.44604" lon="5.7924">
        <ele>770.1533203</ele>
        <time>2012-01-25T11:09:04Z</time>
      </trkpt>
      <trkpt lat="43.44602" lon="5.79233">
        <ele>768.7114258</ele>
        <time>2012-01-25T11:09:11Z</time>
      </trkpt>
      <trkpt lat="43.44601" lon="5.79231">
        <ele>768.2307129</ele>
        <time>2012-01-25T11:09:13Z</time>
      </trkpt>
      <trkpt lat="43.44595" lon="5.79227">
        <ele>770.1533203</ele>
        <time>2012-01-25T11:09:20Z</time>
      </trkpt>
      <trkpt lat="43.44594" lon="5.79223">
        <ele>769.6728516</ele>
        <time>2012-01-25T11:09:28Z</time>
      </trkpt>
      <trkpt lat="43.44595" lon="5.79219">
        <ele>772.5566406</ele>
        <time>2012-01-25T11:09:37Z</time>
      </trkpt>
      <trkpt lat="43.44597" lon="5.79214">
        <ele>773.5180664</ele>
        <time>2012-01-25T11:09:49Z</time>
      </trkpt>
      <trkpt lat="43.44598" lon="5.79213">
        <ele>773.5180664</ele>
        <time>2012-01-25T11:09:58Z</time>
      </trkpt>
      <trkpt lat="43.446" lon="5.79211">
        <ele>771.5952148</ele>
        <time>2012-01-25T11:10:16Z</time>
      </trkpt>
      <trkpt lat="43.44602" lon="5.79207">
        <ele>771.5952148</ele>
        <time>2012-01-25T11:10:23Z</time>
      </trkpt>
      <trkpt lat="43.44603" lon="5.79204">
        <ele>771.5952148</ele>
        <time>2012-01-25T11:10:29Z</time>
      </trkpt>
      <trkpt lat="43.44603" lon="5.79196">
        <ele>773.9985352</ele>
        <time>2012-01-25T11:10:35Z</time>
      </trkpt>
      <trkpt lat="43.44603" lon="5.79188">
        <ele>774.9599609</ele>
        <time>2012-01-25T11:10:42Z</time>
      </trkpt>
      <trkpt lat="43.44603" lon="5.79183">
        <ele>776.4018555</ele>
        <time>2012-01-25T11:10:44Z</time>
      </trkpt>
      <trkpt lat="43.446" lon="5.79176">
        <ele>774.479248</ele>
        <time>2012-01-25T11:10:52Z</time>
      </trkpt>
      <trkpt lat="43.44599" lon="5.79172">
        <ele>770.6340332</ele>
        <time>2012-01-25T11:10:58Z</time>
      </trkpt>
      <trkpt lat="43.44596" lon="5.79165">
        <ele>765.8276367</ele>
        <time>2012-01-25T11:11:07Z</time>
      </trkpt>
      <trkpt lat="43.44595" lon="5.79163">
        <ele>761.9821777</ele>
        <time>2012-01-25T11:11:15Z</time>
      </trkpt>
      <trkpt lat="43.44595" lon="5.79164">
        <ele>762.9433594</ele>
        <time>2012-01-25T11:11:18Z</time>
      </trkpt>
      <trkpt lat="43.44591" lon="5.79165">
        <ele>764.8662109</ele>
        <time>2012-01-25T11:11:23Z</time>
      </trkpt>
      <trkpt lat="43.4459" lon="5.79165">
        <ele>764.8662109</ele>
        <time>2012-01-25T11:11:30Z</time>
      </trkpt>
      <trkpt lat="43.44587" lon="5.79164">
        <ele>767.2695313</ele>
        <time>2012-01-25T11:11:34Z</time>
      </trkpt>
      <trkpt lat="43.44584" lon="5.79165">
        <ele>770.1533203</ele>
        <time>2012-01-25T11:11:41Z</time>
      </trkpt>
      <trkpt lat="43.44585" lon="5.79163">
        <ele>772.5566406</ele>
        <time>2012-01-25T11:11:46Z</time>
      </trkpt>
      <trkpt lat="43.44582" lon="5.79161">
        <ele>776.4018555</ele>
        <time>2012-01-25T11:11:57Z</time>
      </trkpt>
      <trkpt lat="43.44583" lon="5.79169">
        <ele>784.5732422</ele>
        <time>2012-01-25T11:12:10Z</time>
      </trkpt>
      <trkpt lat="43.44576" lon="5.79168">
        <ele>779.7663574</ele>
        <time>2012-01-25T11:12:36Z</time>
      </trkpt>
      <trkpt lat="43.44574" lon="5.7916">
        <ele>782.6506348</ele>
        <time>2012-01-25T11:12:49Z</time>
      </trkpt>
      <trkpt lat="43.44569" lon="5.79151">
        <ele>784.5732422</ele>
        <time>2012-01-25T11:13:21Z</time>
      </trkpt>
      <trkpt lat="43.4456" lon="5.79141">
        <ele>792.7443848</ele>
        <time>2012-01-25T11:14:13Z</time>
      </trkpt>
      <trkpt lat="43.44559" lon="5.79141">
        <ele>793.7055664</ele>
        <time>2012-01-25T11:14:17Z</time>
      </trkpt>
      <trkpt lat="43.4456" lon="5.79145">
        <ele>802.3574219</ele>
        <time>2012-01-25T11:14:29Z</time>
      </trkpt>
      <trkpt lat="43.44557" lon="5.79145">
        <ele>804.7607422</ele>
        <time>2012-01-25T11:14:41Z</time>
      </trkpt>
      <trkpt lat="43.44549" lon="5.79133">
        <ele>807.6447754</ele>
        <time>2012-01-25T11:15:25Z</time>
      </trkpt>
      <trkpt lat="43.4454" lon="5.79126">
        <ele>810.5285645</ele>
        <time>2012-01-25T11:16:23Z</time>
      </trkpt>
      <trkpt lat="43.44536" lon="5.79124">
        <ele>807.1640625</ele>
        <time>2012-01-25T11:16:28Z</time>
      </trkpt>
      <trkpt lat="43.44535" lon="5.79123">
        <ele>806.6833496</ele>
        <time>2012-01-25T11:16:29Z</time>
      </trkpt>
      <trkpt lat="43.44529" lon="5.7911">
        <ele>825.4289551</ele>
        <time>2012-01-25T11:17:46Z</time>
      </trkpt>
      <trkpt lat="43.44527" lon="5.79109">
        <ele>826.3903809</ele>
        <time>2012-01-25T11:17:53Z</time>
      </trkpt>
      <trkpt lat="43.44526" lon="5.79109">
        <ele>826.8710938</ele>
        <time>2012-01-25T11:18:01Z</time>
      </trkpt>
      <trkpt lat="43.44528" lon="5.79111">
        <ele>829.755127</ele>
        <time>2012-01-25T11:18:03Z</time>
      </trkpt>
      <trkpt lat="43.44522" lon="5.79112">
        <ele>830.7165527</ele>
        <time>2012-01-25T11:18:14Z</time>
      </trkpt>
      <trkpt lat="43.44514" lon="5.79113">
        <ele>834.5617676</ele>
        <time>2012-01-25T11:18:45Z</time>
      </trkpt>
      <trkpt lat="43.44511" lon="5.79105">
        <ele>836.9648438</ele>
        <time>2012-01-25T11:18:59Z</time>
      </trkpt>
      <trkpt lat="43.44511" lon="5.79102">
        <ele>840.3295898</ele>
        <time>2012-01-25T11:19:04Z</time>
      </trkpt>
      <trkpt lat="43.44505" lon="5.79083">
        <ele>846.5783691</ele>
        <time>2012-01-25T11:19:41Z</time>
      </trkpt>
      <trkpt lat="43.44503" lon="5.79082">
        <ele>847.5395508</ele>
        <time>2012-01-25T11:19:50Z</time>
      </trkpt>
      <trkpt lat="43.445" lon="5.79082">
        <ele>848.9814453</ele>
        <time>2012-01-25T11:19:56Z</time>
      </trkpt>
      <trkpt lat="43.44499" lon="5.79076">
        <ele>849.4621582</ele>
        <time>2012-01-25T11:20:02Z</time>
      </trkpt>
      <trkpt lat="43.44501" lon="5.79072">
        <ele>850.423584</ele>
        <time>2012-01-25T11:20:07Z</time>
      </trkpt>
      <trkpt lat="43.44505" lon="5.79065">
        <ele>850.9040527</ele>
        <time>2012-01-25T11:20:14Z</time>
      </trkpt>
      <trkpt lat="43.44505" lon="5.79064">
        <ele>850.9040527</ele>
        <time>2012-01-25T11:20:15Z</time>
      </trkpt>
      <trkpt lat="43.44506" lon="5.79059">
        <ele>851.3847656</ele>
        <time>2012-01-25T11:20:20Z</time>
      </trkpt>
      <trkpt lat="43.44508" lon="5.79054">
        <ele>852.3459473</ele>
        <time>2012-01-25T11:20:25Z</time>
      </trkpt>
      <trkpt lat="43.44513" lon="5.79052">
        <ele>852.3459473</ele>
        <time>2012-01-25T11:20:29Z</time>
      </trkpt>
      <trkpt lat="43.44518" lon="5.79049">
        <ele>853.307373</ele>
        <time>2012-01-25T11:20:34Z</time>
      </trkpt>
      <trkpt lat="43.44523" lon="5.79046">
        <ele>853.7880859</ele>
        <time>2012-01-25T11:20:41Z</time>
      </trkpt>
      <trkpt lat="43.4453" lon="5.7904">
        <ele>854.2687988</ele>
        <time>2012-01-25T11:20:49Z</time>
      </trkpt>
      <trkpt lat="43.44534" lon="5.79036">
        <ele>854.2687988</ele>
        <time>2012-01-25T11:20:54Z</time>
      </trkpt>
      <trkpt lat="43.44539" lon="5.79034">
        <ele>854.7492676</ele>
        <time>2012-01-25T11:20:58Z</time>
      </trkpt>
      <trkpt lat="43.44547" lon="5.79035">
        <ele>855.7106934</ele>
        <time>2012-01-25T11:21:05Z</time>
      </trkpt>
      <trkpt lat="43.44553" lon="5.79039">
        <ele>855.7106934</ele>
        <time>2012-01-25T11:21:12Z</time>
      </trkpt>
      <trkpt lat="43.44554" lon="5.7904">
        <ele>856.1911621</ele>
        <time>2012-01-25T11:21:18Z</time>
      </trkpt>
      <trkpt lat="43.44552" lon="5.79038">
        <ele>856.1911621</ele>
        <time>2012-01-25T11:21:36Z</time>
      </trkpt>
      <trkpt lat="43.44548" lon="5.79029">
        <ele>856.1911621</ele>
        <time>2012-01-25T11:21:43Z</time>
      </trkpt>
      <trkpt lat="43.44548" lon="5.79026">
        <ele>856.1911621</ele>
        <time>2012-01-25T11:21:45Z</time>
      </trkpt>
      <trkpt lat="43.44552" lon="5.79011">
        <ele>856.1911621</ele>
        <time>2012-01-25T11:21:54Z</time>
      </trkpt>
      <trkpt lat="43.44556" lon="5.79">
        <ele>856.671875</ele>
        <time>2012-01-25T11:22:01Z</time>
      </trkpt>
      <trkpt lat="43.44562" lon="5.78988">
        <ele>856.671875</ele>
        <time>2012-01-25T11:22:09Z</time>
      </trkpt>
      <trkpt lat="43.44568" lon="5.7898">
        <ele>856.671875</ele>
        <time>2012-01-25T11:22:16Z</time>
      </trkpt>
      <trkpt lat="43.44571" lon="5.78968">
        <ele>856.671875</ele>
        <time>2012-01-25T11:22:24Z</time>
      </trkpt>
      <trkpt lat="43.44573" lon="5.78962">
        <ele>856.671875</ele>
        <time>2012-01-25T11:22:27Z</time>
      </trkpt>
      <trkpt lat="43.44573" lon="5.78949">
        <ele>856.671875</ele>
        <time>2012-01-25T11:22:34Z</time>
      </trkpt>
      <trkpt lat="43.44576" lon="5.78935">
        <ele>856.671875</ele>
        <time>2012-01-25T11:22:43Z</time>
      </trkpt>
      <trkpt lat="43.44585" lon="5.78919">
        <ele>857.6333008</ele>
        <time>2012-01-25T11:22:54Z</time>
      </trkpt>
      <trkpt lat="43.44589" lon="5.78911">
        <ele>857.6333008</ele>
        <time>2012-01-25T11:23:00Z</time>
      </trkpt>
      <trkpt lat="43.44592" lon="5.78906">
        <ele>857.6333008</ele>
        <time>2012-01-25T11:23:03Z</time>
      </trkpt>
      <trkpt lat="43.44597" lon="5.78895">
        <ele>858.5944824</ele>
        <time>2012-01-25T11:23:11Z</time>
      </trkpt>
      <trkpt lat="43.446" lon="5.78884">
        <ele>859.0751953</ele>
        <time>2012-01-25T11:23:17Z</time>
      </trkpt>
      <trkpt lat="43.44602" lon="5.78872">
        <ele>859.0751953</ele>
        <time>2012-01-25T11:23:24Z</time>
      </trkpt>
      <trkpt lat="43.44606" lon="5.78861">
        <ele>860.0366211</ele>
        <time>2012-01-25T11:23:30Z</time>
      </trkpt>
      <trkpt lat="43.4461" lon="5.78854">
        <ele>860.517334</ele>
        <time>2012-01-25T11:23:35Z</time>
      </trkpt>
      <trkpt lat="43.44611" lon="5.78853">
        <ele>860.517334</ele>
        <time>2012-01-25T11:23:36Z</time>
      </trkpt>
      <trkpt lat="43.44615" lon="5.78839">
        <ele>860.9980469</ele>
        <time>2012-01-25T11:23:44Z</time>
      </trkpt>
      <trkpt lat="43.44619" lon="5.78826">
        <ele>861.4787598</ele>
        <time>2012-01-25T11:23:51Z</time>
      </trkpt>
      <trkpt lat="43.44622" lon="5.78814">
        <ele>861.9594727</ele>
        <time>2012-01-25T11:23:58Z</time>
      </trkpt>
      <trkpt lat="43.44628" lon="5.78804">
        <ele>861.9594727</ele>
        <time>2012-01-25T11:24:05Z</time>
      </trkpt>
      <trkpt lat="43.44632" lon="5.78795">
        <ele>861.9594727</ele>
        <time>2012-01-25T11:24:11Z</time>
      </trkpt>
      <trkpt lat="43.44637" lon="5.78786">
        <ele>862.4399414</ele>
        <time>2012-01-25T11:24:17Z</time>
      </trkpt>
      <trkpt lat="43.44638" lon="5.78777">
        <ele>861.9594727</ele>
        <time>2012-01-25T11:24:22Z</time>
      </trkpt>
      <trkpt lat="43.44637" lon="5.78767">
        <ele>861.9594727</ele>
        <time>2012-01-25T11:24:28Z</time>
      </trkpt>
      <trkpt lat="43.44637" lon="5.78765">
        <ele>861.9594727</ele>
        <time>2012-01-25T11:24:29Z</time>
      </trkpt>
      <trkpt lat="43.4464" lon="5.78756">
        <ele>861.4787598</ele>
        <time>2012-01-25T11:24:35Z</time>
      </trkpt>
      <trkpt lat="43.44642" lon="5.78756">
        <ele>860.9980469</ele>
        <time>2012-01-25T11:24:37Z</time>
      </trkpt>
      <trkpt lat="43.44647" lon="5.78759">
        <ele>861.4787598</ele>
        <time>2012-01-25T11:24:46Z</time>
      </trkpt>
      <trkpt lat="43.44648" lon="5.78759">
        <ele>861.4787598</ele>
        <time>2012-01-25T11:24:47Z</time>
      </trkpt>
      <trkpt lat="43.4465" lon="5.78763">
        <ele>862.4399414</ele>
        <time>2012-01-25T11:24:51Z</time>
      </trkpt>
      <trkpt lat="43.44651" lon="5.78768">
        <ele>862.9206543</ele>
        <time>2012-01-25T11:24:55Z</time>
      </trkpt>
      <trkpt lat="43.44654" lon="5.78768">
        <ele>862.9206543</ele>
        <time>2012-01-25T11:25:01Z</time>
      </trkpt>
      <trkpt lat="43.44652" lon="5.78768">
        <ele>863.4013672</ele>
        <time>2012-01-25T11:25:17Z</time>
      </trkpt>
      <trkpt lat="43.4465" lon="5.78768">
        <ele>863.4013672</ele>
        <time>2012-01-25T11:25:19Z</time>
      </trkpt>
      <trkpt lat="43.44642" lon="5.78761">
        <ele>863.4013672</ele>
        <time>2012-01-25T11:25:27Z</time>
      </trkpt>
      <trkpt lat="43.44642" lon="5.78761">
        <ele>863.4013672</ele>
        <time>2012-01-25T11:25:28Z</time>
      </trkpt>
      <trkpt lat="43.44643" lon="5.78754">
        <ele>862.9206543</ele>
        <time>2012-01-25T11:25:33Z</time>
      </trkpt>
      <trkpt lat="43.44644" lon="5.78751">
        <ele>861.4787598</ele>
        <time>2012-01-25T11:25:38Z</time>
      </trkpt>
      <trkpt lat="43.4465" lon="5.78745">
        <ele>861.9594727</ele>
        <time>2012-01-25T11:25:44Z</time>
      </trkpt>
      <trkpt lat="43.44656" lon="5.78741">
        <ele>862.9206543</ele>
        <time>2012-01-25T11:25:50Z</time>
      </trkpt>
      <trkpt lat="43.44663" lon="5.78736">
        <ele>863.8818359</ele>
        <time>2012-01-25T11:25:56Z</time>
      </trkpt>
      <trkpt lat="43.44664" lon="5.78735">
        <ele>863.8818359</ele>
        <time>2012-01-25T11:25:57Z</time>
      </trkpt>
      <trkpt lat="43.44666" lon="5.78723">
        <ele>864.8432617</ele>
        <time>2012-01-25T11:26:03Z</time>
      </trkpt>
      <trkpt lat="43.4467" lon="5.78711">
        <ele>864.3625488</ele>
        <time>2012-01-25T11:26:10Z</time>
      </trkpt>
      <trkpt lat="43.44675" lon="5.78698">
        <ele>864.3625488</ele>
        <time>2012-01-25T11:26:17Z</time>
      </trkpt>
      <trkpt lat="43.44682" lon="5.78685">
        <ele>864.3625488</ele>
        <time>2012-01-25T11:26:26Z</time>
      </trkpt>
      <trkpt lat="43.44686" lon="5.78674">
        <ele>864.3625488</ele>
        <time>2012-01-25T11:26:32Z</time>
      </trkpt>
      <trkpt lat="43.4469" lon="5.78665">
        <ele>864.3625488</ele>
        <time>2012-01-25T11:26:38Z</time>
      </trkpt>
      <trkpt lat="43.44692" lon="5.78657">
        <ele>863.8818359</ele>
        <time>2012-01-25T11:26:43Z</time>
      </trkpt>
      <trkpt lat="43.44696" lon="5.78648">
        <ele>864.3625488</ele>
        <time>2012-01-25T11:26:49Z</time>
      </trkpt>
      <trkpt lat="43.44695" lon="5.78638">
        <ele>864.3625488</ele>
        <time>2012-01-25T11:26:55Z</time>
      </trkpt>
      <trkpt lat="43.44696" lon="5.78629">
        <ele>864.3625488</ele>
        <time>2012-01-25T11:27:00Z</time>
      </trkpt>
      <trkpt lat="43.447" lon="5.78618">
        <ele>863.8818359</ele>
        <time>2012-01-25T11:27:07Z</time>
      </trkpt>
      <trkpt lat="43.44703" lon="5.78605">
        <ele>863.4013672</ele>
        <time>2012-01-25T11:27:14Z</time>
      </trkpt>
      <trkpt lat="43.44707" lon="5.78595">
        <ele>863.4013672</ele>
        <time>2012-01-25T11:27:20Z</time>
      </trkpt>
      <trkpt lat="43.44713" lon="5.78585">
        <ele>863.4013672</ele>
        <time>2012-01-25T11:27:28Z</time>
      </trkpt>
      <trkpt lat="43.44718" lon="5.78576">
        <ele>863.4013672</ele>
        <time>2012-01-25T11:27:34Z</time>
      </trkpt>
      <trkpt lat="43.44724" lon="5.78568">
        <ele>863.4013672</ele>
        <time>2012-01-25T11:27:40Z</time>
      </trkpt>
      <trkpt lat="43.44728" lon="5.78559">
        <ele>863.4013672</ele>
        <time>2012-01-25T11:27:46Z</time>
      </trkpt>
      <trkpt lat="43.44734" lon="5.78552">
        <ele>863.4013672</ele>
        <time>2012-01-25T11:27:52Z</time>
      </trkpt>
      <trkpt lat="43.44737" lon="5.78546">
        <ele>863.8818359</ele>
        <time>2012-01-25T11:27:56Z</time>
      </trkpt>
      <trkpt lat="43.44745" lon="5.78534">
        <ele>864.3625488</ele>
        <time>2012-01-25T11:28:05Z</time>
      </trkpt>
      <trkpt lat="43.44751" lon="5.78522">
        <ele>865.3239746</ele>
        <time>2012-01-25T11:28:13Z</time>
      </trkpt>
      <trkpt lat="43.44754" lon="5.78516">
        <ele>866.2851563</ele>
        <time>2012-01-25T11:28:17Z</time>
      </trkpt>
      <trkpt lat="43.44763" lon="5.7851">
        <ele>866.2851563</ele>
        <time>2012-01-25T11:28:24Z</time>
      </trkpt>
      <trkpt lat="43.4477" lon="5.78505">
        <ele>865.8046875</ele>
        <time>2012-01-25T11:28:31Z</time>
      </trkpt>
      <trkpt lat="43.44776" lon="5.78507">
        <ele>866.2851563</ele>
        <time>2012-01-25T11:28:38Z</time>
      </trkpt>
      <trkpt lat="43.44777" lon="5.78507">
        <ele>866.2851563</ele>
        <time>2012-01-25T11:28:45Z</time>
      </trkpt>
      <trkpt lat="43.44775" lon="5.78506">
        <ele>866.2851563</ele>
        <time>2012-01-25T11:29:08Z</time>
      </trkpt>
      <trkpt lat="43.44774" lon="5.78503">
        <ele>866.7658691</ele>
        <time>2012-01-25T11:29:13Z</time>
      </trkpt>
      <trkpt lat="43.44774" lon="5.78503">
        <ele>866.2851563</ele>
        <time>2012-01-25T11:29:28Z</time>
      </trkpt>
    </trkseg>
    </trkseg>
      <trkpt lat="43.44774" lon="5.78505">
        <ele>863.8818359</ele>
        <time>2012-01-25T12:07:07Z</time>
      </trkpt>
      <trkpt lat="43.44774" lon="5.78505">
        <ele>862.9206543</ele>
        <time>2012-01-25T12:07:08Z</time>
      </trkpt>
      <trkpt lat="43.44774" lon="5.78505">
        <ele>864.3625488</ele>
        <time>2012-01-25T12:07:22Z</time>
      </trkpt>
      <trkpt lat="43.44773" lon="5.78503">
        <ele>865.8046875</ele>
        <time>2012-01-25T12:07:28Z</time>
      </trkpt>
      <trkpt lat="43.44773" lon="5.785">
        <ele>865.8046875</ele>
        <time>2012-01-25T12:07:35Z</time>
      </trkpt>
      <trkpt lat="43.44774" lon="5.785">
        <ele>866.2851563</ele>
        <time>2012-01-25T12:07:37Z</time>
      </trkpt>
      <trkpt lat="43.44774" lon="5.785">
        <ele>866.7658691</ele>
        <time>2012-01-25T12:07:43Z</time>
      </trkpt>
      <trkpt lat="43.44776" lon="5.78491">
        <ele>866.7658691</ele>
        <time>2012-01-25T12:07:49Z</time>
      </trkpt>
      <trkpt lat="43.44776" lon="5.78486">
        <ele>866.2851563</ele>
        <time>2012-01-25T12:07:52Z</time>
      </trkpt>
      <trkpt lat="43.44775" lon="5.78479">
        <ele>866.7658691</ele>
        <time>2012-01-25T12:07:57Z</time>
      </trkpt>
      <trkpt lat="43.44779" lon="5.78463">
        <ele>865.8046875</ele>
        <time>2012-01-25T12:08:06Z</time>
      </trkpt>
      <trkpt lat="43.44784" lon="5.78455">
        <ele>864.3625488</ele>
        <time>2012-01-25T12:08:12Z</time>
      </trkpt>
      <trkpt lat="43.44788" lon="5.78447">
        <ele>863.4013672</ele>
        <time>2012-01-25T12:08:18Z</time>
      </trkpt>
      <trkpt lat="43.44792" lon="5.78438">
        <ele>862.9206543</ele>
        <time>2012-01-25T12:08:24Z</time>
      </trkpt>
      <trkpt lat="43.44794" lon="5.78425">
        <ele>862.4399414</ele>
        <time>2012-01-25T12:08:31Z</time>
      </trkpt>
      <trkpt lat="43.44798" lon="5.78417">
        <ele>862.4399414</ele>
        <time>2012-01-25T12:08:37Z</time>
      </trkpt>
      <trkpt lat="43.44801" lon="5.78411">
        <ele>861.9594727</ele>
        <time>2012-01-25T12:08:42Z</time>
      </trkpt>
      <trkpt lat="43.448" lon="5.78402">
        <ele>861.4787598</ele>
        <time>2012-01-25T12:08:48Z</time>
      </trkpt>
      <trkpt lat="43.44802" lon="5.78392">
        <ele>860.9980469</ele>
        <time>2012-01-25T12:08:54Z</time>
      </trkpt>
      <trkpt lat="43.44806" lon="5.78382">
        <ele>859.5559082</ele>
        <time>2012-01-25T12:09:01Z</time>
      </trkpt>
      <trkpt lat="43.44811" lon="5.78373">
        <ele>859.5559082</ele>
        <time>2012-01-25T12:09:08Z</time>
      </trkpt>
      <trkpt lat="43.44813" lon="5.7837">
        <ele>859.0751953</ele>
        <time>2012-01-25T12:09:10Z</time>
      </trkpt>
      <trkpt lat="43.44813" lon="5.78367">
        <ele>859.0751953</ele>
        <time>2012-01-25T12:09:12Z</time>
      </trkpt>
      <trkpt lat="43.44816" lon="5.78357">
        <ele>859.5559082</ele>
        <time>2012-01-25T12:09:19Z</time>
      </trkpt>
      <trkpt lat="43.44819" lon="5.78348">
        <ele>859.5559082</ele>
        <time>2012-01-25T12:09:25Z</time>
      </trkpt>
      <trkpt lat="43.4482" lon="5.78347">
        <ele>859.5559082</ele>
        <time>2012-01-25T12:09:26Z</time>
      </trkpt>
      <trkpt lat="43.44824" lon="5.78339">
        <ele>861.4787598</ele>
        <time>2012-01-25T12:09:33Z</time>
      </trkpt>
      <trkpt lat="43.44824" lon="5.78337">
        <ele>862.4399414</ele>
        <time>2012-01-25T12:09:38Z</time>
      </trkpt>
      <trkpt lat="43.44823" lon="5.78336">
        <ele>863.4013672</ele>
        <time>2012-01-25T12:09:44Z</time>
      </trkpt>
      <trkpt lat="43.44822" lon="5.78335">
        <ele>864.8432617</ele>
        <time>2012-01-25T12:09:51Z</time>
      </trkpt>
      <trkpt lat="43.44823" lon="5.78334">
        <ele>864.8432617</ele>
        <time>2012-01-25T12:09:57Z</time>
      </trkpt>
      <trkpt lat="43.44828" lon="5.78328">
        <ele>864.8432617</ele>
        <time>2012-01-25T12:10:03Z</time>
      </trkpt>
      <trkpt lat="43.44831" lon="5.78326">
        <ele>864.3625488</ele>
        <time>2012-01-25T12:10:06Z</time>
      </trkpt>
      <trkpt lat="43.44839" lon="5.78316">
        <ele>863.8818359</ele>
        <time>2012-01-25T12:10:14Z</time>
      </trkpt>
      <trkpt lat="43.44842" lon="5.78314">
        <ele>863.4013672</ele>
        <time>2012-01-25T12:10:17Z</time>
      </trkpt>
      <trkpt lat="43.44845" lon="5.78306">
        <ele>862.9206543</ele>
        <time>2012-01-25T12:10:23Z</time>
      </trkpt>
      <trkpt lat="43.44855" lon="5.78294">
        <ele>863.4013672</ele>
        <time>2012-01-25T12:10:33Z</time>
      </trkpt>
      <trkpt lat="43.44855" lon="5.78293">
        <ele>863.4013672</ele>
        <time>2012-01-25T12:10:34Z</time>
      </trkpt>
      <trkpt lat="43.44855" lon="5.7829">
        <ele>863.4013672</ele>
        <time>2012-01-25T12:10:41Z</time>
      </trkpt>
      <trkpt lat="43.44855" lon="5.78287">
        <ele>862.9206543</ele>
        <time>2012-01-25T12:10:43Z</time>
      </trkpt>
      <trkpt lat="43.4486" lon="5.7827">
        <ele>860.0366211</ele>
        <time>2012-01-25T12:10:53Z</time>
      </trkpt>
      <trkpt lat="43.44862" lon="5.78263">
        <ele>858.5944824</ele>
        <time>2012-01-25T12:10:57Z</time>
      </trkpt>
      <trkpt lat="43.44863" lon="5.78256">
        <ele>857.1525879</ele>
        <time>2012-01-25T12:11:01Z</time>
      </trkpt>
      <trkpt lat="43.44867" lon="5.78241">
        <ele>855.7106934</ele>
        <time>2012-01-25T12:11:09Z</time>
      </trkpt>
      <trkpt lat="43.44873" lon="5.78225">
        <ele>855.7106934</ele>
        <time>2012-01-25T12:11:18Z</time>
      </trkpt>
      <trkpt lat="43.4488" lon="5.78212">
        <ele>857.1525879</ele>
        <time>2012-01-25T12:11:26Z</time>
      </trkpt>
      <trkpt lat="43.44883" lon="5.78198">
        <ele>858.1140137</ele>
        <time>2012-01-25T12:11:34Z</time>
      </trkpt>
      <trkpt lat="43.44883" lon="5.78183">
        <ele>857.1525879</ele>
        <time>2012-01-25T12:11:41Z</time>
      </trkpt>
      <trkpt lat="43.44891" lon="5.78167">
        <ele>858.1140137</ele>
        <time>2012-01-25T12:11:51Z</time>
      </trkpt>
      <trkpt lat="43.44897" lon="5.78156">
        <ele>857.1525879</ele>
        <time>2012-01-25T12:11:58Z</time>
      </trkpt>
      <trkpt lat="43.44906" lon="5.78143">
        <ele>857.6333008</ele>
        <time>2012-01-25T12:12:07Z</time>
      </trkpt>
      <trkpt lat="43.44913" lon="5.78128">
        <ele>858.1140137</ele>
        <time>2012-01-25T12:12:16Z</time>
      </trkpt>
      <trkpt lat="43.4492" lon="5.78111">
        <ele>860.9980469</ele>
        <time>2012-01-25T12:12:26Z</time>
      </trkpt>
      <trkpt lat="43.44927" lon="5.78096">
        <ele>861.9594727</ele>
        <time>2012-01-25T12:12:35Z</time>
      </trkpt>
      <trkpt lat="43.4493" lon="5.78082">
        <ele>862.9206543</ele>
        <time>2012-01-25T12:12:43Z</time>
      </trkpt>
      <trkpt lat="43.44931" lon="5.78066">
        <ele>863.8818359</ele>
        <time>2012-01-25T12:12:51Z</time>
      </trkpt>
      <trkpt lat="43.44935" lon="5.78046">
        <ele>864.3625488</ele>
        <time>2012-01-25T12:13:01Z</time>
      </trkpt>
      <trkpt lat="43.44942" lon="5.78032">
        <ele>864.8432617</ele>
        <time>2012-01-25T12:13:09Z</time>
      </trkpt>
      <trkpt lat="43.4495" lon="5.78014">
        <ele>863.8818359</ele>
        <time>2012-01-25T12:13:19Z</time>
      </trkpt>
      <trkpt lat="43.44957" lon="5.77998">
        <ele>863.4013672</ele>
        <time>2012-01-25T12:13:28Z</time>
      </trkpt>
      <trkpt lat="43.44964" lon="5.77987">
        <ele>863.8818359</ele>
        <time>2012-01-25T12:13:35Z</time>
      </trkpt>
      <trkpt lat="43.44965" lon="5.77982">
        <ele>864.8432617</ele>
        <time>2012-01-25T12:13:41Z</time>
      </trkpt>
      <trkpt lat="43.44966" lon="5.7798">
        <ele>864.8432617</ele>
        <time>2012-01-25T12:13:43Z</time>
      </trkpt>
      <trkpt lat="43.44974" lon="5.77968">
        <ele>868.6884766</ele>
        <time>2012-01-25T12:13:53Z</time>
      </trkpt>
      <trkpt lat="43.44976" lon="5.77969">
        <ele>870.611084</ele>
        <time>2012-01-25T12:13:57Z</time>
      </trkpt>
      <trkpt lat="43.44981" lon="5.77962">
        <ele>871.5722656</ele>
        <time>2012-01-25T12:14:04Z</time>
      </trkpt>
      <trkpt lat="43.44982" lon="5.77961">
        <ele>871.5722656</ele>
        <time>2012-01-25T12:14:05Z</time>
      </trkpt>
      <trkpt lat="43.44991" lon="5.77951">
        <ele>872.0529785</ele>
        <time>2012-01-25T12:14:13Z</time>
      </trkpt>
      <trkpt lat="43.44995" lon="5.77937">
        <ele>871.5722656</ele>
        <time>2012-01-25T12:14:21Z</time>
      </trkpt>
      <trkpt lat="43.45001" lon="5.77922">
        <ele>870.1303711</ele>
        <time>2012-01-25T12:14:29Z</time>
      </trkpt>
      <trkpt lat="43.45009" lon="5.77913">
        <ele>870.611084</ele>
        <time>2012-01-25T12:14:36Z</time>
      </trkpt>
      <trkpt lat="43.45018" lon="5.779">
        <ele>870.611084</ele>
        <time>2012-01-25T12:14:45Z</time>
      </trkpt>
      <trkpt lat="43.45019" lon="5.77893">
        <ele>870.1303711</ele>
        <time>2012-01-25T12:14:49Z</time>
      </trkpt>
      <trkpt lat="43.45019" lon="5.77878">
        <ele>868.6884766</ele>
        <time>2012-01-25T12:14:57Z</time>
      </trkpt>
      <trkpt lat="43.4502" lon="5.77864">
        <ele>868.6884766</ele>
        <time>2012-01-25T12:15:04Z</time>
      </trkpt>
      <trkpt lat="43.45027" lon="5.77851">
        <ele>869.6499023</ele>
        <time>2012-01-25T12:15:12Z</time>
      </trkpt>
      <trkpt lat="43.45038" lon="5.77837">
        <ele>870.611084</ele>
        <time>2012-01-25T12:15:22Z</time>
      </trkpt>
      <trkpt lat="43.45048" lon="5.77826">
        <ele>871.0917969</ele>
        <time>2012-01-25T12:15:30Z</time>
      </trkpt>
      <trkpt lat="43.45051" lon="5.77816">
        <ele>869.1691895</ele>
        <time>2012-01-25T12:15:36Z</time>
      </trkpt>
      <trkpt lat="43.45049" lon="5.7781">
        <ele>873.0144043</ele>
        <time>2012-01-25T12:15:39Z</time>
      </trkpt>
      <trkpt lat="43.45051" lon="5.77805">
        <ele>873.0144043</ele>
        <time>2012-01-25T12:15:42Z</time>
      </trkpt>
      <trkpt lat="43.45053" lon="5.77785">
        <ele>869.6499023</ele>
        <time>2012-01-25T12:15:52Z</time>
      </trkpt>
      <trkpt lat="43.45057" lon="5.77771">
        <ele>868.6884766</ele>
        <time>2012-01-25T12:15:59Z</time>
      </trkpt>
      <trkpt lat="43.45059" lon="5.77761">
        <ele>868.2077637</ele>
        <time>2012-01-25T12:16:04Z</time>
      </trkpt>
      <trkpt lat="43.45064" lon="5.77753">
        <ele>867.7270508</ele>
        <time>2012-01-25T12:16:09Z</time>
      </trkpt>
      <trkpt lat="43.45066" lon="5.77743">
        <ele>867.7270508</ele>
        <time>2012-01-25T12:16:14Z</time>
      </trkpt>
      <trkpt lat="43.4507" lon="5.77719">
        <ele>866.7658691</ele>
        <time>2012-01-25T12:16:23Z</time>
      </trkpt>
      <trkpt lat="43.45072" lon="5.77702">
        <ele>866.2851563</ele>
        <time>2012-01-25T12:16:30Z</time>
      </trkpt>
      <trkpt lat="43.45075" lon="5.77682">
        <ele>865.3239746</ele>
        <time>2012-01-25T12:16:37Z</time>
      </trkpt>
      <trkpt lat="43.45078" lon="5.77666">
        <ele>865.8046875</ele>
        <time>2012-01-25T12:16:44Z</time>
      </trkpt>
      <trkpt lat="43.45083" lon="5.77645">
        <ele>866.7658691</ele>
        <time>2012-01-25T12:16:53Z</time>
      </trkpt>
      <trkpt lat="43.45088" lon="5.77628">
        <ele>867.246582</ele>
        <time>2012-01-25T12:17:01Z</time>
      </trkpt>
      <trkpt lat="43.45092" lon="5.77612">
        <ele>868.2077637</ele>
        <time>2012-01-25T12:17:09Z</time>
      </trkpt>
      <trkpt lat="43.45093" lon="5.77609">
        <ele>869.6499023</ele>
        <time>2012-01-25T12:17:15Z</time>
      </trkpt>
      <trkpt lat="43.45093" lon="5.77609">
        <ele>869.6499023</ele>
        <time>2012-01-25T12:17:21Z</time>
      </trkpt>
      <trkpt lat="43.45092" lon="5.77608">
        <ele>870.611084</ele>
        <time>2012-01-25T12:17:32Z</time>
      </trkpt>
      <trkpt lat="43.4509" lon="5.77605">
        <ele>874.4562988</ele>
        <time>2012-01-25T12:17:43Z</time>
      </trkpt>
      <trkpt lat="43.45089" lon="5.77604">
        <ele>875.8981934</ele>
        <time>2012-01-25T12:17:47Z</time>
      </trkpt>
      <trkpt lat="43.45092" lon="5.77595">
        <ele>875.4174805</ele>
        <time>2012-01-25T12:17:52Z</time>
      </trkpt>
      <trkpt lat="43.45095" lon="5.7758">
        <ele>873.9755859</ele>
        <time>2012-01-25T12:18:00Z</time>
      </trkpt>
      <trkpt lat="43.45095" lon="5.77576">
        <ele>874.4562988</ele>
        <time>2012-01-25T12:18:05Z</time>
      </trkpt>
      <trkpt lat="43.45094" lon="5.77576">
        <ele>874.9370117</ele>
        <time>2012-01-25T12:18:09Z</time>
      </trkpt>
      <trkpt lat="43.45093" lon="5.77572">
        <ele>876.3791504</ele>
        <time>2012-01-25T12:18:33Z</time>
      </trkpt>
      <trkpt lat="43.45093" lon="5.77572">
        <ele>875.4174805</ele>
        <time>2012-01-25T12:18:40Z</time>
      </trkpt>
      <trkpt lat="43.45093" lon="5.77572">
        <ele>875.4174805</ele>
        <time>2012-01-25T12:18:42Z</time>
      </trkpt>
      <trkpt lat="43.45093" lon="5.77572">
        <ele>874.4562988</ele>
        <time>2012-01-25T12:18:53Z</time>
      </trkpt>
      <trkpt lat="43.45093" lon="5.7757">
        <ele>874.4562988</ele>
        <time>2012-01-25T12:19:08Z</time>
      </trkpt>
      <trkpt lat="43.45095" lon="5.77563">
        <ele>873.4951172</ele>
        <time>2012-01-25T12:19:12Z</time>
      </trkpt>
      <trkpt lat="43.45096" lon="5.77556">
        <ele>873.0144043</ele>
        <time>2012-01-25T12:19:16Z</time>
      </trkpt>
      <trkpt lat="43.45099" lon="5.77541">
        <ele>873.4951172</ele>
        <time>2012-01-25T12:19:24Z</time>
      </trkpt>
      <trkpt lat="43.45099" lon="5.77537">
        <ele>873.0144043</ele>
        <time>2012-01-25T12:19:26Z</time>
      </trkpt>
      <trkpt lat="43.45094" lon="5.77516">
        <ele>873.4951172</ele>
        <time>2012-01-25T12:19:34Z</time>
      </trkpt>
      <trkpt lat="43.45097" lon="5.77496">
        <ele>873.4951172</ele>
        <time>2012-01-25T12:19:41Z</time>
      </trkpt>
      <trkpt lat="43.451" lon="5.7747">
        <ele>873.9755859</ele>
        <time>2012-01-25T12:19:49Z</time>
      </trkpt>
      <trkpt lat="43.45103" lon="5.77449">
        <ele>874.4562988</ele>
        <time>2012-01-25T12:19:56Z</time>
      </trkpt>
      <trkpt lat="43.45105" lon="5.77431">
        <ele>875.4174805</ele>
        <time>2012-01-25T12:20:03Z</time>
      </trkpt>
      <trkpt lat="43.45105" lon="5.77429">
        <ele>875.4174805</ele>
        <time>2012-01-25T12:20:04Z</time>
      </trkpt>
      <trkpt lat="43.45106" lon="5.77427">
        <ele>875.8981934</ele>
        <time>2012-01-25T12:20:05Z</time>
      </trkpt>
      <trkpt lat="43.45106" lon="5.7742">
        <ele>876.3791504</ele>
        <time>2012-01-25T12:20:08Z</time>
      </trkpt>
      <trkpt lat="43.45106" lon="5.77414">
        <ele>876.3791504</ele>
        <time>2012-01-25T12:20:10Z</time>
      </trkpt>
      <trkpt lat="43.45106" lon="5.77412">
        <ele>876.3791504</ele>
        <time>2012-01-25T12:20:11Z</time>
      </trkpt>
      <trkpt lat="43.45108" lon="5.77401">
        <ele>876.3791504</ele>
        <time>2012-01-25T12:20:15Z</time>
      </trkpt>
      <trkpt lat="43.45108" lon="5.77383">
        <ele>876.3791504</ele>
        <time>2012-01-25T12:20:22Z</time>
      </trkpt>
      <trkpt lat="43.45108" lon="5.77379">
        <ele>875.8981934</ele>
        <time>2012-01-25T12:20:24Z</time>
      </trkpt>
      <trkpt lat="43.45113" lon="5.77371">
        <ele>876.3791504</ele>
        <time>2012-01-25T12:20:28Z</time>
      </trkpt>
      <trkpt lat="43.45117" lon="5.77365">
        <ele>876.8598633</ele>
        <time>2012-01-25T12:20:32Z</time>
      </trkpt>
      <trkpt lat="43.45123" lon="5.77364">
        <ele>876.8598633</ele>
        <time>2012-01-25T12:20:38Z</time>
      </trkpt>
      <trkpt lat="43.45124" lon="5.77365">
        <ele>876.8598633</ele>
        <time>2012-01-25T12:20:40Z</time>
      </trkpt>
      <trkpt lat="43.45126" lon="5.77366">
        <ele>875.8981934</ele>
        <time>2012-01-25T12:20:46Z</time>
      </trkpt>
      <trkpt lat="43.45126" lon="5.77368">
        <ele>874.9370117</ele>
        <time>2012-01-25T12:20:52Z</time>
      </trkpt>
      <trkpt lat="43.45125" lon="5.77368">
        <ele>874.4562988</ele>
        <time>2012-01-25T12:20:57Z</time>
      </trkpt>
      <trkpt lat="43.45126" lon="5.77364">
        <ele>875.4174805</ele>
        <time>2012-01-25T12:21:02Z</time>
      </trkpt>
      <trkpt lat="43.45126" lon="5.77363">
        <ele>876.3791504</ele>
        <time>2012-01-25T12:21:09Z</time>
      </trkpt>
      <trkpt lat="43.45124" lon="5.77361">
        <ele>876.8598633</ele>
        <time>2012-01-25T12:21:11Z</time>
      </trkpt>
      <trkpt lat="43.45125" lon="5.7735">
        <ele>878.7824707</ele>
        <time>2012-01-25T12:21:18Z</time>
      </trkpt>
      <trkpt lat="43.45126" lon="5.77346">
        <ele>879.2629395</ele>
        <time>2012-01-25T12:21:20Z</time>
      </trkpt>
      <trkpt lat="43.45128" lon="5.77339">
        <ele>880.2243652</ele>
        <time>2012-01-25T12:21:24Z</time>
      </trkpt>
      <trkpt lat="43.45125" lon="5.77323">
        <ele>881.6662598</ele>
        <time>2012-01-25T12:21:33Z</time>
      </trkpt>
      <trkpt lat="43.45126" lon="5.77314">
        <ele>882.1469727</ele>
        <time>2012-01-25T12:21:38Z</time>
      </trkpt>
      <trkpt lat="43.45121" lon="5.77314">
        <ele>881.185791</ele>
        <time>2012-01-25T12:21:44Z</time>
      </trkpt>
      <trkpt lat="43.4512" lon="5.77314">
        <ele>880.7050781</ele>
        <time>2012-01-25T12:21:45Z</time>
      </trkpt>
      <trkpt lat="43.4512" lon="5.77313">
        <ele>880.2243652</ele>
        <time>2012-01-25T12:21:50Z</time>
      </trkpt>
      <trkpt lat="43.45124" lon="5.77302">
        <ele>881.185791</ele>
        <time>2012-01-25T12:21:57Z</time>
      </trkpt>
      <trkpt lat="43.45126" lon="5.7729">
        <ele>882.1469727</ele>
        <time>2012-01-25T12:22:04Z</time>
      </trkpt>
      <trkpt lat="43.45128" lon="5.77273">
        <ele>882.1469727</ele>
        <time>2012-01-25T12:22:13Z</time>
      </trkpt>
      <trkpt lat="43.45129" lon="5.77255">
        <ele>881.6662598</ele>
        <time>2012-01-25T12:22:22Z</time>
      </trkpt>
      <trkpt lat="43.45132" lon="5.77249">
        <ele>882.1469727</ele>
        <time>2012-01-25T12:22:26Z</time>
      </trkpt>
      <trkpt lat="43.45132" lon="5.77229">
        <ele>881.6662598</ele>
        <time>2012-01-25T12:22:36Z</time>
      </trkpt>
      <trkpt lat="43.45131" lon="5.77218">
        <ele>882.1469727</ele>
        <time>2012-01-25T12:22:42Z</time>
      </trkpt>
      <trkpt lat="43.45131" lon="5.77205">
        <ele>882.1469727</ele>
        <time>2012-01-25T12:22:50Z</time>
      </trkpt>
      <trkpt lat="43.4513" lon="5.77198">
        <ele>882.6276855</ele>
        <time>2012-01-25T12:22:56Z</time>
      </trkpt>
      <trkpt lat="43.4513" lon="5.77197">
        <ele>883.1081543</ele>
        <time>2012-01-25T12:23:03Z</time>
      </trkpt>
      <trkpt lat="43.45132" lon="5.7719">
        <ele>883.1081543</ele>
        <time>2012-01-25T12:23:11Z</time>
      </trkpt>
      <trkpt lat="43.45131" lon="5.77186">
        <ele>883.5888672</ele>
        <time>2012-01-25T12:23:16Z</time>
      </trkpt>
      <trkpt lat="43.4513" lon="5.77184">
        <ele>884.550293</ele>
        <time>2012-01-25T12:23:24Z</time>
      </trkpt>
      <trkpt lat="43.4513" lon="5.77177">
        <ele>886.9533691</ele>
        <time>2012-01-25T12:24:03Z</time>
      </trkpt>
      <trkpt lat="43.45131" lon="5.77172">
        <ele>886.9533691</ele>
        <time>2012-01-25T12:24:06Z</time>
      </trkpt>
      <trkpt lat="43.45127" lon="5.77165">
        <ele>885.0310059</ele>
        <time>2012-01-25T12:24:11Z</time>
      </trkpt>
      <trkpt lat="43.45126" lon="5.77149">
        <ele>884.0695801</ele>
        <time>2012-01-25T12:24:18Z</time>
      </trkpt>
      <trkpt lat="43.45126" lon="5.77144">
        <ele>883.5888672</ele>
        <time>2012-01-25T12:24:20Z</time>
      </trkpt>
      <trkpt lat="43.45126" lon="5.77124">
        <ele>882.6276855</ele>
        <time>2012-01-25T12:24:28Z</time>
      </trkpt>
      <trkpt lat="43.45125" lon="5.77111">
        <ele>881.6662598</ele>
        <time>2012-01-25T12:24:34Z</time>
      </trkpt>
      <trkpt lat="43.45123" lon="5.77095">
        <ele>879.7436523</ele>
        <time>2012-01-25T12:24:41Z</time>
      </trkpt>
      <trkpt lat="43.4512" lon="5.77077">
        <ele>878.3017578</ele>
        <time>2012-01-25T12:24:48Z</time>
      </trkpt>
      <trkpt lat="43.4512" lon="5.77059">
        <ele>877.3405762</ele>
        <time>2012-01-25T12:24:56Z</time>
      </trkpt>
      <trkpt lat="43.45119" lon="5.77047">
        <ele>877.3405762</ele>
        <time>2012-01-25T12:25:02Z</time>
      </trkpt>
      <trkpt lat="43.45116" lon="5.7703">
        <ele>877.8210449</ele>
        <time>2012-01-25T12:25:10Z</time>
      </trkpt>
      <trkpt lat="43.45119" lon="5.77017">
        <ele>877.3405762</ele>
        <time>2012-01-25T12:25:16Z</time>
      </trkpt>
      <trkpt lat="43.45118" lon="5.77009">
        <ele>877.3405762</ele>
        <time>2012-01-25T12:25:20Z</time>
      </trkpt>
      <trkpt lat="43.45119" lon="5.76998">
        <ele>876.8598633</ele>
        <time>2012-01-25T12:25:25Z</time>
      </trkpt>
      <trkpt lat="43.45118" lon="5.76977">
        <ele>877.8210449</ele>
        <time>2012-01-25T12:25:35Z</time>
      </trkpt>
      <trkpt lat="43.45118" lon="5.76961">
        <ele>877.3405762</ele>
        <time>2012-01-25T12:25:43Z</time>
      </trkpt>
      <trkpt lat="43.45118" lon="5.76944">
        <ele>876.8598633</ele>
        <time>2012-01-25T12:25:52Z</time>
      </trkpt>
      <trkpt lat="43.45118" lon="5.76943">
        <ele>876.8598633</ele>
        <time>2012-01-25T12:25:53Z</time>
      </trkpt>
      <trkpt lat="43.45118" lon="5.76941">
        <ele>876.8598633</ele>
        <time>2012-01-25T12:25:55Z</time>
      </trkpt>
      <trkpt lat="43.45115" lon="5.76936">
        <ele>875.4174805</ele>
        <time>2012-01-25T12:26:00Z</time>
      </trkpt>
      <trkpt lat="43.45115" lon="5.76932">
        <ele>873.9755859</ele>
        <time>2012-01-25T12:26:04Z</time>
      </trkpt>
      <trkpt lat="43.45116" lon="5.76932">
        <ele>873.9755859</ele>
        <time>2012-01-25T12:26:11Z</time>
      </trkpt>
      <trkpt lat="43.45115" lon="5.7693">
        <ele>874.9370117</ele>
        <time>2012-01-25T12:26:27Z</time>
      </trkpt>
      <trkpt lat="43.45113" lon="5.7693">
        <ele>874.9370117</ele>
        <time>2012-01-25T12:26:55Z</time>
      </trkpt>
      <trkpt lat="43.4511" lon="5.76923">
        <ele>871.5722656</ele>
        <time>2012-01-25T12:27:01Z</time>
      </trkpt>
      <trkpt lat="43.45111" lon="5.76921">
        <ele>872.5336914</ele>
        <time>2012-01-25T12:27:08Z</time>
      </trkpt>
      <trkpt lat="43.45111" lon="5.76921">
        <ele>873.0144043</ele>
        <time>2012-01-25T12:27:17Z</time>
      </trkpt>
      <trkpt lat="43.45108" lon="5.7692">
        <ele>874.4562988</ele>
        <time>2012-01-25T12:27:46Z</time>
      </trkpt>
      <trkpt lat="43.45102" lon="5.76915">
        <ele>873.0144043</ele>
        <time>2012-01-25T12:27:51Z</time>
      </trkpt>
      <trkpt lat="43.45091" lon="5.76903">
        <ele>872.5336914</ele>
        <time>2012-01-25T12:28:01Z</time>
      </trkpt>
      <trkpt lat="43.45085" lon="5.76886">
        <ele>873.4951172</ele>
        <time>2012-01-25T12:28:10Z</time>
      </trkpt>
      <trkpt lat="43.45085" lon="5.76872">
        <ele>873.9755859</ele>
        <time>2012-01-25T12:28:17Z</time>
      </trkpt>
      <trkpt lat="43.45085" lon="5.76857">
        <ele>873.9755859</ele>
        <time>2012-01-25T12:28:24Z</time>
      </trkpt>
      <trkpt lat="43.45086" lon="5.76837">
        <ele>872.5336914</ele>
        <time>2012-01-25T12:28:33Z</time>
      </trkpt>
      <trkpt lat="43.45085" lon="5.76816">
        <ele>870.1303711</ele>
        <time>2012-01-25T12:28:42Z</time>
      </trkpt>
      <trkpt lat="43.45085" lon="5.768">
        <ele>868.6884766</ele>
        <time>2012-01-25T12:28:48Z</time>
      </trkpt>
      <trkpt lat="43.45084" lon="5.76781">
        <ele>867.7270508</ele>
        <time>2012-01-25T12:28:55Z</time>
      </trkpt>
      <trkpt lat="43.45085" lon="5.76766">
        <ele>865.8046875</ele>
        <time>2012-01-25T12:29:01Z</time>
      </trkpt>
      <trkpt lat="43.45085" lon="5.76751">
        <ele>864.3625488</ele>
        <time>2012-01-25T12:29:07Z</time>
      </trkpt>
      <trkpt lat="43.45086" lon="5.76742">
        <ele>863.4013672</ele>
        <time>2012-01-25T12:29:11Z</time>
      </trkpt>
      <trkpt lat="43.45084" lon="5.76732">
        <ele>861.4787598</ele>
        <time>2012-01-25T12:29:16Z</time>
      </trkpt>
      <trkpt lat="43.45084" lon="5.76718">
        <ele>859.5559082</ele>
        <time>2012-01-25T12:29:22Z</time>
      </trkpt>
      <trkpt lat="43.45082" lon="5.76709">
        <ele>858.5944824</ele>
        <time>2012-01-25T12:29:26Z</time>
      </trkpt>
      <trkpt lat="43.45081" lon="5.76692">
        <ele>857.1525879</ele>
        <time>2012-01-25T12:29:33Z</time>
      </trkpt>
      <trkpt lat="43.4508" lon="5.76673">
        <ele>854.7492676</ele>
        <time>2012-01-25T12:29:41Z</time>
      </trkpt>
      <trkpt lat="43.45081" lon="5.76652">
        <ele>852.8266602</ele>
        <time>2012-01-25T12:29:50Z</time>
      </trkpt>
      <trkpt lat="43.4508" lon="5.76637">
        <ele>851.8654785</ele>
        <time>2012-01-25T12:29:56Z</time>
      </trkpt>
      <trkpt lat="43.4508" lon="5.7663">
        <ele>851.8654785</ele>
        <time>2012-01-25T12:29:59Z</time>
      </trkpt>
      <trkpt lat="43.45084" lon="5.76623">
        <ele>852.3459473</ele>
        <time>2012-01-25T12:30:04Z</time>
      </trkpt>
      <trkpt lat="43.45087" lon="5.76621">
        <ele>852.8266602</ele>
        <time>2012-01-25T12:30:10Z</time>
      </trkpt>
      <trkpt lat="43.45086" lon="5.76621">
        <ele>852.8266602</ele>
        <time>2012-01-25T12:30:12Z</time>
      </trkpt>
      <trkpt lat="43.45075" lon="5.76612">
        <ele>851.8654785</ele>
        <time>2012-01-25T12:30:20Z</time>
      </trkpt>
      <trkpt lat="43.4507" lon="5.76601">
        <ele>851.8654785</ele>
        <time>2012-01-25T12:30:25Z</time>
      </trkpt>
      <trkpt lat="43.45061" lon="5.76588">
        <ele>850.9040527</ele>
        <time>2012-01-25T12:30:33Z</time>
      </trkpt>
      <trkpt lat="43.45051" lon="5.76576">
        <ele>850.423584</ele>
        <time>2012-01-25T12:30:42Z</time>
      </trkpt>
      <trkpt lat="43.45041" lon="5.76569">
        <ele>849.4621582</ele>
        <time>2012-01-25T12:30:49Z</time>
      </trkpt>
      <trkpt lat="43.45036" lon="5.76564">
        <ele>849.4621582</ele>
        <time>2012-01-25T12:30:54Z</time>
      </trkpt>
      <trkpt lat="43.45029" lon="5.76555">
        <ele>850.423584</ele>
        <time>2012-01-25T12:31:02Z</time>
      </trkpt>
      <trkpt lat="43.45024" lon="5.76549">
        <ele>850.9040527</ele>
        <time>2012-01-25T12:31:07Z</time>
      </trkpt>
      <trkpt lat="43.45023" lon="5.76543">
        <ele>851.8654785</ele>
        <time>2012-01-25T12:31:12Z</time>
      </trkpt>
      <trkpt lat="43.45018" lon="5.76536">
        <ele>852.3459473</ele>
        <time>2012-01-25T12:31:17Z</time>
      </trkpt>
      <trkpt lat="43.45008" lon="5.76527">
        <ele>852.8266602</ele>
        <time>2012-01-25T12:31:25Z</time>
      </trkpt>
      <trkpt lat="43.45001" lon="5.76519">
        <ele>853.7880859</ele>
        <time>2012-01-25T12:31:31Z</time>
      </trkpt>
      <trkpt lat="43.44995" lon="5.76512">
        <ele>854.7492676</ele>
        <time>2012-01-25T12:31:37Z</time>
      </trkpt>
      <trkpt lat="43.44988" lon="5.765">
        <ele>855.2299805</ele>
        <time>2012-01-25T12:31:45Z</time>
      </trkpt>
      <trkpt lat="43.44978" lon="5.76492">
        <ele>854.7492676</ele>
        <time>2012-01-25T12:31:52Z</time>
      </trkpt>
      <trkpt lat="43.44969" lon="5.76482">
        <ele>854.2687988</ele>
        <time>2012-01-25T12:31:59Z</time>
      </trkpt>
      <trkpt lat="43.44959" lon="5.76476">
        <ele>851.8654785</ele>
        <time>2012-01-25T12:32:06Z</time>
      </trkpt>
      <trkpt lat="43.44951" lon="5.76466">
        <ele>849.9428711</ele>
        <time>2012-01-25T12:32:12Z</time>
      </trkpt>
      <trkpt lat="43.44949" lon="5.76455">
        <ele>849.4621582</ele>
        <time>2012-01-25T12:32:17Z</time>
      </trkpt>
      <trkpt lat="43.44947" lon="5.7644">
        <ele>848.9814453</ele>
        <time>2012-01-25T12:32:24Z</time>
      </trkpt>
      <trkpt lat="43.44947" lon="5.76439">
        <ele>848.9814453</ele>
        <time>2012-01-25T12:32:25Z</time>
      </trkpt>
      <trkpt lat="43.44942" lon="5.76425">
        <ele>848.0202637</ele>
        <time>2012-01-25T12:32:32Z</time>
      </trkpt>
      <trkpt lat="43.4494" lon="5.76422">
        <ele>848.5007324</ele>
        <time>2012-01-25T12:32:34Z</time>
      </trkpt>
      <trkpt lat="43.44938" lon="5.76404">
        <ele>848.5007324</ele>
        <time>2012-01-25T12:32:42Z</time>
      </trkpt>
      <trkpt lat="43.4494" lon="5.76397">
        <ele>848.0202637</ele>
        <time>2012-01-25T12:32:46Z</time>
      </trkpt>
      <trkpt lat="43.4494" lon="5.76385">
        <ele>848.5007324</ele>
        <time>2012-01-25T12:32:52Z</time>
      </trkpt>
      <trkpt lat="43.4494" lon="5.76383">
        <ele>848.5007324</ele>
        <time>2012-01-25T12:32:53Z</time>
      </trkpt>
      <trkpt lat="43.44938" lon="5.76366">
        <ele>847.5395508</ele>
        <time>2012-01-25T12:33:00Z</time>
      </trkpt>
      <trkpt lat="43.4494" lon="5.76357">
        <ele>848.5007324</ele>
        <time>2012-01-25T12:33:04Z</time>
      </trkpt>
      <trkpt lat="43.44939" lon="5.76351">
        <ele>848.5007324</ele>
        <time>2012-01-25T12:33:07Z</time>
      </trkpt>
      <trkpt lat="43.44938" lon="5.76332">
        <ele>847.0588379</ele>
        <time>2012-01-25T12:33:15Z</time>
      </trkpt>
      <trkpt lat="43.44933" lon="5.76318">
        <ele>845.6169434</ele>
        <time>2012-01-25T12:33:22Z</time>
      </trkpt>
      <trkpt lat="43.44932" lon="5.76316">
        <ele>845.1362305</ele>
        <time>2012-01-25T12:33:23Z</time>
      </trkpt>
      <trkpt lat="43.44925" lon="5.76302">
        <ele>842.7329102</ele>
        <time>2012-01-25T12:33:30Z</time>
      </trkpt>
      <trkpt lat="43.44917" lon="5.76289">
        <ele>840.3295898</ele>
        <time>2012-01-25T12:33:37Z</time>
      </trkpt>
      <trkpt lat="43.44908" lon="5.76278">
        <ele>837.9262695</ele>
        <time>2012-01-25T12:33:45Z</time>
      </trkpt>
      <trkpt lat="43.44904" lon="5.76272">
        <ele>837.4455566</ele>
        <time>2012-01-25T12:33:49Z</time>
      </trkpt>
      <trkpt lat="43.44895" lon="5.76269">
        <ele>835.5229492</ele>
        <time>2012-01-25T12:33:54Z</time>
      </trkpt>
      <trkpt lat="43.44877" lon="5.76261">
        <ele>834.0810547</ele>
        <time>2012-01-25T12:34:06Z</time>
      </trkpt>
      <trkpt lat="43.44866" lon="5.76251">
        <ele>834.0810547</ele>
        <time>2012-01-25T12:34:15Z</time>
      </trkpt>
      <trkpt lat="43.44859" lon="5.76246">
        <ele>835.0424805</ele>
        <time>2012-01-25T12:34:21Z</time>
      </trkpt>
      <trkpt lat="43.44848" lon="5.76245">
        <ele>835.5229492</ele>
        <time>2012-01-25T12:34:29Z</time>
      </trkpt>
      <trkpt lat="43.4484" lon="5.7624">
        <ele>836.484375</ele>
        <time>2012-01-25T12:34:36Z</time>
      </trkpt>
      <trkpt lat="43.44834" lon="5.76236">
        <ele>837.4455566</ele>
        <time>2012-01-25T12:34:42Z</time>
      </trkpt>
      <trkpt lat="43.44826" lon="5.7623">
        <ele>838.8876953</ele>
        <time>2012-01-25T12:34:49Z</time>
      </trkpt>
      <trkpt lat="43.44819" lon="5.76229">
        <ele>839.3681641</ele>
        <time>2012-01-25T12:34:55Z</time>
      </trkpt>
      <trkpt lat="43.44811" lon="5.76223">
        <ele>839.848877</ele>
        <time>2012-01-25T12:35:02Z</time>
      </trkpt>
      <trkpt lat="43.44803" lon="5.76214">
        <ele>840.3295898</ele>
        <time>2012-01-25T12:35:09Z</time>
      </trkpt>
      <trkpt lat="43.44795" lon="5.76208">
        <ele>840.8100586</ele>
        <time>2012-01-25T12:35:15Z</time>
      </trkpt>
      <trkpt lat="43.44786" lon="5.76199">
        <ele>841.2907715</ele>
        <time>2012-01-25T12:35:23Z</time>
      </trkpt>
      <trkpt lat="43.44773" lon="5.76184">
        <ele>841.7714844</ele>
        <time>2012-01-25T12:35:35Z</time>
      </trkpt>
      <trkpt lat="43.44766" lon="5.76176">
        <ele>842.7329102</ele>
        <time>2012-01-25T12:35:42Z</time>
      </trkpt>
      <trkpt lat="43.44759" lon="5.76167">
        <ele>843.6940918</ele>
        <time>2012-01-25T12:35:49Z</time>
      </trkpt>
      <trkpt lat="43.44754" lon="5.76165">
        <ele>843.6940918</ele>
        <time>2012-01-25T12:35:53Z</time>
      </trkpt>
      <trkpt lat="43.4475" lon="5.76159">
        <ele>844.1750488</ele>
        <time>2012-01-25T12:35:57Z</time>
      </trkpt>
      <trkpt lat="43.44741" lon="5.76148">
        <ele>846.5783691</ele>
        <time>2012-01-25T12:36:07Z</time>
      </trkpt>
      <trkpt lat="43.44735" lon="5.76141">
        <ele>848.9814453</ele>
        <time>2012-01-25T12:36:14Z</time>
      </trkpt>
      <trkpt lat="43.44725" lon="5.76136">
        <ele>852.3459473</ele>
        <time>2012-01-25T12:36:23Z</time>
      </trkpt>
      <trkpt lat="43.44718" lon="5.76132">
        <ele>854.2687988</ele>
        <time>2012-01-25T12:36:30Z</time>
      </trkpt>
      <trkpt lat="43.44709" lon="5.76127">
        <ele>857.1525879</ele>
        <time>2012-01-25T12:36:39Z</time>
      </trkpt>
      <trkpt lat="43.44701" lon="5.76124">
        <ele>858.5944824</ele>
        <time>2012-01-25T12:36:48Z</time>
      </trkpt>
      <trkpt lat="43.4469" lon="5.76122">
        <ele>860.0366211</ele>
        <time>2012-01-25T12:36:58Z</time>
      </trkpt>
      <trkpt lat="43.44681" lon="5.76122">
        <ele>861.9594727</ele>
        <time>2012-01-25T12:37:08Z</time>
      </trkpt>
      <trkpt lat="43.44674" lon="5.76121">
        <ele>862.9206543</ele>
        <time>2012-01-25T12:37:15Z</time>
      </trkpt>
      <trkpt lat="43.44673" lon="5.7612">
        <ele>863.4013672</ele>
        <time>2012-01-25T12:37:17Z</time>
      </trkpt>
      <trkpt lat="43.44663" lon="5.76117">
        <ele>867.246582</ele>
        <time>2012-01-25T12:37:28Z</time>
      </trkpt>
      <trkpt lat="43.44659" lon="5.7611">
        <ele>869.6499023</ele>
        <time>2012-01-25T12:37:35Z</time>
      </trkpt>
      <trkpt lat="43.44652" lon="5.76103">
        <ele>871.0917969</ele>
        <time>2012-01-25T12:37:44Z</time>
      </trkpt>
      <trkpt lat="43.44646" lon="5.76108">
        <ele>871.0917969</ele>
        <time>2012-01-25T12:37:52Z</time>
      </trkpt>
      <trkpt lat="43.4464" lon="5.76109">
        <ele>872.0529785</ele>
        <time>2012-01-25T12:37:58Z</time>
      </trkpt>
      <trkpt lat="43.44638" lon="5.76107">
        <ele>873.0144043</ele>
        <time>2012-01-25T12:38:01Z</time>
      </trkpt>
      <trkpt lat="43.44636" lon="5.76109">
        <ele>873.4951172</ele>
        <time>2012-01-25T12:38:05Z</time>
      </trkpt>
      <trkpt lat="43.4463" lon="5.76113">
        <ele>874.4562988</ele>
        <time>2012-01-25T12:38:12Z</time>
      </trkpt>
      <trkpt lat="43.44627" lon="5.76111">
        <ele>875.4174805</ele>
        <time>2012-01-25T12:38:15Z</time>
      </trkpt>
      <trkpt lat="43.44619" lon="5.76107">
        <ele>877.3405762</ele>
        <time>2012-01-25T12:38:24Z</time>
      </trkpt>
      <trkpt lat="43.44612" lon="5.76106">
        <ele>877.3405762</ele>
        <time>2012-01-25T12:38:30Z</time>
      </trkpt>
      <trkpt lat="43.44604" lon="5.76104">
        <ele>876.3791504</ele>
        <time>2012-01-25T12:38:37Z</time>
      </trkpt>
      <trkpt lat="43.44594" lon="5.76108">
        <ele>875.4174805</ele>
        <time>2012-01-25T12:38:45Z</time>
      </trkpt>
      <trkpt lat="43.44585" lon="5.76112">
        <ele>874.4562988</ele>
        <time>2012-01-25T12:38:52Z</time>
      </trkpt>
      <trkpt lat="43.44575" lon="5.76113">
        <ele>873.0144043</ele>
        <time>2012-01-25T12:38:59Z</time>
      </trkpt>
      <trkpt lat="43.44565" lon="5.76115">
        <ele>872.0529785</ele>
        <time>2012-01-25T12:39:06Z</time>
      </trkpt>
      <trkpt lat="43.44553" lon="5.76119">
        <ele>872.0529785</ele>
        <time>2012-01-25T12:39:15Z</time>
      </trkpt>
      <trkpt lat="43.4454" lon="5.76117">
        <ele>873.9755859</ele>
        <time>2012-01-25T12:39:25Z</time>
      </trkpt>
      <trkpt lat="43.44528" lon="5.76118">
        <ele>875.4174805</ele>
        <time>2012-01-25T12:39:34Z</time>
      </trkpt>
      <trkpt lat="43.44521" lon="5.76115">
        <ele>877.3405762</ele>
        <time>2012-01-25T12:39:41Z</time>
      </trkpt>
      <trkpt lat="43.44514" lon="5.7611">
        <ele>879.7436523</ele>
        <time>2012-01-25T12:39:49Z</time>
      </trkpt>
      <trkpt lat="43.44514" lon="5.76102">
        <ele>881.185791</ele>
        <time>2012-01-25T12:39:56Z</time>
      </trkpt>
      <trkpt lat="43.44511" lon="5.761">
        <ele>882.6276855</ele>
        <time>2012-01-25T12:40:05Z</time>
      </trkpt>
      <trkpt lat="43.4451" lon="5.76098">
        <ele>882.1469727</ele>
        <time>2012-01-25T12:40:07Z</time>
      </trkpt>
      <trkpt lat="43.44507" lon="5.76096">
        <ele>882.1469727</ele>
        <time>2012-01-25T12:40:14Z</time>
      </trkpt>
      <trkpt lat="43.44507" lon="5.76095">
        <ele>883.5888672</ele>
        <time>2012-01-25T12:40:21Z</time>
      </trkpt>
      <trkpt lat="43.44507" lon="5.76095">
        <ele>884.0695801</ele>
        <time>2012-01-25T12:40:23Z</time>
      </trkpt>
      <trkpt lat="43.44506" lon="5.76095">
        <ele>884.550293</ele>
        <time>2012-01-25T12:40:26Z</time>
      </trkpt>
      <trkpt lat="43.44507" lon="5.76097">
        <ele>885.0310059</ele>
        <time>2012-01-25T12:40:58Z</time>
      </trkpt>
      <trkpt lat="43.44506" lon="5.761">
        <ele>883.5888672</ele>
        <time>2012-01-25T12:41:01Z</time>
      </trkpt>
      <trkpt lat="43.44502" lon="5.76102">
        <ele>882.1469727</ele>
        <time>2012-01-25T12:41:06Z</time>
      </trkpt>
      <trkpt lat="43.445" lon="5.76101">
        <ele>880.2243652</ele>
        <time>2012-01-25T12:41:26Z</time>
      </trkpt>
      <trkpt lat="43.44494" lon="5.761">
        <ele>880.2243652</ele>
        <time>2012-01-25T12:41:31Z</time>
      </trkpt>
      <trkpt lat="43.44491" lon="5.76099">
        <ele>879.7436523</ele>
        <time>2012-01-25T12:41:37Z</time>
      </trkpt>
      <trkpt lat="43.44483" lon="5.76096">
        <ele>878.3017578</ele>
        <time>2012-01-25T12:41:44Z</time>
      </trkpt>
      <trkpt lat="43.44482" lon="5.76095">
        <ele>878.3017578</ele>
        <time>2012-01-25T12:41:45Z</time>
      </trkpt>
      <trkpt lat="43.4448" lon="5.76091">
        <ele>878.3017578</ele>
        <time>2012-01-25T12:41:51Z</time>
      </trkpt>
      <trkpt lat="43.44481" lon="5.76087">
        <ele>878.7824707</ele>
        <time>2012-01-25T12:41:58Z</time>
      </trkpt>
      <trkpt lat="43.4448" lon="5.76089">
        <ele>879.2629395</ele>
        <time>2012-01-25T12:42:26Z</time>
      </trkpt>
      <trkpt lat="43.44476" lon="5.76091">
        <ele>877.8210449</ele>
        <time>2012-01-25T12:42:30Z</time>
      </trkpt>
      <trkpt lat="43.44464" lon="5.76086">
        <ele>873.9755859</ele>
        <time>2012-01-25T12:42:40Z</time>
      </trkpt>
      <trkpt lat="43.44457" lon="5.76077">
        <ele>872.5336914</ele>
        <time>2012-01-25T12:42:47Z</time>
      </trkpt>
      <trkpt lat="43.44452" lon="5.7607">
        <ele>871.5722656</ele>
        <time>2012-01-25T12:42:52Z</time>
      </trkpt>
      <trkpt lat="43.44447" lon="5.76065">
        <ele>870.1303711</ele>
        <time>2012-01-25T12:42:56Z</time>
      </trkpt>
      <trkpt lat="43.44439" lon="5.76059">
        <ele>867.246582</ele>
        <time>2012-01-25T12:43:03Z</time>
      </trkpt>
      <trkpt lat="43.44429" lon="5.76049">
        <ele>863.4013672</ele>
        <time>2012-01-25T12:43:12Z</time>
      </trkpt>
      <trkpt lat="43.44424" lon="5.76047">
        <ele>861.9594727</ele>
        <time>2012-01-25T12:43:16Z</time>
      </trkpt>
      <trkpt lat="43.44418" lon="5.76041">
        <ele>859.5559082</ele>
        <time>2012-01-25T12:43:24Z</time>
      </trkpt>
      <trkpt lat="43.44419" lon="5.76038">
        <ele>861.4787598</ele>
        <time>2012-01-25T12:43:37Z</time>
      </trkpt>
      <trkpt lat="43.44415" lon="5.76033">
        <ele>860.517334</ele>
        <time>2012-01-25T12:43:50Z</time>
      </trkpt>
      <trkpt lat="43.44414" lon="5.7603">
        <ele>860.0366211</ele>
        <time>2012-01-25T12:43:52Z</time>
      </trkpt>
      <trkpt lat="43.44414" lon="5.76025">
        <ele>860.517334</ele>
        <time>2012-01-25T12:43:56Z</time>
      </trkpt>
      <trkpt lat="43.44411" lon="5.76026">
        <ele>862.9206543</ele>
        <time>2012-01-25T12:44:09Z</time>
      </trkpt>
      <trkpt lat="43.44402" lon="5.76027">
        <ele>859.0751953</ele>
        <time>2012-01-25T12:44:16Z</time>
      </trkpt>
      <trkpt lat="43.44399" lon="5.76024">
        <ele>857.1525879</ele>
        <time>2012-01-25T12:44:19Z</time>
      </trkpt>
      <trkpt lat="43.44389" lon="5.76014">
        <ele>852.8266602</ele>
        <time>2012-01-25T12:44:28Z</time>
      </trkpt>
      <trkpt lat="43.44388" lon="5.76011">
        <ele>852.3459473</ele>
        <time>2012-01-25T12:44:31Z</time>
      </trkpt>
      <trkpt lat="43.44387" lon="5.7601">
        <ele>852.3459473</ele>
        <time>2012-01-25T12:44:32Z</time>
      </trkpt>
      <trkpt lat="43.44387" lon="5.76009">
        <ele>851.8654785</ele>
        <time>2012-01-25T12:44:36Z</time>
      </trkpt>
      <trkpt lat="43.44385" lon="5.76007">
        <ele>851.8654785</ele>
        <time>2012-01-25T12:44:38Z</time>
      </trkpt>
      <trkpt lat="43.44383" lon="5.76005">
        <ele>851.3847656</ele>
        <time>2012-01-25T12:44:41Z</time>
      </trkpt>
      <trkpt lat="43.44382" lon="5.76001">
        <ele>850.9040527</ele>
        <time>2012-01-25T12:44:46Z</time>
      </trkpt>
      <trkpt lat="43.44376" lon="5.75998">
        <ele>848.0202637</ele>
        <time>2012-01-25T12:44:53Z</time>
      </trkpt>
      <trkpt lat="43.44371" lon="5.75998">
        <ele>846.0976563</ele>
        <time>2012-01-25T12:44:58Z</time>
      </trkpt>
      <trkpt lat="43.44366" lon="5.75989">
        <ele>843.2133789</ele>
        <time>2012-01-25T12:45:05Z</time>
      </trkpt>
      <trkpt lat="43.44362" lon="5.75987">
        <ele>841.7714844</ele>
        <time>2012-01-25T12:45:09Z</time>
      </trkpt>
      <trkpt lat="43.44356" lon="5.75983">
        <ele>839.848877</ele>
        <time>2012-01-25T12:45:14Z</time>
      </trkpt>
      <trkpt lat="43.44352" lon="5.75985">
        <ele>837.4455566</ele>
        <time>2012-01-25T12:45:19Z</time>
      </trkpt>
      <trkpt lat="43.4435" lon="5.75985">
        <ele>836.484375</ele>
        <time>2012-01-25T12:45:21Z</time>
      </trkpt>
      <trkpt lat="43.44346" lon="5.75985">
        <ele>835.0424805</ele>
        <time>2012-01-25T12:45:25Z</time>
      </trkpt>
      <trkpt lat="43.44345" lon="5.75992">
        <ele>832.1584473</ele>
        <time>2012-01-25T12:45:32Z</time>
      </trkpt>
      <trkpt lat="43.44344" lon="5.75989">
        <ele>832.1584473</ele>
        <time>2012-01-25T12:45:36Z</time>
      </trkpt>
      <trkpt lat="43.44343" lon="5.75991">
        <ele>829.2744141</ele>
        <time>2012-01-25T12:45:43Z</time>
      </trkpt>
      <trkpt lat="43.44344" lon="5.75994">
        <ele>828.7939453</ele>
        <time>2012-01-25T12:45:46Z</time>
      </trkpt>
      <trkpt lat="43.44341" lon="5.75995">
        <ele>826.3903809</ele>
        <time>2012-01-25T12:45:51Z</time>
      </trkpt>
      <trkpt lat="43.44336" lon="5.75998">
        <ele>823.5065918</ele>
        <time>2012-01-25T12:45:57Z</time>
      </trkpt>
      <trkpt lat="43.44332" lon="5.75997">
        <ele>820.6225586</ele>
        <time>2012-01-25T12:46:02Z</time>
      </trkpt>
      <trkpt lat="43.4433" lon="5.75997">
        <ele>818.6999512</ele>
        <time>2012-01-25T12:46:06Z</time>
      </trkpt>
      <trkpt lat="43.4433" lon="5.76001">
        <ele>817.2580566</ele>
        <time>2012-01-25T12:46:09Z</time>
      </trkpt>
      <trkpt lat="43.44325" lon="5.76001">
        <ele>815.8161621</ele>
        <time>2012-01-25T12:46:14Z</time>
      </trkpt>
      <trkpt lat="43.44318" lon="5.75991">
        <ele>812.451416</ele>
        <time>2012-01-25T12:46:23Z</time>
      </trkpt>
      <trkpt lat="43.44317" lon="5.75989">
        <ele>811.9707031</ele>
        <time>2012-01-25T12:46:25Z</time>
      </trkpt>
      <trkpt lat="43.44314" lon="5.75982">
        <ele>810.0478516</ele>
        <time>2012-01-25T12:46:31Z</time>
      </trkpt>
      <trkpt lat="43.44314" lon="5.7598">
        <ele>809.5673828</ele>
        <time>2012-01-25T12:46:32Z</time>
      </trkpt>
      <trkpt lat="43.44313" lon="5.75966">
        <ele>808.605957</ele>
        <time>2012-01-25T12:46:40Z</time>
      </trkpt>
      <trkpt lat="43.44313" lon="5.75963">
        <ele>808.605957</ele>
        <time>2012-01-25T12:46:42Z</time>
      </trkpt>
      <trkpt lat="43.44309" lon="5.75964">
        <ele>807.1640625</ele>
        <time>2012-01-25T12:46:47Z</time>
      </trkpt>
      <trkpt lat="43.44304" lon="5.75963">
        <ele>804.7607422</ele>
        <time>2012-01-25T12:46:52Z</time>
      </trkpt>
      <trkpt lat="43.44298" lon="5.75962">
        <ele>801.8769531</ele>
        <time>2012-01-25T12:46:57Z</time>
      </trkpt>
      <trkpt lat="43.4429" lon="5.75954">
        <ele>798.9929199</ele>
        <time>2012-01-25T12:47:03Z</time>
      </trkpt>
      <trkpt lat="43.44289" lon="5.75953">
        <ele>798.0317383</ele>
        <time>2012-01-25T12:47:04Z</time>
      </trkpt>
      <trkpt lat="43.44284" lon="5.75938">
        <ele>795.1474609</ele>
        <time>2012-01-25T12:47:12Z</time>
      </trkpt>
      <trkpt lat="43.44274" lon="5.75929">
        <ele>791.3022461</ele>
        <time>2012-01-25T12:47:20Z</time>
      </trkpt>
      <trkpt lat="43.44265" lon="5.75918">
        <ele>787.9377441</ele>
        <time>2012-01-25T12:47:28Z</time>
      </trkpt>
      <trkpt lat="43.44258" lon="5.75908">
        <ele>786.0151367</ele>
        <time>2012-01-25T12:47:35Z</time>
      </trkpt>
      <trkpt lat="43.44251" lon="5.75899">
        <ele>783.6118164</ele>
        <time>2012-01-25T12:47:41Z</time>
      </trkpt>
      <trkpt lat="43.4424" lon="5.75889">
        <ele>780.7280273</ele>
        <time>2012-01-25T12:47:49Z</time>
      </trkpt>
      <trkpt lat="43.44239" lon="5.75888">
        <ele>780.7280273</ele>
        <time>2012-01-25T12:47:50Z</time>
      </trkpt>
      <trkpt lat="43.44235" lon="5.75886">
        <ele>779.7663574</ele>
        <time>2012-01-25T12:47:53Z</time>
      </trkpt>
      <trkpt lat="43.4423" lon="5.75893">
        <ele>776.8825684</ele>
        <time>2012-01-25T12:47:58Z</time>
      </trkpt>
      <trkpt lat="43.44221" lon="5.7591">
        <ele>771.1147461</ele>
        <time>2012-01-25T12:48:08Z</time>
      </trkpt>
      <trkpt lat="43.4422" lon="5.75914">
        <ele>770.1533203</ele>
        <time>2012-01-25T12:48:10Z</time>
      </trkpt>
      <trkpt lat="43.44215" lon="5.75915">
        <ele>767.75</ele>
        <time>2012-01-25T12:48:14Z</time>
      </trkpt>
      <trkpt lat="43.44212" lon="5.75913">
        <ele>766.7888184</ele>
        <time>2012-01-25T12:48:16Z</time>
      </trkpt>
      <trkpt lat="43.44211" lon="5.75911">
        <ele>766.7888184</ele>
        <time>2012-01-25T12:48:17Z</time>
      </trkpt>
      <trkpt lat="43.44209" lon="5.75902">
        <ele>765.3469238</ele>
        <time>2012-01-25T12:48:21Z</time>
      </trkpt>
      <trkpt lat="43.44208" lon="5.75889">
        <ele>764.385498</ele>
        <time>2012-01-25T12:48:27Z</time>
      </trkpt>
      <trkpt lat="43.44204" lon="5.75881">
        <ele>762.4626465</ele>
        <time>2012-01-25T12:48:31Z</time>
      </trkpt>
      <trkpt lat="43.44192" lon="5.75872">
        <ele>759.5788574</ele>
        <time>2012-01-25T12:48:36Z</time>
      </trkpt>
      <trkpt lat="43.44182" lon="5.75863">
        <ele>759.0981445</ele>
        <time>2012-01-25T12:48:42Z</time>
      </trkpt>
      <trkpt lat="43.44176" lon="5.75856">
        <ele>757.65625</ele>
        <time>2012-01-25T12:48:47Z</time>
      </trkpt>
      <trkpt lat="43.44166" lon="5.75845">
        <ele>756.6948242</ele>
        <time>2012-01-25T12:48:54Z</time>
      </trkpt>
      <trkpt lat="43.44152" lon="5.75834">
        <ele>754.7722168</ele>
        <time>2012-01-25T12:49:04Z</time>
      </trkpt>
      <trkpt lat="43.44139" lon="5.75827">
        <ele>752.3688965</ele>
        <time>2012-01-25T12:49:13Z</time>
      </trkpt>
      <trkpt lat="43.44129" lon="5.75821">
        <ele>750.4465332</ele>
        <time>2012-01-25T12:49:21Z</time>
      </trkpt>
      <trkpt lat="43.44123" lon="5.75819">
        <ele>749.9658203</ele>
        <time>2012-01-25T12:49:25Z</time>
      </trkpt>
      <trkpt lat="43.44123" lon="5.75813">
        <ele>749.0043945</ele>
        <time>2012-01-25T12:49:31Z</time>
      </trkpt>
      <trkpt lat="43.44124" lon="5.75811">
        <ele>748.5236816</ele>
        <time>2012-01-25T12:49:33Z</time>
      </trkpt>
      <trkpt lat="43.44122" lon="5.75807">
        <ele>747.5622559</ele>
        <time>2012-01-25T12:49:38Z</time>
      </trkpt>
      <trkpt lat="43.44121" lon="5.75806">
        <ele>747.5622559</ele>
        <time>2012-01-25T12:49:39Z</time>
      </trkpt>
      <trkpt lat="43.44112" lon="5.75802">
        <ele>744.1977539</ele>
        <time>2012-01-25T12:49:48Z</time>
      </trkpt>
      <trkpt lat="43.44108" lon="5.75799">
        <ele>743.2363281</ele>
        <time>2012-01-25T12:49:52Z</time>
      </trkpt>
      <trkpt lat="43.44103" lon="5.75799">
        <ele>742.2751465</ele>
        <time>2012-01-25T12:49:56Z</time>
      </trkpt>
      <trkpt lat="43.44096" lon="5.75792">
        <ele>739.3911133</ele>
        <time>2012-01-25T12:50:04Z</time>
      </trkpt>
      <trkpt lat="43.44093" lon="5.75788">
        <ele>738.9106445</ele>
        <time>2012-01-25T12:50:07Z</time>
      </trkpt>
      <trkpt lat="43.4409" lon="5.75784">
        <ele>738.4299316</ele>
        <time>2012-01-25T12:50:10Z</time>
      </trkpt>
      <trkpt lat="43.44089" lon="5.75778">
        <ele>737.9492188</ele>
        <time>2012-01-25T12:50:15Z</time>
      </trkpt>
      <trkpt lat="43.44089" lon="5.75775">
        <ele>738.9106445</ele>
        <time>2012-01-25T12:50:26Z</time>
      </trkpt>
      <trkpt lat="43.44084" lon="5.75771">
        <ele>737.9492188</ele>
        <time>2012-01-25T12:50:31Z</time>
      </trkpt>
      <trkpt lat="43.44072" lon="5.7577">
        <ele>736.5073242</ele>
        <time>2012-01-25T12:50:40Z</time>
      </trkpt>
      <trkpt lat="43.44064" lon="5.75773">
        <ele>735.0654297</ele>
        <time>2012-01-25T12:50:46Z</time>
      </trkpt>
      <trkpt lat="43.44062" lon="5.75774">
        <ele>735.0654297</ele>
        <time>2012-01-25T12:50:48Z</time>
      </trkpt>
      <trkpt lat="43.44051" lon="5.75777">
        <ele>733.1425781</ele>
        <time>2012-01-25T12:50:57Z</time>
      </trkpt>
      <trkpt lat="43.44042" lon="5.75773">
        <ele>730.7392578</ele>
        <time>2012-01-25T12:51:06Z</time>
      </trkpt>
      <trkpt lat="43.4404" lon="5.75771">
        <ele>729.777832</ele>
        <time>2012-01-25T12:51:12Z</time>
      </trkpt>
      <trkpt lat="43.44038" lon="5.75767">
        <ele>729.2971191</ele>
        <time>2012-01-25T12:51:16Z</time>
      </trkpt>
      <trkpt lat="43.44037" lon="5.75757">
        <ele>727.8552246</ele>
        <time>2012-01-25T12:51:24Z</time>
      </trkpt>
      <trkpt lat="43.44038" lon="5.75751">
        <ele>729.2971191</ele>
        <time>2012-01-25T12:51:35Z</time>
      </trkpt>
      <trkpt lat="43.44039" lon="5.75749">
        <ele>730.2585449</ele>
        <time>2012-01-25T12:51:42Z</time>
      </trkpt>
      <trkpt lat="43.4404" lon="5.75748">
        <ele>731.2199707</ele>
        <time>2012-01-25T12:51:47Z</time>
      </trkpt>
      <trkpt lat="43.44046" lon="5.75744">
        <ele>732.1813965</ele>
        <time>2012-01-25T12:51:54Z</time>
      </trkpt>
      <trkpt lat="43.44057" lon="5.75735">
        <ele>732.1813965</ele>
        <time>2012-01-25T12:52:04Z</time>
      </trkpt>
      <trkpt lat="43.44063" lon="5.75729">
        <ele>731.7004395</ele>
        <time>2012-01-25T12:52:10Z</time>
      </trkpt>
      <trkpt lat="43.44076" lon="5.75731">
        <ele>733.1425781</ele>
        <time>2012-01-25T12:52:19Z</time>
      </trkpt>
      <trkpt lat="43.44085" lon="5.75734">
        <ele>734.1040039</ele>
        <time>2012-01-25T12:52:26Z</time>
      </trkpt>
      <trkpt lat="43.4409" lon="5.75735">
        <ele>735.0654297</ele>
        <time>2012-01-25T12:52:31Z</time>
      </trkpt>
      <trkpt lat="43.44092" lon="5.75736">
        <ele>734.5847168</ele>
        <time>2012-01-25T12:52:38Z</time>
      </trkpt>
      <trkpt lat="43.44093" lon="5.75736">
        <ele>733.1425781</ele>
        <time>2012-01-25T12:52:48Z</time>
      </trkpt>
      <trkpt lat="43.44095" lon="5.75738">
        <ele>732.1813965</ele>
        <time>2012-01-25T12:52:54Z</time>
      </trkpt>
      <trkpt lat="43.44098" lon="5.75737">
        <ele>731.2199707</ele>
        <time>2012-01-25T12:52:59Z</time>
      </trkpt>
      <trkpt lat="43.441" lon="5.75737">
        <ele>729.777832</ele>
        <time>2012-01-25T12:53:06Z</time>
      </trkpt>
      <trkpt lat="43.44101" lon="5.75738">
        <ele>729.777832</ele>
        <time>2012-01-25T12:53:07Z</time>
      </trkpt>
      <trkpt lat="43.44102" lon="5.75738">
        <ele>728.8166504</ele>
        <time>2012-01-25T12:53:14Z</time>
      </trkpt>
      <trkpt lat="43.44098" lon="5.75728">
        <ele>726.894043</ele>
        <time>2012-01-25T12:53:21Z</time>
      </trkpt>
      <trkpt lat="43.44099" lon="5.7572">
        <ele>725.4519043</ele>
        <time>2012-01-25T12:53:26Z</time>
      </trkpt>
      <trkpt lat="43.44099" lon="5.75717">
        <ele>724.9714355</ele>
        <time>2012-01-25T12:53:28Z</time>
      </trkpt>
      <trkpt lat="43.44097" lon="5.75708">
        <ele>723.529541</ele>
        <time>2012-01-25T12:53:35Z</time>
      </trkpt>
      <trkpt lat="43.44096" lon="5.75699">
        <ele>721.6066895</ele>
        <time>2012-01-25T12:53:41Z</time>
      </trkpt>
      <trkpt lat="43.44098" lon="5.75696">
        <ele>721.1262207</ele>
        <time>2012-01-25T12:53:45Z</time>
      </trkpt>
      <trkpt lat="43.44101" lon="5.75698">
        <ele>720.1647949</ele>
        <time>2012-01-25T12:53:49Z</time>
      </trkpt>
      <trkpt lat="43.44104" lon="5.75694">
        <ele>719.6843262</ele>
        <time>2012-01-25T12:53:53Z</time>
      </trkpt>
      <trkpt lat="43.44108" lon="5.75692">
        <ele>721.6066895</ele>
        <time>2012-01-25T12:54:00Z</time>
      </trkpt>
      <trkpt lat="43.44108" lon="5.75691">
        <ele>724.0100098</ele>
        <time>2012-01-25T12:54:14Z</time>
      </trkpt>
      <trkpt lat="43.44117" lon="5.75691">
        <ele>722.5681152</ele>
        <time>2012-01-25T12:54:24Z</time>
      </trkpt>
      <trkpt lat="43.4412" lon="5.75688">
        <ele>721.6066895</ele>
        <time>2012-01-25T12:54:28Z</time>
      </trkpt>
      <trkpt lat="43.44122" lon="5.75687">
        <ele>721.1262207</ele>
        <time>2012-01-25T12:54:30Z</time>
      </trkpt>
      <trkpt lat="43.44123" lon="5.75684">
        <ele>719.2036133</ele>
        <time>2012-01-25T12:54:33Z</time>
      </trkpt>
      <trkpt lat="43.44127" lon="5.7568">
        <ele>718.2421875</ele>
        <time>2012-01-25T12:54:37Z</time>
      </trkpt>
      <trkpt lat="43.4413" lon="5.75677">
        <ele>714.8774414</ele>
        <time>2012-01-25T12:54:44Z</time>
      </trkpt>
      <trkpt lat="43.4413" lon="5.75672">
        <ele>713.4355469</ele>
        <time>2012-01-25T12:54:50Z</time>
      </trkpt>
      <trkpt lat="43.44132" lon="5.7567">
        <ele>713.4355469</ele>
        <time>2012-01-25T12:54:56Z</time>
      </trkpt>
      <trkpt lat="43.44131" lon="5.75668">
        <ele>712.4741211</ele>
        <time>2012-01-25T12:55:06Z</time>
      </trkpt>
      <trkpt lat="43.44132" lon="5.75666">
        <ele>711.9936523</ele>
        <time>2012-01-25T12:55:11Z</time>
      </trkpt>
      <trkpt lat="43.44132" lon="5.75665">
        <ele>711.9936523</ele>
        <time>2012-01-25T12:55:12Z</time>
      </trkpt>
      <trkpt lat="43.4414" lon="5.75667">
        <ele>710.5515137</ele>
        <time>2012-01-25T12:55:17Z</time>
      </trkpt>
      <trkpt lat="43.4415" lon="5.75672">
        <ele>709.590332</ele>
        <time>2012-01-25T12:55:26Z</time>
      </trkpt>
      <trkpt lat="43.44156" lon="5.75677">
        <ele>707.6677246</ele>
        <time>2012-01-25T12:55:31Z</time>
      </trkpt>
      <trkpt lat="43.44162" lon="5.7568">
        <ele>706.7062988</ele>
        <time>2012-01-25T12:55:35Z</time>
      </trkpt>
      <trkpt lat="43.44163" lon="5.7568">
        <ele>706.7062988</ele>
        <time>2012-01-25T12:55:36Z</time>
      </trkpt>
      <trkpt lat="43.4417" lon="5.75677">
        <ele>706.2255859</ele>
        <time>2012-01-25T12:55:40Z</time>
      </trkpt>
      <trkpt lat="43.4418" lon="5.75669">
        <ele>706.7062988</ele>
        <time>2012-01-25T12:55:48Z</time>
      </trkpt>
      <trkpt lat="43.44192" lon="5.75658">
        <ele>706.2255859</ele>
        <time>2012-01-25T12:55:58Z</time>
      </trkpt>
      <trkpt lat="43.44203" lon="5.75649">
        <ele>706.2255859</ele>
        <time>2012-01-25T12:56:07Z</time>
      </trkpt>
      <trkpt lat="43.44212" lon="5.75644">
        <ele>706.2255859</ele>
        <time>2012-01-25T12:56:14Z</time>
      </trkpt>
      <trkpt lat="43.44225" lon="5.75643">
        <ele>705.7451172</ele>
        <time>2012-01-25T12:56:22Z</time>
      </trkpt>
      <trkpt lat="43.44237" lon="5.75654">
        <ele>702.861084</ele>
        <time>2012-01-25T12:56:28Z</time>
      </trkpt>
      <trkpt lat="43.44247" lon="5.75674">
        <ele>698.5349121</ele>
        <time>2012-01-25T12:56:35Z</time>
      </trkpt>
      <trkpt lat="43.4425" lon="5.75684">
        <ele>696.6125488</ele>
        <time>2012-01-25T12:56:38Z</time>
      </trkpt>
      <trkpt lat="43.44251" lon="5.7569">
        <ele>694.6896973</ele>
        <time>2012-01-25T12:56:40Z</time>
      </trkpt>
      <trkpt lat="43.44261" lon="5.75701">
        <ele>692.2866211</ele>
        <time>2012-01-25T12:56:46Z</time>
      </trkpt>
      <trkpt lat="43.44268" lon="5.75701">
        <ele>691.8059082</ele>
        <time>2012-01-25T12:56:50Z</time>
      </trkpt>
      <trkpt lat="43.44278" lon="5.7569">
        <ele>692.2866211</ele>
        <time>2012-01-25T12:56:57Z</time>
      </trkpt>
      <trkpt lat="43.44287" lon="5.75679">
        <ele>691.8059082</ele>
        <time>2012-01-25T12:57:03Z</time>
      </trkpt>
      <trkpt lat="43.44302" lon="5.75675">
        <ele>689.8833008</ele>
        <time>2012-01-25T12:57:12Z</time>
      </trkpt>
      <trkpt lat="43.44313" lon="5.75675">
        <ele>688.4414063</ele>
        <time>2012-01-25T12:57:19Z</time>
      </trkpt>
      <trkpt lat="43.44323" lon="5.75679">
        <ele>685.557373</ele>
        <time>2012-01-25T12:57:26Z</time>
      </trkpt>
      <trkpt lat="43.44333" lon="5.75684">
        <ele>684.1154785</ele>
        <time>2012-01-25T12:57:34Z</time>
      </trkpt>
      <trkpt lat="43.44344" lon="5.75681">
        <ele>682.6733398</ele>
        <time>2012-01-25T12:57:41Z</time>
      </trkpt>
      <trkpt lat="43.44355" lon="5.75668">
        <ele>680.2700195</ele>
        <time>2012-01-25T12:57:51Z</time>
      </trkpt>
      <trkpt lat="43.44364" lon="5.75657">
        <ele>678.3474121</ele>
        <time>2012-01-25T12:58:00Z</time>
      </trkpt>
      <trkpt lat="43.44374" lon="5.7565">
        <ele>675.9440918</ele>
        <time>2012-01-25T12:58:08Z</time>
      </trkpt>
      <trkpt lat="43.44379" lon="5.75644">
        <ele>674.9829102</ele>
        <time>2012-01-25T12:58:15Z</time>
      </trkpt>
      <trkpt lat="43.44381" lon="5.75642">
        <ele>674.9829102</ele>
        <time>2012-01-25T12:58:23Z</time>
      </trkpt>
      <trkpt lat="43.44382" lon="5.75641">
        <ele>675.4633789</ele>
        <time>2012-01-25T12:58:30Z</time>
      </trkpt>
      <trkpt lat="43.44391" lon="5.75642">
        <ele>674.9829102</ele>
        <time>2012-01-25T12:58:39Z</time>
      </trkpt>
      <trkpt lat="43.44397" lon="5.75642">
        <ele>674.0214844</ele>
        <time>2012-01-25T12:58:45Z</time>
      </trkpt>
      <trkpt lat="43.44406" lon="5.75645">
        <ele>672.5795898</ele>
        <time>2012-01-25T12:58:54Z</time>
      </trkpt>
      <trkpt lat="43.44414" lon="5.75648">
        <ele>671.6181641</ele>
        <time>2012-01-25T12:59:01Z</time>
      </trkpt>
      <trkpt lat="43.44421" lon="5.75655">
        <ele>670.6569824</ele>
        <time>2012-01-25T12:59:08Z</time>
      </trkpt>
      <trkpt lat="43.44427" lon="5.75661">
        <ele>668.734375</ele>
        <time>2012-01-25T12:59:15Z</time>
      </trkpt>
      <trkpt lat="43.44436" lon="5.75666">
        <ele>666.8115234</ele>
        <time>2012-01-25T12:59:23Z</time>
      </trkpt>
      <trkpt lat="43.44449" lon="5.75672">
        <ele>663.9274902</ele>
        <time>2012-01-25T12:59:31Z</time>
      </trkpt>
      <trkpt lat="43.44462" lon="5.75672">
        <ele>662.4855957</ele>
        <time>2012-01-25T12:59:37Z</time>
      </trkpt>
      <trkpt lat="43.44475" lon="5.75667">
        <ele>661.5244141</ele>
        <time>2012-01-25T12:59:45Z</time>
      </trkpt>
      <trkpt lat="43.44487" lon="5.75668">
        <ele>659.6018066</ele>
        <time>2012-01-25T12:59:53Z</time>
      </trkpt>
      <trkpt lat="43.44498" lon="5.75673">
        <ele>654.795166</ele>
        <time>2012-01-25T13:00:00Z</time>
      </trkpt>
      <trkpt lat="43.4451" lon="5.75673">
        <ele>652.8725586</ele>
        <time>2012-01-25T13:00:07Z</time>
      </trkpt>
      <trkpt lat="43.44527" lon="5.75671">
        <ele>650.949707</ele>
        <time>2012-01-25T13:00:16Z</time>
      </trkpt>
      <trkpt lat="43.44537" lon="5.75669">
        <ele>649.5078125</ele>
        <time>2012-01-25T13:00:21Z</time>
      </trkpt>
      <trkpt lat="43.44543" lon="5.75667">
        <ele>649.0270996</ele>
        <time>2012-01-25T13:00:25Z</time>
      </trkpt>
      <trkpt lat="43.44556" lon="5.75661">
        <ele>646.1433105</ele>
        <time>2012-01-25T13:00:32Z</time>
      </trkpt>
      <trkpt lat="43.44568" lon="5.75662">
        <ele>645.1818848</ele>
        <time>2012-01-25T13:00:38Z</time>
      </trkpt>
      <trkpt lat="43.44575" lon="5.75666">
        <ele>643.7399902</ele>
        <time>2012-01-25T13:00:42Z</time>
      </trkpt>
      <trkpt lat="43.44577" lon="5.75669">
        <ele>644.7011719</ele>
        <time>2012-01-25T13:00:47Z</time>
      </trkpt>
      <trkpt lat="43.44578" lon="5.75669">
        <ele>644.7011719</ele>
        <time>2012-01-25T13:00:51Z</time>
      </trkpt>
      <trkpt lat="43.44592" lon="5.75671">
        <ele>645.1818848</ele>
        <time>2012-01-25T13:01:00Z</time>
      </trkpt>
      <trkpt lat="43.44604" lon="5.75669">
        <ele>645.6625977</ele>
        <time>2012-01-25T13:01:08Z</time>
      </trkpt>
      <trkpt lat="43.44608" lon="5.75655">
        <ele>644.2207031</ele>
        <time>2012-01-25T13:01:15Z</time>
      </trkpt>
      <trkpt lat="43.44618" lon="5.75638">
        <ele>643.7399902</ele>
        <time>2012-01-25T13:01:25Z</time>
      </trkpt>
      <trkpt lat="43.4463" lon="5.75628">
        <ele>643.7399902</ele>
        <time>2012-01-25T13:01:33Z</time>
      </trkpt>
      <trkpt lat="43.44643" lon="5.75628">
        <ele>642.7788086</ele>
        <time>2012-01-25T13:01:39Z</time>
      </trkpt>
      <trkpt lat="43.44653" lon="5.75623">
        <ele>642.7788086</ele>
        <time>2012-01-25T13:01:44Z</time>
      </trkpt>
      <trkpt lat="43.44666" lon="5.75611">
        <ele>643.2592773</ele>
        <time>2012-01-25T13:01:53Z</time>
      </trkpt>
      <trkpt lat="43.44682" lon="5.75602">
        <ele>642.7788086</ele>
        <time>2012-01-25T13:02:04Z</time>
      </trkpt>
      <trkpt lat="43.44698" lon="5.75594">
        <ele>642.2980957</ele>
        <time>2012-01-25T13:02:13Z</time>
      </trkpt>
      <trkpt lat="43.44722" lon="5.75587">
        <ele>639.4140625</ele>
        <time>2012-01-25T13:02:22Z</time>
      </trkpt>
      <trkpt lat="43.44733" lon="5.75585">
        <ele>637.972168</ele>
        <time>2012-01-25T13:02:28Z</time>
      </trkpt>
      <trkpt lat="43.44748" lon="5.75584">
        <ele>636.0495605</ele>
        <time>2012-01-25T13:02:37Z</time>
      </trkpt>
      <trkpt lat="43.44761" lon="5.75584">
        <ele>634.6074219</ele>
        <time>2012-01-25T13:02:44Z</time>
      </trkpt>
      <trkpt lat="43.44774" lon="5.75584">
        <ele>634.6074219</ele>
        <time>2012-01-25T13:02:53Z</time>
      </trkpt>
      <trkpt lat="43.44791" lon="5.75584">
        <ele>632.6848145</ele>
        <time>2012-01-25T13:03:03Z</time>
      </trkpt>
      <trkpt lat="43.44804" lon="5.75582">
        <ele>630.2814941</ele>
        <time>2012-01-25T13:03:12Z</time>
      </trkpt>
      <trkpt lat="43.4482" lon="5.75571">
        <ele>632.2041016</ele>
        <time>2012-01-25T13:03:22Z</time>
      </trkpt>
      <trkpt lat="43.44833" lon="5.75569">
        <ele>631.7233887</ele>
        <time>2012-01-25T13:03:30Z</time>
      </trkpt>
      <trkpt lat="43.44848" lon="5.75577">
        <ele>627.8781738</ele>
        <time>2012-01-25T13:03:38Z</time>
      </trkpt>
      <trkpt lat="43.44861" lon="5.75579">
        <ele>624.9943848</ele>
        <time>2012-01-25T13:03:43Z</time>
      </trkpt>
      <trkpt lat="43.44873" lon="5.75585">
        <ele>620.1877441</ele>
        <time>2012-01-25T13:03:50Z</time>
      </trkpt>
      <trkpt lat="43.44886" lon="5.75597">
        <ele>615.8618164</ele>
        <time>2012-01-25T13:03:59Z</time>
      </trkpt>
      <trkpt lat="43.44897" lon="5.75607">
        <ele>612.9777832</ele>
        <time>2012-01-25T13:04:08Z</time>
      </trkpt>
      <trkpt lat="43.44907" lon="5.75619">
        <ele>610.09375</ele>
        <time>2012-01-25T13:04:17Z</time>
      </trkpt>
      <trkpt lat="43.44918" lon="5.75634">
        <ele>610.09375</ele>
        <time>2012-01-25T13:04:26Z</time>
      </trkpt>
      <trkpt lat="43.4493" lon="5.75651">
        <ele>608.1713867</ele>
        <time>2012-01-25T13:04:36Z</time>
      </trkpt>
      <trkpt lat="43.44942" lon="5.75668">
        <ele>606.2485352</ele>
        <time>2012-01-25T13:04:46Z</time>
      </trkpt>
      <trkpt lat="43.44949" lon="5.7568">
        <ele>606.2485352</ele>
        <time>2012-01-25T13:04:53Z</time>
      </trkpt>
      <trkpt lat="43.44958" lon="5.75693">
        <ele>607.2099609</ele>
        <time>2012-01-25T13:05:01Z</time>
      </trkpt>
      <trkpt lat="43.44962" lon="5.75711">
        <ele>606.2485352</ele>
        <time>2012-01-25T13:05:09Z</time>
      </trkpt>
      <trkpt lat="43.44966" lon="5.75733">
        <ele>604.8066406</ele>
        <time>2012-01-25T13:05:19Z</time>
      </trkpt>
      <trkpt lat="43.44973" lon="5.7575">
        <ele>604.3261719</ele>
        <time>2012-01-25T13:05:28Z</time>
      </trkpt>
      <trkpt lat="43.44987" lon="5.75764">
        <ele>605.2873535</ele>
        <time>2012-01-25T13:05:38Z</time>
      </trkpt>
      <trkpt lat="43.44994" lon="5.75775">
        <ele>606.729248</ele>
        <time>2012-01-25T13:05:45Z</time>
      </trkpt>
      <trkpt lat="43.45007" lon="5.7579">
        <ele>608.6518555</ele>
        <time>2012-01-25T13:05:56Z</time>
      </trkpt>
      <trkpt lat="43.45018" lon="5.75806">
        <ele>608.6518555</ele>
        <time>2012-01-25T13:06:06Z</time>
      </trkpt>
      <trkpt lat="43.45027" lon="5.75827">
        <ele>607.2099609</ele>
        <time>2012-01-25T13:06:17Z</time>
      </trkpt>
      <trkpt lat="43.4503" lon="5.75843">
        <ele>608.1713867</ele>
        <time>2012-01-25T13:06:25Z</time>
      </trkpt>
      <trkpt lat="43.45032" lon="5.75861">
        <ele>609.6132813</ele>
        <time>2012-01-25T13:06:34Z</time>
      </trkpt>
      <trkpt lat="43.45033" lon="5.75881">
        <ele>607.2099609</ele>
        <time>2012-01-25T13:06:43Z</time>
      </trkpt>
      <trkpt lat="43.45039" lon="5.75899">
        <ele>604.8066406</ele>
        <time>2012-01-25T13:06:52Z</time>
      </trkpt>
      <trkpt lat="43.45051" lon="5.75911">
        <ele>603.364502</ele>
        <time>2012-01-25T13:07:01Z</time>
      </trkpt>
      <trkpt lat="43.45065" lon="5.75919">
        <ele>606.729248</ele>
        <time>2012-01-25T13:07:10Z</time>
      </trkpt>
      <trkpt lat="43.45078" lon="5.75921">
        <ele>610.5744629</ele>
        <time>2012-01-25T13:07:18Z</time>
      </trkpt>
      <trkpt lat="43.45092" lon="5.75925">
        <ele>611.0551758</ele>
        <time>2012-01-25T13:07:27Z</time>
      </trkpt>
      <trkpt lat="43.45106" lon="5.75935">
        <ele>611.0551758</ele>
        <time>2012-01-25T13:07:37Z</time>
      </trkpt>
      <trkpt lat="43.45113" lon="5.75948">
        <ele>611.0551758</ele>
        <time>2012-01-25T13:07:45Z</time>
      </trkpt>
      <trkpt lat="43.45122" lon="5.75964">
        <ele>609.6132813</ele>
        <time>2012-01-25T13:07:54Z</time>
      </trkpt>
      <trkpt lat="43.45134" lon="5.75969">
        <ele>610.09375</ele>
        <time>2012-01-25T13:08:03Z</time>
      </trkpt>
      <trkpt lat="43.45147" lon="5.75971">
        <ele>613.4584961</ele>
        <time>2012-01-25T13:08:12Z</time>
      </trkpt>
      <trkpt lat="43.45155" lon="5.75973">
        <ele>613.9389648</ele>
        <time>2012-01-25T13:08:18Z</time>
      </trkpt>
      <trkpt lat="43.45166" lon="5.75964">
        <ele>618.7456055</ele>
        <time>2012-01-25T13:08:25Z</time>
      </trkpt>
      <trkpt lat="43.45173" lon="5.75957">
        <ele>621.6296387</ele>
        <time>2012-01-25T13:08:31Z</time>
      </trkpt>
      <trkpt lat="43.45181" lon="5.75951">
        <ele>625.4748535</ele>
        <time>2012-01-25T13:08:38Z</time>
      </trkpt>
      <trkpt lat="43.45186" lon="5.7595">
        <ele>626.4362793</ele>
        <time>2012-01-25T13:08:43Z</time>
      </trkpt>
      <trkpt lat="43.45193" lon="5.75947">
        <ele>627.8781738</ele>
        <time>2012-01-25T13:08:49Z</time>
      </trkpt>
      <trkpt lat="43.45195" lon="5.75947">
        <ele>627.8781738</ele>
        <time>2012-01-25T13:08:59Z</time>
      </trkpt>
      <trkpt lat="43.45197" lon="5.75948">
        <ele>626.4362793</ele>
        <time>2012-01-25T13:09:25Z</time>
      </trkpt>
      <trkpt lat="43.45186" lon="5.75951">
        <ele>624.032959</ele>
        <time>2012-01-25T13:09:34Z</time>
      </trkpt>
      <trkpt lat="43.45182" lon="5.75955">
        <ele>622.1103516</ele>
        <time>2012-01-25T13:09:38Z</time>
      </trkpt>
      <trkpt lat="43.45173" lon="5.75961">
        <ele>618.2648926</ele>
        <time>2012-01-25T13:09:46Z</time>
      </trkpt>
      <trkpt lat="43.45166" lon="5.7597">
        <ele>616.3422852</ele>
        <time>2012-01-25T13:09:53Z</time>
      </trkpt>
      <trkpt lat="43.45166" lon="5.75983">
        <ele>615.3811035</ele>
        <time>2012-01-25T13:09:59Z</time>
      </trkpt>
      <trkpt lat="43.45168" lon="5.76002">
        <ele>613.4584961</ele>
        <time>2012-01-25T13:10:06Z</time>
      </trkpt>
      <trkpt lat="43.45169" lon="5.76005">
        <ele>612.9777832</ele>
        <time>2012-01-25T13:10:07Z</time>
      </trkpt>
      <trkpt lat="43.45169" lon="5.76005">
        <ele>612.9777832</ele>
        <time>2012-01-25T13:10:07Z</time>
      </trkpt>
      <trkpt lat="43.4517" lon="5.76021">
        <ele>612.0166016</ele>
        <time>2012-01-25T13:10:14Z</time>
      </trkpt>
      <trkpt lat="43.4517" lon="5.76042">
        <ele>610.09375</ele>
        <time>2012-01-25T13:10:22Z</time>
      </trkpt>
      <trkpt lat="43.45171" lon="5.76064">
        <ele>607.6906738</ele>
        <time>2012-01-25T13:10:31Z</time>
      </trkpt>
      <trkpt lat="43.45173" lon="5.76084">
        <ele>603.364502</ele>
        <time>2012-01-25T13:10:39Z</time>
      </trkpt>
      <trkpt lat="43.4518" lon="5.76099">
        <ele>599.5192871</ele>
        <time>2012-01-25T13:10:47Z</time>
      </trkpt>
      <trkpt lat="43.4519" lon="5.76111">
        <ele>598.5578613</ele>
        <time>2012-01-25T13:10:55Z</time>
      </trkpt>
      <trkpt lat="43.45195" lon="5.76127">
        <ele>599.5192871</ele>
        <time>2012-01-25T13:11:03Z</time>
      </trkpt>
      <trkpt lat="43.45201" lon="5.76139">
        <ele>599.5192871</ele>
        <time>2012-01-25T13:11:10Z</time>
      </trkpt>
      <trkpt lat="43.45208" lon="5.76153">
        <ele>600.4807129</ele>
        <time>2012-01-25T13:11:19Z</time>
      </trkpt>
      <trkpt lat="43.45214" lon="5.7617">
        <ele>600.9611816</ele>
        <time>2012-01-25T13:11:28Z</time>
      </trkpt>
      <trkpt lat="43.45227" lon="5.76187">
        <ele>601.4418945</ele>
        <time>2012-01-25T13:11:40Z</time>
      </trkpt>
      <trkpt lat="43.45236" lon="5.76194">
        <ele>602.8837891</ele>
        <time>2012-01-25T13:11:47Z</time>
      </trkpt>
      <trkpt lat="43.45248" lon="5.76206">
        <ele>605.7680664</ele>
        <time>2012-01-25T13:11:58Z</time>
      </trkpt>
      <trkpt lat="43.45257" lon="5.76208">
        <ele>608.6518555</ele>
        <time>2012-01-25T13:12:05Z</time>
      </trkpt>
      <trkpt lat="43.45269" lon="5.76216">
        <ele>606.2485352</ele>
        <time>2012-01-25T13:12:14Z</time>
      </trkpt>
      <trkpt lat="43.45277" lon="5.76238">
        <ele>602.4030762</ele>
        <time>2012-01-25T13:12:22Z</time>
      </trkpt>
      <trkpt lat="43.4528" lon="5.76265">
        <ele>599.0385742</ele>
        <time>2012-01-25T13:12:30Z</time>
      </trkpt>
      <trkpt lat="43.45288" lon="5.76292">
        <ele>595.6740723</ele>
        <time>2012-01-25T13:12:38Z</time>
      </trkpt>
      <trkpt lat="43.45299" lon="5.76307">
        <ele>592.3095703</ele>
        <time>2012-01-25T13:12:45Z</time>
      </trkpt>
      <trkpt lat="43.45307" lon="5.76324">
        <ele>590.8674316</ele>
        <time>2012-01-25T13:12:51Z</time>
      </trkpt>
      <trkpt lat="43.45319" lon="5.76343">
        <ele>592.3095703</ele>
        <time>2012-01-25T13:12:58Z</time>
      </trkpt>
      <trkpt lat="43.45329" lon="5.76365">
        <ele>590.8674316</ele>
        <time>2012-01-25T13:13:05Z</time>
      </trkpt>
      <trkpt lat="43.45342" lon="5.76392">
        <ele>588.9450684</ele>
        <time>2012-01-25T13:13:14Z</time>
      </trkpt>
      <trkpt lat="43.45357" lon="5.76412">
        <ele>588.9450684</ele>
        <time>2012-01-25T13:13:22Z</time>
      </trkpt>
      <trkpt lat="43.45366" lon="5.76419">
        <ele>587.9833984</ele>
        <time>2012-01-25T13:13:28Z</time>
      </trkpt>
      <trkpt lat="43.45376" lon="5.76424">
        <ele>590.8674316</ele>
        <time>2012-01-25T13:13:36Z</time>
      </trkpt>
      <trkpt lat="43.45379" lon="5.76425">
        <ele>591.3481445</ele>
        <time>2012-01-25T13:13:41Z</time>
      </trkpt>
      <trkpt lat="43.4538" lon="5.76426">
        <ele>590.8674316</ele>
        <time>2012-01-25T13:13:51Z</time>
      </trkpt>
      <trkpt lat="43.45385" lon="5.76427">
        <ele>590.8674316</ele>
        <time>2012-01-25T13:14:07Z</time>
      </trkpt>
      <trkpt lat="43.45394" lon="5.76421">
        <ele>595.6740723</ele>
        <time>2012-01-25T13:14:15Z</time>
      </trkpt>
      <trkpt lat="43.45396" lon="5.76417">
        <ele>596.635498</ele>
        <time>2012-01-25T13:14:18Z</time>
      </trkpt>
      <trkpt lat="43.45399" lon="5.76414">
        <ele>600</ele>
        <time>2012-01-25T13:14:24Z</time>
      </trkpt>
      <trkpt lat="43.45404" lon="5.76412">
        <ele>603.8452148</ele>
        <time>2012-01-25T13:14:30Z</time>
      </trkpt>
      <trkpt lat="43.45407" lon="5.76409">
        <ele>607.2099609</ele>
        <time>2012-01-25T13:14:35Z</time>
      </trkpt>
      <trkpt lat="43.45408" lon="5.76406">
        <ele>611.0551758</ele>
        <time>2012-01-25T13:14:48Z</time>
      </trkpt>
      <trkpt lat="43.45407" lon="5.76401">
        <ele>609.1325684</ele>
        <time>2012-01-25T13:14:59Z</time>
      </trkpt>
      <trkpt lat="43.45406" lon="5.76397">
        <ele>607.6906738</ele>
        <time>2012-01-25T13:15:07Z</time>
      </trkpt>
      <trkpt lat="43.45407" lon="5.76391">
        <ele>608.1713867</ele>
        <time>2012-01-25T13:15:15Z</time>
      </trkpt>
      <trkpt lat="43.45407" lon="5.7639">
        <ele>609.1325684</ele>
        <time>2012-01-25T13:15:23Z</time>
      </trkpt>
      <trkpt lat="43.45405" lon="5.76391">
        <ele>607.2099609</ele>
        <time>2012-01-25T13:15:33Z</time>
      </trkpt>
      <trkpt lat="43.45404" lon="5.76393">
        <ele>604.8066406</ele>
        <time>2012-01-25T13:15:40Z</time>
      </trkpt>
      <trkpt lat="43.45407" lon="5.76392">
        <ele>607.6906738</ele>
        <time>2012-01-25T13:15:49Z</time>
      </trkpt>
      <trkpt lat="43.45407" lon="5.76395">
        <ele>606.2485352</ele>
        <time>2012-01-25T13:15:56Z</time>
      </trkpt>
      <trkpt lat="43.45407" lon="5.76398">
        <ele>609.1325684</ele>
        <time>2012-01-25T13:16:03Z</time>
      </trkpt>
      <trkpt lat="43.45408" lon="5.76397">
        <ele>610.09375</ele>
        <time>2012-01-25T13:16:04Z</time>
      </trkpt>
      <trkpt lat="43.45409" lon="5.76403">
        <ele>611.5358887</ele>
        <time>2012-01-25T13:16:14Z</time>
      </trkpt>
      <trkpt lat="43.45411" lon="5.76405">
        <ele>609.6132813</ele>
        <time>2012-01-25T13:16:17Z</time>
      </trkpt>
      <trkpt lat="43.45412" lon="5.76407">
        <ele>608.6518555</ele>
        <time>2012-01-25T13:16:23Z</time>
      </trkpt>
      <trkpt lat="43.45414" lon="5.76407">
        <ele>606.729248</ele>
        <time>2012-01-25T13:16:27Z</time>
      </trkpt>
      <trkpt lat="43.45419" lon="5.76399">
        <ele>608.6518555</ele>
        <time>2012-01-25T13:16:34Z</time>
      </trkpt>
      <trkpt lat="43.45421" lon="5.7639">
        <ele>610.09375</ele>
        <time>2012-01-25T13:16:40Z</time>
      </trkpt>
      <trkpt lat="43.45427" lon="5.7639">
        <ele>610.09375</ele>
        <time>2012-01-25T13:16:46Z</time>
      </trkpt>
      <trkpt lat="43.45429" lon="5.76391">
        <ele>608.6518555</ele>
        <time>2012-01-25T13:16:48Z</time>
      </trkpt>
      <trkpt lat="43.45436" lon="5.76391">
        <ele>606.729248</ele>
        <time>2012-01-25T13:16:54Z</time>
      </trkpt>
      <trkpt lat="43.45438" lon="5.76388">
        <ele>608.1713867</ele>
        <time>2012-01-25T13:16:57Z</time>
      </trkpt>
      <trkpt lat="43.45442" lon="5.76384">
        <ele>610.5744629</ele>
        <time>2012-01-25T13:17:07Z</time>
      </trkpt>
      <trkpt lat="43.45447" lon="5.76378">
        <ele>612.0166016</ele>
        <time>2012-01-25T13:17:14Z</time>
      </trkpt>
      <trkpt lat="43.45448" lon="5.76379">
        <ele>611.5358887</ele>
        <time>2012-01-25T13:17:15Z</time>
      </trkpt>
      <trkpt lat="43.45451" lon="5.76383">
        <ele>610.5744629</ele>
        <time>2012-01-25T13:17:19Z</time>
      </trkpt>
      <trkpt lat="43.4545" lon="5.76386">
        <ele>609.6132813</ele>
        <time>2012-01-25T13:17:26Z</time>
      </trkpt>
      <trkpt lat="43.4545" lon="5.76384">
        <ele>608.1713867</ele>
        <time>2012-01-25T13:17:33Z</time>
      </trkpt>
      <trkpt lat="43.45451" lon="5.76385">
        <ele>607.6906738</ele>
        <time>2012-01-25T13:17:40Z</time>
      </trkpt>
      <trkpt lat="43.45452" lon="5.76393">
        <ele>607.2099609</ele>
        <time>2012-01-25T13:17:46Z</time>
      </trkpt>
      <trkpt lat="43.45452" lon="5.7639">
        <ele>608.6518555</ele>
        <time>2012-01-25T13:17:59Z</time>
      </trkpt>
      <trkpt lat="43.45451" lon="5.76378">
        <ele>609.6132813</ele>
        <time>2012-01-25T13:18:06Z</time>
      </trkpt>
      <trkpt lat="43.45457" lon="5.76374">
        <ele>610.09375</ele>
        <time>2012-01-25T13:18:12Z</time>
      </trkpt>
      <trkpt lat="43.4546" lon="5.76374">
        <ele>609.6132813</ele>
        <time>2012-01-25T13:18:18Z</time>
      </trkpt>
      <trkpt lat="43.4546" lon="5.76369">
        <ele>611.5358887</ele>
        <time>2012-01-25T13:18:31Z</time>
      </trkpt>
      <trkpt lat="43.4546" lon="5.76369">
        <ele>612.9777832</ele>
        <time>2012-01-25T13:18:50Z</time>
      </trkpt>
      <trkpt lat="43.4546" lon="5.76371">
        <ele>610.5744629</ele>
        <time>2012-01-25T13:19:05Z</time>
      </trkpt>
      <trkpt lat="43.45458" lon="5.76374">
        <ele>610.09375</ele>
        <time>2012-01-25T13:19:11Z</time>
      </trkpt>
      <trkpt lat="43.45458" lon="5.76375">
        <ele>610.09375</ele>
        <time>2012-01-25T13:19:23Z</time>
      </trkpt>
      <trkpt lat="43.45453" lon="5.76376">
        <ele>608.6518555</ele>
        <time>2012-01-25T13:19:49Z</time>
      </trkpt>
      <trkpt lat="43.45449" lon="5.76366">
        <ele>608.6518555</ele>
        <time>2012-01-25T13:19:56Z</time>
      </trkpt>
      <trkpt lat="43.45449" lon="5.76365">
        <ele>608.6518555</ele>
        <time>2012-01-25T13:19:57Z</time>
      </trkpt>
      <trkpt lat="43.45449" lon="5.76366">
        <ele>609.6132813</ele>
        <time>2012-01-25T13:20:03Z</time>
      </trkpt>
      <trkpt lat="43.45449" lon="5.76368">
        <ele>610.09375</ele>
        <time>2012-01-25T13:20:10Z</time>
      </trkpt>
      <trkpt lat="43.45448" lon="5.76369">
        <ele>610.09375</ele>
        <time>2012-01-25T13:20:13Z</time>
      </trkpt>
      <trkpt lat="43.45444" lon="5.7637">
        <ele>609.6132813</ele>
        <time>2012-01-25T13:20:17Z</time>
      </trkpt>
      <trkpt lat="43.45443" lon="5.76369">
        <ele>609.1325684</ele>
        <time>2012-01-25T13:20:19Z</time>
      </trkpt>
      <trkpt lat="43.45442" lon="5.76369">
        <ele>610.09375</ele>
        <time>2012-01-25T13:20:28Z</time>
      </trkpt>
      <trkpt lat="43.45443" lon="5.76369">
        <ele>610.09375</ele>
        <time>2012-01-25T13:21:02Z</time>
      </trkpt>
      <trkpt lat="43.45439" lon="5.7637">
        <ele>609.6132813</ele>
        <time>2012-01-25T13:21:34Z</time>
      </trkpt>
      <trkpt lat="43.45437" lon="5.76374">
        <ele>609.6132813</ele>
        <time>2012-01-25T13:21:40Z</time>
      </trkpt>
      <trkpt lat="43.45434" lon="5.76373">
        <ele>606.729248</ele>
        <time>2012-01-25T13:21:51Z</time>
      </trkpt>
      <trkpt lat="43.45433" lon="5.76375">
        <ele>604.8066406</ele>
        <time>2012-01-25T13:21:57Z</time>
      </trkpt>
      <trkpt lat="43.4543" lon="5.76377">
        <ele>602.8837891</ele>
        <time>2012-01-25T13:22:02Z</time>
      </trkpt>
      <trkpt lat="43.45428" lon="5.76378">
        <ele>602.4030762</ele>
        <time>2012-01-25T13:22:04Z</time>
      </trkpt>
      <trkpt lat="43.45423" lon="5.76385">
        <ele>603.364502</ele>
        <time>2012-01-25T13:22:11Z</time>
      </trkpt>
      <trkpt lat="43.45422" lon="5.76386">
        <ele>602.8837891</ele>
        <time>2012-01-25T13:22:13Z</time>
      </trkpt>
      <trkpt lat="43.45421" lon="5.76391">
        <ele>602.8837891</ele>
        <time>2012-01-25T13:22:16Z</time>
      </trkpt>
      <trkpt lat="43.45421" lon="5.76399">
        <ele>602.8837891</ele>
        <time>2012-01-25T13:22:20Z</time>
      </trkpt>
      <trkpt lat="43.45418" lon="5.76404">
        <ele>601.9226074</ele>
        <time>2012-01-25T13:22:24Z</time>
      </trkpt>
      <trkpt lat="43.45417" lon="5.76407">
        <ele>601.4418945</ele>
        <time>2012-01-25T13:22:26Z</time>
      </trkpt>
      <trkpt lat="43.45412" lon="5.76409">
        <ele>600.4807129</ele>
        <time>2012-01-25T13:22:32Z</time>
      </trkpt>
      <trkpt lat="43.45409" lon="5.7641">
        <ele>599.0385742</ele>
        <time>2012-01-25T13:22:36Z</time>
      </trkpt>
      <trkpt lat="43.45403" lon="5.76411">
        <ele>593.270752</ele>
        <time>2012-01-25T13:22:44Z</time>
      </trkpt>
      <trkpt lat="43.45402" lon="5.76411">
        <ele>592.7902832</ele>
        <time>2012-01-25T13:22:45Z</time>
      </trkpt>
      <trkpt lat="43.45399" lon="5.76415">
        <ele>589.90625</ele>
        <time>2012-01-25T13:22:49Z</time>
      </trkpt>
      <trkpt lat="43.45395" lon="5.76418">
        <ele>587.9833984</ele>
        <time>2012-01-25T13:22:52Z</time>
      </trkpt>
      <trkpt lat="43.45391" lon="5.76431">
        <ele>588.9450684</ele>
        <time>2012-01-25T13:22:56Z</time>
      </trkpt>
      <trkpt lat="43.45386" lon="5.76458">
        <ele>588.4643555</ele>
        <time>2012-01-25T13:23:03Z</time>
      </trkpt>
      <trkpt lat="43.45383" lon="5.76478">
        <ele>588.4643555</ele>
        <time>2012-01-25T13:23:10Z</time>
      </trkpt>
      <trkpt lat="43.45379" lon="5.76494">
        <ele>586.5415039</ele>
        <time>2012-01-25T13:23:16Z</time>
      </trkpt>
      <trkpt lat="43.45378" lon="5.76514">
        <ele>585.0996094</ele>
        <time>2012-01-25T13:23:23Z</time>
      </trkpt>
      <trkpt lat="43.4538" lon="5.7653">
        <ele>584.1381836</ele>
        <time>2012-01-25T13:23:30Z</time>
      </trkpt>
      <trkpt lat="43.45386" lon="5.76547">
        <ele>582.6962891</ele>
        <time>2012-01-25T13:23:39Z</time>
      </trkpt>
      <trkpt lat="43.45391" lon="5.7656">
        <ele>581.2543945</ele>
        <time>2012-01-25T13:23:46Z</time>
      </trkpt>
      <trkpt lat="43.45394" lon="5.76578">
        <ele>582.6962891</ele>
        <time>2012-01-25T13:23:54Z</time>
      </trkpt>
      <trkpt lat="43.45394" lon="5.76598">
        <ele>581.2543945</ele>
        <time>2012-01-25T13:24:03Z</time>
      </trkpt>
      <trkpt lat="43.45393" lon="5.7662">
        <ele>580.7736816</ele>
        <time>2012-01-25T13:24:13Z</time>
      </trkpt>
      <trkpt lat="43.45392" lon="5.76637">
        <ele>581.2543945</ele>
        <time>2012-01-25T13:24:21Z</time>
      </trkpt>
      <trkpt lat="43.45388" lon="5.76661">
        <ele>582.2155762</ele>
        <time>2012-01-25T13:24:32Z</time>
      </trkpt>
      <trkpt lat="43.45387" lon="5.76676">
        <ele>582.2155762</ele>
        <time>2012-01-25T13:24:39Z</time>
      </trkpt>
      <trkpt lat="43.45385" lon="5.76692">
        <ele>582.2155762</ele>
        <time>2012-01-25T13:24:47Z</time>
      </trkpt>
      <trkpt lat="43.45384" lon="5.76708">
        <ele>581.7348633</ele>
        <time>2012-01-25T13:24:54Z</time>
      </trkpt>
      <trkpt lat="43.45387" lon="5.76727">
        <ele>580.2929688</ele>
        <time>2012-01-25T13:25:03Z</time>
      </trkpt>
      <trkpt lat="43.45393" lon="5.76737">
        <ele>580.2929688</ele>
        <time>2012-01-25T13:25:10Z</time>
      </trkpt>
      <trkpt lat="43.45398" lon="5.76742">
        <ele>580.2929688</ele>
        <time>2012-01-25T13:25:14Z</time>
      </trkpt>
      <trkpt lat="43.45398" lon="5.76742">
        <ele>580.2929688</ele>
        <time>2012-01-25T13:25:14Z</time>
      </trkpt>
      <trkpt lat="43.45403" lon="5.76745">
        <ele>580.2929688</ele>
        <time>2012-01-25T13:25:18Z</time>
      </trkpt>
      <trkpt lat="43.45411" lon="5.76755">
        <ele>583.1767578</ele>
        <time>2012-01-25T13:25:26Z</time>
      </trkpt>
      <trkpt lat="43.45411" lon="5.76764">
        <ele>585.0996094</ele>
        <time>2012-01-25T13:25:32Z</time>
      </trkpt>
      <trkpt lat="43.45408" lon="5.76778">
        <ele>589.4255371</ele>
        <time>2012-01-25T13:25:41Z</time>
      </trkpt>
      <trkpt lat="43.45406" lon="5.76791">
        <ele>592.3095703</ele>
        <time>2012-01-25T13:25:50Z</time>
      </trkpt>
      <trkpt lat="43.45403" lon="5.76805">
        <ele>593.7514648</ele>
        <time>2012-01-25T13:25:59Z</time>
      </trkpt>
      <trkpt lat="43.45404" lon="5.76818">
        <ele>596.1547852</ele>
        <time>2012-01-25T13:26:08Z</time>
      </trkpt>
      <trkpt lat="43.45409" lon="5.7683">
        <ele>596.1547852</ele>
        <time>2012-01-25T13:26:17Z</time>
      </trkpt>
      <trkpt lat="43.45418" lon="5.76835">
        <ele>598.0773926</ele>
        <time>2012-01-25T13:26:26Z</time>
      </trkpt>
      <trkpt lat="43.45423" lon="5.76843">
        <ele>600</ele>
        <time>2012-01-25T13:26:33Z</time>
      </trkpt>
      <trkpt lat="43.4543" lon="5.76852">
        <ele>602.4030762</ele>
        <time>2012-01-25T13:26:41Z</time>
      </trkpt>
      <trkpt lat="43.45434" lon="5.76858">
        <ele>605.7680664</ele>
        <time>2012-01-25T13:26:48Z</time>
      </trkpt>
      <trkpt lat="43.45437" lon="5.76868">
        <ele>606.2485352</ele>
        <time>2012-01-25T13:26:55Z</time>
      </trkpt>
      <trkpt lat="43.45441" lon="5.76877">
        <ele>607.6906738</ele>
        <time>2012-01-25T13:27:02Z</time>
      </trkpt>
      <trkpt lat="43.45444" lon="5.76888">
        <ele>606.2485352</ele>
        <time>2012-01-25T13:27:09Z</time>
      </trkpt>
      <trkpt lat="43.45445" lon="5.76902">
        <ele>604.3261719</ele>
        <time>2012-01-25T13:27:16Z</time>
      </trkpt>
      <trkpt lat="43.45441" lon="5.76917">
        <ele>601.4418945</ele>
        <time>2012-01-25T13:27:23Z</time>
      </trkpt>
      <trkpt lat="43.45434" lon="5.7693">
        <ele>597.5966797</ele>
        <time>2012-01-25T13:27:30Z</time>
      </trkpt>
      <trkpt lat="43.45427" lon="5.76943">
        <ele>596.635498</ele>
        <time>2012-01-25T13:27:38Z</time>
      </trkpt>
      <trkpt lat="43.45423" lon="5.7695">
        <ele>596.635498</ele>
        <time>2012-01-25T13:27:42Z</time>
      </trkpt>
      <trkpt lat="43.4542" lon="5.76957">
        <ele>596.635498</ele>
        <time>2012-01-25T13:27:46Z</time>
      </trkpt>
      <trkpt lat="43.45417" lon="5.76972">
        <ele>595.1933594</ele>
        <time>2012-01-25T13:27:54Z</time>
      </trkpt>
      <trkpt lat="43.45416" lon="5.76973">
        <ele>594.7126465</ele>
        <time>2012-01-25T13:27:55Z</time>
      </trkpt>
      <trkpt lat="43.45417" lon="5.76977">
        <ele>594.2321777</ele>
        <time>2012-01-25T13:27:57Z</time>
      </trkpt>
      <trkpt lat="43.45419" lon="5.76987">
        <ele>592.3095703</ele>
        <time>2012-01-25T13:28:04Z</time>
      </trkpt>
      <trkpt lat="43.45426" lon="5.76999">
        <ele>590.8674316</ele>
        <time>2012-01-25T13:28:13Z</time>
      </trkpt>
      <trkpt lat="43.45433" lon="5.77006">
        <ele>590.8674316</ele>
        <time>2012-01-25T13:28:19Z</time>
      </trkpt>
      <trkpt lat="43.45438" lon="5.77017">
        <ele>590.8674316</ele>
        <time>2012-01-25T13:28:26Z</time>
      </trkpt>
      <trkpt lat="43.45439" lon="5.77033">
        <ele>592.3095703</ele>
        <time>2012-01-25T13:28:34Z</time>
      </trkpt>
      <trkpt lat="43.45434" lon="5.77049">
        <ele>592.7902832</ele>
        <time>2012-01-25T13:28:43Z</time>
      </trkpt>
      <trkpt lat="43.45434" lon="5.77058">
        <ele>593.7514648</ele>
        <time>2012-01-25T13:28:48Z</time>
      </trkpt>
      <trkpt lat="43.45432" lon="5.77068">
        <ele>592.7902832</ele>
        <time>2012-01-25T13:28:53Z</time>
      </trkpt>
      <trkpt lat="43.45431" lon="5.77082">
        <ele>592.3095703</ele>
        <time>2012-01-25T13:29:00Z</time>
      </trkpt>
      <trkpt lat="43.45438" lon="5.77091">
        <ele>592.7902832</ele>
        <time>2012-01-25T13:29:07Z</time>
      </trkpt>
      <trkpt lat="43.45447" lon="5.77099">
        <ele>595.6740723</ele>
        <time>2012-01-25T13:29:15Z</time>
      </trkpt>
      <trkpt lat="43.45448" lon="5.77102">
        <ele>596.1547852</ele>
        <time>2012-01-25T13:29:17Z</time>
      </trkpt>
      <trkpt lat="43.45454" lon="5.77112">
        <ele>599.5192871</ele>
        <time>2012-01-25T13:29:26Z</time>
      </trkpt>
      <trkpt lat="43.45458" lon="5.77121">
        <ele>606.729248</ele>
        <time>2012-01-25T13:29:34Z</time>
      </trkpt>
      <trkpt lat="43.45458" lon="5.77128">
        <ele>608.1713867</ele>
        <time>2012-01-25T13:29:39Z</time>
      </trkpt>
      <trkpt lat="43.45456" lon="5.77139">
        <ele>607.6906738</ele>
        <time>2012-01-25T13:29:47Z</time>
      </trkpt>
      <trkpt lat="43.45455" lon="5.77141">
        <ele>608.1713867</ele>
        <time>2012-01-25T13:29:48Z</time>
      </trkpt>
      <trkpt lat="43.45457" lon="5.77154">
        <ele>611.0551758</ele>
        <time>2012-01-25T13:29:57Z</time>
      </trkpt>
      <trkpt lat="43.45462" lon="5.77164">
        <ele>614.4196777</ele>
        <time>2012-01-25T13:30:06Z</time>
      </trkpt>
      <trkpt lat="43.45466" lon="5.77172">
        <ele>617.3037109</ele>
        <time>2012-01-25T13:30:13Z</time>
      </trkpt>
      <trkpt lat="43.45474" lon="5.77175">
        <ele>619.7070313</ele>
        <time>2012-01-25T13:30:22Z</time>
      </trkpt>
      <trkpt lat="43.45482" lon="5.77178">
        <ele>623.0717773</ele>
        <time>2012-01-25T13:30:30Z</time>
      </trkpt>
      <trkpt lat="43.45492" lon="5.77184">
        <ele>623.0717773</ele>
        <time>2012-01-25T13:30:39Z</time>
      </trkpt>
      <trkpt lat="43.45495" lon="5.77188">
        <ele>623.0717773</ele>
        <time>2012-01-25T13:30:43Z</time>
      </trkpt>
      <trkpt lat="43.455" lon="5.77199">
        <ele>620.668457</ele>
        <time>2012-01-25T13:30:51Z</time>
      </trkpt>
      <trkpt lat="43.45501" lon="5.77201">
        <ele>620.668457</ele>
        <time>2012-01-25T13:30:52Z</time>
      </trkpt>
      <trkpt lat="43.455" lon="5.77209">
        <ele>619.7070313</ele>
        <time>2012-01-25T13:30:56Z</time>
      </trkpt>
      <trkpt lat="43.45499" lon="5.77219">
        <ele>622.1103516</ele>
        <time>2012-01-25T13:31:02Z</time>
      </trkpt>
      <trkpt lat="43.45495" lon="5.77232">
        <ele>623.5524902</ele>
        <time>2012-01-25T13:31:11Z</time>
      </trkpt>
      <trkpt lat="43.45492" lon="5.77248">
        <ele>627.3977051</ele>
        <time>2012-01-25T13:31:20Z</time>
      </trkpt>
      <trkpt lat="43.45493" lon="5.77261">
        <ele>628.8395996</ele>
        <time>2012-01-25T13:31:28Z</time>
      </trkpt>
      <trkpt lat="43.45498" lon="5.77272">
        <ele>632.6848145</ele>
        <time>2012-01-25T13:31:35Z</time>
      </trkpt>
      <trkpt lat="43.45499" lon="5.77273">
        <ele>633.1652832</ele>
        <time>2012-01-25T13:31:36Z</time>
      </trkpt>
      <trkpt lat="43.45499" lon="5.77282">
        <ele>634.6074219</ele>
        <time>2012-01-25T13:31:42Z</time>
      </trkpt>
      <trkpt lat="43.45501" lon="5.77295">
        <ele>635.0881348</ele>
        <time>2012-01-25T13:31:50Z</time>
      </trkpt>
      <trkpt lat="43.45502" lon="5.773">
        <ele>634.6074219</ele>
        <time>2012-01-25T13:31:53Z</time>
      </trkpt>
      <trkpt lat="43.45504" lon="5.77313">
        <ele>634.126709</ele>
        <time>2012-01-25T13:32:02Z</time>
      </trkpt>
      <trkpt lat="43.45508" lon="5.77325">
        <ele>639.8947754</ele>
        <time>2012-01-25T13:32:10Z</time>
      </trkpt>
      <trkpt lat="43.4551" lon="5.77335">
        <ele>640.855957</ele>
        <time>2012-01-25T13:32:17Z</time>
      </trkpt>
      <trkpt lat="43.45515" lon="5.77346">
        <ele>642.2980957</ele>
        <time>2012-01-25T13:32:25Z</time>
      </trkpt>
      <trkpt lat="43.45516" lon="5.77355">
        <ele>643.2592773</ele>
        <time>2012-01-25T13:32:31Z</time>
      </trkpt>
      <trkpt lat="43.45517" lon="5.77359">
        <ele>643.2592773</ele>
        <time>2012-01-25T13:32:34Z</time>
      </trkpt>
      <trkpt lat="43.4552" lon="5.77379">
        <ele>644.2207031</ele>
        <time>2012-01-25T13:32:44Z</time>
      </trkpt>
      <trkpt lat="43.4552" lon="5.77398">
        <ele>644.2207031</ele>
        <time>2012-01-25T13:32:53Z</time>
      </trkpt>
      <trkpt lat="43.45513" lon="5.77417">
        <ele>639.8947754</ele>
        <time>2012-01-25T13:33:02Z</time>
      </trkpt>
      <trkpt lat="43.45506" lon="5.77432">
        <ele>635.5686035</ele>
        <time>2012-01-25T13:33:10Z</time>
      </trkpt>
      <trkpt lat="43.455" lon="5.77448">
        <ele>633.6459961</ele>
        <time>2012-01-25T13:33:18Z</time>
      </trkpt>
      <trkpt lat="43.455" lon="5.77466">
        <ele>633.6459961</ele>
        <time>2012-01-25T13:33:26Z</time>
      </trkpt>
      <trkpt lat="43.45501" lon="5.77471">
        <ele>633.1652832</ele>
        <time>2012-01-25T13:33:29Z</time>
      </trkpt>
      <trkpt lat="43.45506" lon="5.77484">
        <ele>631.7233887</ele>
        <time>2012-01-25T13:33:37Z</time>
      </trkpt>
      <trkpt lat="43.45509" lon="5.77502">
        <ele>631.7233887</ele>
        <time>2012-01-25T13:33:46Z</time>
      </trkpt>
      <trkpt lat="43.45503" lon="5.77521">
        <ele>631.2429199</ele>
        <time>2012-01-25T13:33:55Z</time>
      </trkpt>
      <trkpt lat="43.45497" lon="5.77535">
        <ele>630.762207</ele>
        <time>2012-01-25T13:34:03Z</time>
      </trkpt>
      <trkpt lat="43.45496" lon="5.7754">
        <ele>630.2814941</ele>
        <time>2012-01-25T13:34:07Z</time>
      </trkpt>
      <trkpt lat="43.45497" lon="5.77551">
        <ele>630.2814941</ele>
        <time>2012-01-25T13:34:15Z</time>
      </trkpt>
      <trkpt lat="43.45496" lon="5.77555">
        <ele>629.8007813</ele>
        <time>2012-01-25T13:34:17Z</time>
      </trkpt>
      <trkpt lat="43.45496" lon="5.77561">
        <ele>629.8007813</ele>
        <time>2012-01-25T13:34:21Z</time>
      </trkpt>
      <trkpt lat="43.45499" lon="5.77577">
        <ele>630.762207</ele>
        <time>2012-01-25T13:34:30Z</time>
      </trkpt>
      <trkpt lat="43.45499" lon="5.77589">
        <ele>631.7233887</ele>
        <time>2012-01-25T13:34:37Z</time>
      </trkpt>
      <trkpt lat="43.455" lon="5.77599">
        <ele>634.6074219</ele>
        <time>2012-01-25T13:34:43Z</time>
      </trkpt>
      <trkpt lat="43.45499" lon="5.7761">
        <ele>636.5302734</ele>
        <time>2012-01-25T13:34:50Z</time>
      </trkpt>
      <trkpt lat="43.45499" lon="5.77612">
        <ele>637.0107422</ele>
        <time>2012-01-25T13:34:57Z</time>
      </trkpt>
      <trkpt lat="43.455" lon="5.77612">
        <ele>639.4140625</ele>
        <time>2012-01-25T13:35:18Z</time>
      </trkpt>
      <trkpt lat="43.45508" lon="5.77605">
        <ele>637.972168</ele>
        <time>2012-01-25T13:35:25Z</time>
      </trkpt>
      <trkpt lat="43.45509" lon="5.77605">
        <ele>637.972168</ele>
        <time>2012-01-25T13:35:26Z</time>
      </trkpt>
      <trkpt lat="43.45515" lon="5.77604">
        <ele>636.0495605</ele>
        <time>2012-01-25T13:35:31Z</time>
      </trkpt>
      <trkpt lat="43.45519" lon="5.77601">
        <ele>636.5302734</ele>
        <time>2012-01-25T13:35:34Z</time>
      </trkpt>
      <trkpt lat="43.45526" lon="5.77596">
        <ele>639.4140625</ele>
        <time>2012-01-25T13:35:43Z</time>
      </trkpt>
      <trkpt lat="43.45528" lon="5.77595">
        <ele>639.8947754</ele>
        <time>2012-01-25T13:35:46Z</time>
      </trkpt>
      <trkpt lat="43.45531" lon="5.77591">
        <ele>641.3366699</ele>
        <time>2012-01-25T13:35:50Z</time>
      </trkpt>
      <trkpt lat="43.45539" lon="5.77578">
        <ele>640.855957</ele>
        <time>2012-01-25T13:35:59Z</time>
      </trkpt>
      <trkpt lat="43.45548" lon="5.77572">
        <ele>641.3366699</ele>
        <time>2012-01-25T13:36:06Z</time>
      </trkpt>
      <trkpt lat="43.45559" lon="5.77566">
        <ele>640.3754883</ele>
        <time>2012-01-25T13:36:14Z</time>
      </trkpt>
      <trkpt lat="43.45572" lon="5.77557">
        <ele>640.855957</ele>
        <time>2012-01-25T13:36:24Z</time>
      </trkpt>
      <trkpt lat="43.45588" lon="5.77548">
        <ele>638.4528809</ele>
        <time>2012-01-25T13:36:35Z</time>
      </trkpt>
      <trkpt lat="43.45604" lon="5.77541">
        <ele>640.855957</ele>
        <time>2012-01-25T13:36:46Z</time>
      </trkpt>
      <trkpt lat="43.45618" lon="5.77533">
        <ele>639.8947754</ele>
        <time>2012-01-25T13:36:56Z</time>
      </trkpt>
      <trkpt lat="43.4563" lon="5.77531">
        <ele>637.0107422</ele>
        <time>2012-01-25T13:37:04Z</time>
      </trkpt>
      <trkpt lat="43.45643" lon="5.77529">
        <ele>634.6074219</ele>
        <time>2012-01-25T13:37:13Z</time>
      </trkpt>
      <trkpt lat="43.4566" lon="5.77531">
        <ele>630.2814941</ele>
        <time>2012-01-25T13:37:24Z</time>
      </trkpt>
      <trkpt lat="43.4566" lon="5.77531">
        <ele>630.2814941</ele>
        <time>2012-01-25T13:37:24Z</time>
      </trkpt>
      <trkpt lat="43.45671" lon="5.77539">
        <ele>627.8781738</ele>
        <time>2012-01-25T13:37:32Z</time>
      </trkpt>
      <trkpt lat="43.4568" lon="5.77546">
        <ele>625.9555664</ele>
        <time>2012-01-25T13:37:39Z</time>
      </trkpt>
      <trkpt lat="43.45696" lon="5.7756">
        <ele>621.6296387</ele>
        <time>2012-01-25T13:37:51Z</time>
      </trkpt>
      <trkpt lat="43.45706" lon="5.77574">
        <ele>620.1877441</ele>
        <time>2012-01-25T13:38:00Z</time>
      </trkpt>
      <trkpt lat="43.45713" lon="5.77588">
        <ele>622.1103516</ele>
        <time>2012-01-25T13:38:09Z</time>
      </trkpt>
      <trkpt lat="43.45721" lon="5.77604">
        <ele>622.5910645</ele>
        <time>2012-01-25T13:38:19Z</time>
      </trkpt>
      <trkpt lat="43.45726" lon="5.77619">
        <ele>621.6296387</ele>
        <time>2012-01-25T13:38:27Z</time>
      </trkpt>
      <trkpt lat="43.4573" lon="5.77633">
        <ele>620.668457</ele>
        <time>2012-01-25T13:38:34Z</time>
      </trkpt>
      <trkpt lat="43.45735" lon="5.77643">
        <ele>621.6296387</ele>
        <time>2012-01-25T13:38:40Z</time>
      </trkpt>
      <trkpt lat="43.45743" lon="5.7765">
        <ele>621.1491699</ele>
        <time>2012-01-25T13:38:47Z</time>
      </trkpt>
      <trkpt lat="43.45754" lon="5.77647">
        <ele>619.7070313</ele>
        <time>2012-01-25T13:38:54Z</time>
      </trkpt>
      <trkpt lat="43.45761" lon="5.77635">
        <ele>618.7456055</ele>
        <time>2012-01-25T13:39:02Z</time>
      </trkpt>
      <trkpt lat="43.45768" lon="5.77617">
        <ele>615.3811035</ele>
        <time>2012-01-25T13:39:12Z</time>
      </trkpt>
      <trkpt lat="43.45773" lon="5.776">
        <ele>612.4970703</ele>
        <time>2012-01-25T13:39:21Z</time>
      </trkpt>
      <trkpt lat="43.45779" lon="5.77581">
        <ele>612.0166016</ele>
        <time>2012-01-25T13:39:30Z</time>
      </trkpt>
      <trkpt lat="43.45782" lon="5.77564">
        <ele>612.9777832</ele>
        <time>2012-01-25T13:39:38Z</time>
      </trkpt>
      <trkpt lat="43.45786" lon="5.77549">
        <ele>612.0166016</ele>
        <time>2012-01-25T13:39:45Z</time>
      </trkpt>
      <trkpt lat="43.45792" lon="5.77533">
        <ele>609.1325684</ele>
        <time>2012-01-25T13:39:54Z</time>
      </trkpt>
      <trkpt lat="43.45801" lon="5.77521">
        <ele>609.6132813</ele>
        <time>2012-01-25T13:40:02Z</time>
      </trkpt>
      <trkpt lat="43.45814" lon="5.77502">
        <ele>608.1713867</ele>
        <time>2012-01-25T13:40:14Z</time>
      </trkpt>
      <trkpt lat="43.45823" lon="5.77487">
        <ele>606.2485352</ele>
        <time>2012-01-25T13:40:23Z</time>
      </trkpt>
      <trkpt lat="43.4583" lon="5.77474">
        <ele>604.3261719</ele>
        <time>2012-01-25T13:40:31Z</time>
      </trkpt>
      <trkpt lat="43.45838" lon="5.77458">
        <ele>603.364502</ele>
        <time>2012-01-25T13:40:40Z</time>
      </trkpt>
      <trkpt lat="43.45847" lon="5.77443">
        <ele>602.8837891</ele>
        <time>2012-01-25T13:40:49Z</time>
      </trkpt>
      <trkpt lat="43.45855" lon="5.77423">
        <ele>601.9226074</ele>
        <time>2012-01-25T13:40:59Z</time>
      </trkpt>
      <trkpt lat="43.45861" lon="5.77401">
        <ele>601.4418945</ele>
        <time>2012-01-25T13:41:09Z</time>
      </trkpt>
      <trkpt lat="43.45863" lon="5.77381">
        <ele>600.4807129</ele>
        <time>2012-01-25T13:41:18Z</time>
      </trkpt>
      <trkpt lat="43.45865" lon="5.77361">
        <ele>599.0385742</ele>
        <time>2012-01-25T13:41:27Z</time>
      </trkpt>
      <trkpt lat="43.45865" lon="5.77341">
        <ele>597.1159668</ele>
        <time>2012-01-25T13:41:36Z</time>
      </trkpt>
      <trkpt lat="43.45865" lon="5.77319">
        <ele>595.6740723</ele>
        <time>2012-01-25T13:41:46Z</time>
      </trkpt>
      <trkpt lat="43.45865" lon="5.77292">
        <ele>594.2321777</ele>
        <time>2012-01-25T13:41:58Z</time>
      </trkpt>
      <trkpt lat="43.45864" lon="5.77272">
        <ele>592.7902832</ele>
        <time>2012-01-25T13:42:07Z</time>
      </trkpt>
      <trkpt lat="43.45862" lon="5.77252">
        <ele>591.8288574</ele>
        <time>2012-01-25T13:42:16Z</time>
      </trkpt>
      <trkpt lat="43.45862" lon="5.7723">
        <ele>590.8674316</ele>
        <time>2012-01-25T13:42:26Z</time>
      </trkpt>
      <trkpt lat="43.45862" lon="5.77209">
        <ele>589.4255371</ele>
        <time>2012-01-25T13:42:35Z</time>
      </trkpt>
      <trkpt lat="43.45864" lon="5.77191">
        <ele>588.4643555</ele>
        <time>2012-01-25T13:42:43Z</time>
      </trkpt>
      <trkpt lat="43.45868" lon="5.77175">
        <ele>587.5026855</ele>
        <time>2012-01-25T13:42:51Z</time>
      </trkpt>
      <trkpt lat="43.45876" lon="5.77161">
        <ele>586.5415039</ele>
        <time>2012-01-25T13:42:59Z</time>
      </trkpt>
      <trkpt lat="43.45886" lon="5.77147">
        <ele>586.060791</ele>
        <time>2012-01-25T13:43:08Z</time>
      </trkpt>
      <trkpt lat="43.45895" lon="5.77132">
        <ele>584.6188965</ele>
        <time>2012-01-25T13:43:17Z</time>
      </trkpt>
      <trkpt lat="43.45908" lon="5.77122">
        <ele>582.6962891</ele>
        <time>2012-01-25T13:43:27Z</time>
      </trkpt>
      <trkpt lat="43.4591" lon="5.77123">
        <ele>582.2155762</ele>
        <time>2012-01-25T13:43:28Z</time>
      </trkpt>
      <trkpt lat="43.45917" lon="5.7714">
        <ele>579.8122559</ele>
        <time>2012-01-25T13:43:37Z</time>
      </trkpt>
      <trkpt lat="43.45922" lon="5.77156">
        <ele>577.8896484</ele>
        <time>2012-01-25T13:43:45Z</time>
      </trkpt>
      <trkpt lat="43.45925" lon="5.77169">
        <ele>575.967041</ele>
        <time>2012-01-25T13:43:51Z</time>
      </trkpt>
      <trkpt lat="43.45932" lon="5.77188">
        <ele>574.5251465</ele>
        <time>2012-01-25T13:44:01Z</time>
      </trkpt>
      <trkpt lat="43.45936" lon="5.77201">
        <ele>573.083252</ele>
        <time>2012-01-25T13:44:08Z</time>
      </trkpt>
      <trkpt lat="43.45942" lon="5.77215">
        <ele>572.1218262</ele>
        <time>2012-01-25T13:44:15Z</time>
      </trkpt>
      <trkpt lat="43.45946" lon="5.77227">
        <ele>571.6408691</ele>
        <time>2012-01-25T13:44:21Z</time>
      </trkpt>
      <trkpt lat="43.45951" lon="5.77238">
        <ele>571.1604004</ele>
        <time>2012-01-25T13:44:27Z</time>
      </trkpt>
      <trkpt lat="43.45958" lon="5.77252">
        <ele>569.7185059</ele>
        <time>2012-01-25T13:44:34Z</time>
      </trkpt>
      <trkpt lat="43.45963" lon="5.77268">
        <ele>568.7570801</ele>
        <time>2012-01-25T13:44:42Z</time>
      </trkpt>
      <trkpt lat="43.45969" lon="5.77282">
        <ele>569.237793</ele>
        <time>2012-01-25T13:44:49Z</time>
      </trkpt>
      <trkpt lat="43.45977" lon="5.77296">
        <ele>567.7956543</ele>
        <time>2012-01-25T13:44:57Z</time>
      </trkpt>
      <trkpt lat="43.45988" lon="5.77315">
        <ele>566.8344727</ele>
        <time>2012-01-25T13:45:08Z</time>
      </trkpt>
      <trkpt lat="43.45995" lon="5.77326">
        <ele>567.3151855</ele>
        <time>2012-01-25T13:45:15Z</time>
      </trkpt>
      <trkpt lat="43.45999" lon="5.77341">
        <ele>564.9118652</ele>
        <time>2012-01-25T13:45:22Z</time>
      </trkpt>
      <trkpt lat="43.46002" lon="5.77357">
        <ele>562.5085449</ele>
        <time>2012-01-25T13:45:30Z</time>
      </trkpt>
      <trkpt lat="43.46002" lon="5.77361">
        <ele>561.0666504</ele>
        <time>2012-01-25T13:45:32Z</time>
      </trkpt>
      <trkpt lat="43.46004" lon="5.77374">
        <ele>557.2214355</ele>
        <time>2012-01-25T13:45:39Z</time>
      </trkpt>
      <trkpt lat="43.46013" lon="5.7739">
        <ele>558.6633301</ele>
        <time>2012-01-25T13:45:47Z</time>
      </trkpt>
      <trkpt lat="43.46023" lon="5.77407">
        <ele>559.144043</ele>
        <time>2012-01-25T13:45:56Z</time>
      </trkpt>
      <trkpt lat="43.46033" lon="5.77419">
        <ele>559.144043</ele>
        <time>2012-01-25T13:46:04Z</time>
      </trkpt>
      <trkpt lat="43.46046" lon="5.7743">
        <ele>557.7021484</ele>
        <time>2012-01-25T13:46:13Z</time>
      </trkpt>
      <trkpt lat="43.46057" lon="5.77441">
        <ele>556.7407227</ele>
        <time>2012-01-25T13:46:21Z</time>
      </trkpt>
      <trkpt lat="43.46065" lon="5.77453">
        <ele>556.7407227</ele>
        <time>2012-01-25T13:46:29Z</time>
      </trkpt>
      <trkpt lat="43.46072" lon="5.77469">
        <ele>555.298584</ele>
        <time>2012-01-25T13:46:38Z</time>
      </trkpt>
      <trkpt lat="43.46079" lon="5.77479">
        <ele>555.298584</ele>
        <time>2012-01-25T13:46:44Z</time>
      </trkpt>
      <trkpt lat="43.4609" lon="5.77486">
        <ele>556.2600098</ele>
        <time>2012-01-25T13:46:52Z</time>
      </trkpt>
      <trkpt lat="43.46092" lon="5.77486">
        <ele>556.2600098</ele>
        <time>2012-01-25T13:46:53Z</time>
      </trkpt>
      <trkpt lat="43.46092" lon="5.77486">
        <ele>556.2600098</ele>
        <time>2012-01-25T13:46:53Z</time>
      </trkpt>
      <trkpt lat="43.46104" lon="5.77486">
        <ele>555.298584</ele>
        <time>2012-01-25T13:47:01Z</time>
      </trkpt>
      <trkpt lat="43.46119" lon="5.77487">
        <ele>552.8952637</ele>
        <time>2012-01-25T13:47:10Z</time>
      </trkpt>
      <trkpt lat="43.46134" lon="5.77491">
        <ele>550.0114746</ele>
        <time>2012-01-25T13:47:19Z</time>
      </trkpt>
      <trkpt lat="43.46144" lon="5.775">
        <ele>548.5693359</ele>
        <time>2012-01-25T13:47:27Z</time>
      </trkpt>
      <trkpt lat="43.46149" lon="5.77514">
        <ele>548.0888672</ele>
        <time>2012-01-25T13:47:35Z</time>
      </trkpt>
      <trkpt lat="43.4615" lon="5.77529">
        <ele>547.1274414</ele>
        <time>2012-01-25T13:47:43Z</time>
      </trkpt>
      <trkpt lat="43.46156" lon="5.77546">
        <ele>545.6855469</ele>
        <time>2012-01-25T13:47:53Z</time>
      </trkpt>
      <trkpt lat="43.46157" lon="5.77554">
        <ele>543.7628174</ele>
        <time>2012-01-25T13:48:02Z</time>
      </trkpt>
      <trkpt lat="43.46158" lon="5.7756">
        <ele>547.6081543</ele>
        <time>2012-01-25T13:49:08Z</time>
      </trkpt>
      <trkpt lat="43.46154" lon="5.77574">
        <ele>545.6855469</ele>
        <time>2012-01-25T13:49:16Z</time>
      </trkpt>
      <trkpt lat="43.46151" lon="5.7759">
        <ele>544.7242432</ele>
        <time>2012-01-25T13:49:24Z</time>
      </trkpt>
      <trkpt lat="43.46147" lon="5.77606">
        <ele>542.3209229</ele>
        <time>2012-01-25T13:49:32Z</time>
      </trkpt>
      <trkpt lat="43.46147" lon="5.77623">
        <ele>541.3594971</ele>
        <time>2012-01-25T13:49:40Z</time>
      </trkpt>
      <trkpt lat="43.46149" lon="5.77638">
        <ele>540.8789063</ele>
        <time>2012-01-25T13:49:47Z</time>
      </trkpt>
      <trkpt lat="43.4615" lon="5.77654">
        <ele>540.3983154</ele>
        <time>2012-01-25T13:49:54Z</time>
      </trkpt>
      <trkpt lat="43.46148" lon="5.77669">
        <ele>540.3983154</ele>
        <time>2012-01-25T13:50:01Z</time>
      </trkpt>
      <trkpt lat="43.46144" lon="5.77684">
        <ele>539.9176025</ele>
        <time>2012-01-25T13:50:09Z</time>
      </trkpt>
      <trkpt lat="43.46139" lon="5.777">
        <ele>539.4368896</ele>
        <time>2012-01-25T13:50:17Z</time>
      </trkpt>
      <trkpt lat="43.46134" lon="5.77714">
        <ele>537.5142822</ele>
        <time>2012-01-25T13:50:24Z</time>
      </trkpt>
      <trkpt lat="43.46133" lon="5.77732">
        <ele>536.0723877</ele>
        <time>2012-01-25T13:50:32Z</time>
      </trkpt>
      <trkpt lat="43.46135" lon="5.77748">
        <ele>534.1496582</ele>
        <time>2012-01-25T13:50:39Z</time>
      </trkpt>
      <trkpt lat="43.46136" lon="5.77764">
        <ele>533.1883545</ele>
        <time>2012-01-25T13:50:46Z</time>
      </trkpt>
      <trkpt lat="43.46134" lon="5.77782">
        <ele>531.2657471</ele>
        <time>2012-01-25T13:50:54Z</time>
      </trkpt>
      <trkpt lat="43.4613" lon="5.778">
        <ele>528.3818359</ele>
        <time>2012-01-25T13:51:03Z</time>
      </trkpt>
      <trkpt lat="43.46132" lon="5.77816">
        <ele>527.901001</ele>
        <time>2012-01-25T13:51:10Z</time>
      </trkpt>
      <trkpt lat="43.46135" lon="5.77834">
        <ele>530.3044434</ele>
        <time>2012-01-25T13:51:17Z</time>
      </trkpt>
      <trkpt lat="43.46136" lon="5.7785">
        <ele>531.7463379</ele>
        <time>2012-01-25T13:51:24Z</time>
      </trkpt>
      <trkpt lat="43.46133" lon="5.77864">
        <ele>532.2270508</ele>
        <time>2012-01-25T13:51:31Z</time>
      </trkpt>
      <trkpt lat="43.46129" lon="5.77876">
        <ele>532.2270508</ele>
        <time>2012-01-25T13:51:37Z</time>
      </trkpt>
      <trkpt lat="43.46131" lon="5.7789">
        <ele>534.1496582</ele>
        <time>2012-01-25T13:51:44Z</time>
      </trkpt>
      <trkpt lat="43.46136" lon="5.77906">
        <ele>533.6689453</ele>
        <time>2012-01-25T13:51:52Z</time>
      </trkpt>
      <trkpt lat="43.46138" lon="5.7792">
        <ele>532.2270508</ele>
        <time>2012-01-25T13:51:59Z</time>
      </trkpt>
      <trkpt lat="43.46138" lon="5.77938">
        <ele>531.2657471</ele>
        <time>2012-01-25T13:52:07Z</time>
      </trkpt>
      <trkpt lat="43.46135" lon="5.77952">
        <ele>530.7851563</ele>
        <time>2012-01-25T13:52:14Z</time>
      </trkpt>
      <trkpt lat="43.46127" lon="5.77968">
        <ele>530.3044434</ele>
        <time>2012-01-25T13:52:23Z</time>
      </trkpt>
      <trkpt lat="43.46121" lon="5.77979">
        <ele>529.8237305</ele>
        <time>2012-01-25T13:52:30Z</time>
      </trkpt>
      <trkpt lat="43.46116" lon="5.77992">
        <ele>530.3044434</ele>
        <time>2012-01-25T13:52:37Z</time>
      </trkpt>
      <trkpt lat="43.46112" lon="5.7801">
        <ele>531.2657471</ele>
        <time>2012-01-25T13:52:45Z</time>
      </trkpt>
      <trkpt lat="43.46109" lon="5.78025">
        <ele>530.3044434</ele>
        <time>2012-01-25T13:52:52Z</time>
      </trkpt>
      <trkpt lat="43.46108" lon="5.78041">
        <ele>530.3044434</ele>
        <time>2012-01-25T13:52:59Z</time>
      </trkpt>
      <trkpt lat="43.46106" lon="5.78056">
        <ele>530.3044434</ele>
        <time>2012-01-25T13:53:06Z</time>
      </trkpt>
      <trkpt lat="43.46103" lon="5.78074">
        <ele>529.3431396</ele>
        <time>2012-01-25T13:53:14Z</time>
      </trkpt>
      <trkpt lat="43.46098" lon="5.78091">
        <ele>527.4204102</ele>
        <time>2012-01-25T13:53:22Z</time>
      </trkpt>
      <trkpt lat="43.46094" lon="5.78109">
        <ele>526.4591064</ele>
        <time>2012-01-25T13:53:30Z</time>
      </trkpt>
      <trkpt lat="43.46093" lon="5.78124">
        <ele>526.4591064</ele>
        <time>2012-01-25T13:53:37Z</time>
      </trkpt>
      <trkpt lat="43.46091" lon="5.78139">
        <ele>525.4978027</ele>
        <time>2012-01-25T13:53:44Z</time>
      </trkpt>
      <trkpt lat="43.46089" lon="5.78152">
        <ele>524.0557861</ele>
        <time>2012-01-25T13:53:50Z</time>
      </trkpt>
      <trkpt lat="43.46086" lon="5.78172">
        <ele>523.5751953</ele>
        <time>2012-01-25T13:53:59Z</time>
      </trkpt>
      <trkpt lat="43.46081" lon="5.78192">
        <ele>523.0946045</ele>
        <time>2012-01-25T13:54:08Z</time>
      </trkpt>
      <trkpt lat="43.46079" lon="5.78214">
        <ele>522.1331787</ele>
        <time>2012-01-25T13:54:18Z</time>
      </trkpt>
      <trkpt lat="43.46075" lon="5.78234">
        <ele>521.1719971</ele>
        <time>2012-01-25T13:54:27Z</time>
      </trkpt>
      <trkpt lat="43.46071" lon="5.78255">
        <ele>520.2105713</ele>
        <time>2012-01-25T13:54:37Z</time>
      </trkpt>
      <trkpt lat="43.4607" lon="5.78274">
        <ele>519.7298584</ele>
        <time>2012-01-25T13:54:45Z</time>
      </trkpt>
      <trkpt lat="43.46069" lon="5.7829">
        <ele>519.7298584</ele>
        <time>2012-01-25T13:54:52Z</time>
      </trkpt>
      <trkpt lat="43.46062" lon="5.78304">
        <ele>517.3266602</ele>
        <time>2012-01-25T13:54:59Z</time>
      </trkpt>
      <trkpt lat="43.46053" lon="5.78316">
        <ele>514.9233398</ele>
        <time>2012-01-25T13:55:07Z</time>
      </trkpt>
      <trkpt lat="43.46049" lon="5.78328">
        <ele>514.442627</ele>
        <time>2012-01-25T13:55:15Z</time>
      </trkpt>
      <trkpt lat="43.4605" lon="5.78329">
        <ele>514.9233398</ele>
        <time>2012-01-25T13:55:17Z</time>
      </trkpt>
      <trkpt lat="43.46056" lon="5.78329">
        <ele>513.9620361</ele>
        <time>2012-01-25T13:55:23Z</time>
      </trkpt>
      <trkpt lat="43.46069" lon="5.78324">
        <ele>509.1553955</ele>
        <time>2012-01-25T13:55:33Z</time>
      </trkpt>
      <trkpt lat="43.46079" lon="5.7832">
        <ele>507.713501</ele>
        <time>2012-01-25T13:55:41Z</time>
      </trkpt>
      <trkpt lat="43.4609" lon="5.78313">
        <ele>505.7908936</ele>
        <time>2012-01-25T13:55:49Z</time>
      </trkpt>
      <trkpt lat="43.46094" lon="5.783">
        <ele>503.3874512</ele>
        <time>2012-01-25T13:55:55Z</time>
      </trkpt>
      <trkpt lat="43.46101" lon="5.78283">
        <ele>500.9841309</ele>
        <time>2012-01-25T13:56:02Z</time>
      </trkpt>
      <trkpt lat="43.46109" lon="5.78269">
        <ele>497.6196289</ele>
        <time>2012-01-25T13:56:10Z</time>
      </trkpt>
      <trkpt lat="43.46117" lon="5.78258">
        <ele>495.6968994</ele>
        <time>2012-01-25T13:56:16Z</time>
      </trkpt>
      <trkpt lat="43.46121" lon="5.78252">
        <ele>495.2161865</ele>
        <time>2012-01-25T13:56:19Z</time>
      </trkpt>
      <trkpt lat="43.46133" lon="5.7824">
        <ele>493.2935791</ele>
        <time>2012-01-25T13:56:26Z</time>
      </trkpt>
      <trkpt lat="43.46142" lon="5.78241">
        <ele>490.40979</ele>
        <time>2012-01-25T13:56:31Z</time>
      </trkpt>
      <trkpt lat="43.46153" lon="5.78245">
        <ele>487.5256348</ele>
        <time>2012-01-25T13:56:37Z</time>
      </trkpt>
      <trkpt lat="43.46163" lon="5.78249">
        <ele>484.6418457</ele>
        <time>2012-01-25T13:56:42Z</time>
      </trkpt>
      <trkpt lat="43.4617" lon="5.7826">
        <ele>483.1998291</ele>
        <time>2012-01-25T13:56:48Z</time>
      </trkpt>
      <trkpt lat="43.46173" lon="5.78278">
        <ele>481.7578125</ele>
        <time>2012-01-25T13:56:54Z</time>
      </trkpt>
      <trkpt lat="43.46176" lon="5.78289">
        <ele>479.835083</ele>
        <time>2012-01-25T13:56:58Z</time>
      </trkpt>
      <trkpt lat="43.46179" lon="5.78292">
        <ele>478.3931885</ele>
        <time>2012-01-25T13:57:00Z</time>
      </trkpt>
      <trkpt lat="43.46188" lon="5.78293">
        <ele>476.4705811</ele>
        <time>2012-01-25T13:57:05Z</time>
      </trkpt>
      <trkpt lat="43.46204" lon="5.78297">
        <ele>473.5866699</ele>
        <time>2012-01-25T13:57:13Z</time>
      </trkpt>
      <trkpt lat="43.46207" lon="5.78303">
        <ele>472.6253662</ele>
        <time>2012-01-25T13:57:16Z</time>
      </trkpt>
      <trkpt lat="43.46207" lon="5.78303">
        <ele>472.6253662</ele>
        <time>2012-01-25T13:57:16Z</time>
      </trkpt>
      <trkpt lat="43.4621" lon="5.78306">
        <ele>472.1446533</ele>
        <time>2012-01-25T13:57:18Z</time>
      </trkpt>
      <trkpt lat="43.46216" lon="5.78303">
        <ele>469.741333</ele>
        <time>2012-01-25T13:57:22Z</time>
      </trkpt>
      <trkpt lat="43.46222" lon="5.78283">
        <ele>464.4541016</ele>
        <time>2012-01-25T13:57:30Z</time>
      </trkpt>
      <trkpt lat="43.46227" lon="5.78271">
        <ele>461.0894775</ele>
        <time>2012-01-25T13:57:35Z</time>
      </trkpt>
      <trkpt lat="43.46237" lon="5.78259">
        <ele>458.2055664</ele>
        <time>2012-01-25T13:57:41Z</time>
      </trkpt>
      <trkpt lat="43.46251" lon="5.78246">
        <ele>456.282959</ele>
        <time>2012-01-25T13:57:48Z</time>
      </trkpt>
      <trkpt lat="43.4626" lon="5.78242">
        <ele>454.3602295</ele>
        <time>2012-01-25T13:57:53Z</time>
      </trkpt>
      <trkpt lat="43.46263" lon="5.78252">
        <ele>457.2442627</ele>
        <time>2012-01-25T13:57:58Z</time>
      </trkpt>
      <trkpt lat="43.46258" lon="5.78266">
        <ele>456.282959</ele>
        <time>2012-01-25T13:58:04Z</time>
      </trkpt>
      <trkpt lat="43.46258" lon="5.78268">
        <ele>456.282959</ele>
        <time>2012-01-25T13:58:05Z</time>
      </trkpt>
      <trkpt lat="43.46259" lon="5.78287">
        <ele>453.8796387</ele>
        <time>2012-01-25T13:58:13Z</time>
      </trkpt>
      <trkpt lat="43.46263" lon="5.78304">
        <ele>451.9570313</ele>
        <time>2012-01-25T13:58:20Z</time>
      </trkpt>
      <trkpt lat="43.46267" lon="5.78319">
        <ele>448.1118164</ele>
        <time>2012-01-25T13:58:27Z</time>
      </trkpt>
      <trkpt lat="43.46269" lon="5.78328">
        <ele>446.1890869</ele>
        <time>2012-01-25T13:58:32Z</time>
      </trkpt>
      <trkpt lat="43.46268" lon="5.78337">
        <ele>444.7470703</ele>
        <time>2012-01-25T13:58:36Z</time>
      </trkpt>
      <trkpt lat="43.46273" lon="5.78346">
        <ele>443.7857666</ele>
        <time>2012-01-25T13:58:41Z</time>
      </trkpt>
      <trkpt lat="43.46276" lon="5.78344">
        <ele>443.3050537</ele>
        <time>2012-01-25T13:58:43Z</time>
      </trkpt>
      <trkpt lat="43.46285" lon="5.7833">
        <ele>439.4597168</ele>
        <time>2012-01-25T13:58:52Z</time>
      </trkpt>
      <trkpt lat="43.46294" lon="5.78318">
        <ele>436.5759277</ele>
        <time>2012-01-25T13:58:59Z</time>
      </trkpt>
      <trkpt lat="43.46307" lon="5.78309">
        <ele>435.1339111</ele>
        <time>2012-01-25T13:59:07Z</time>
      </trkpt>
      <trkpt lat="43.46312" lon="5.78311">
        <ele>434.1726074</ele>
        <time>2012-01-25T13:59:10Z</time>
      </trkpt>
      <trkpt lat="43.46326" lon="5.78312">
        <ele>432.25</ele>
        <time>2012-01-25T13:59:17Z</time>
      </trkpt>
      <trkpt lat="43.46337" lon="5.78309">
        <ele>432.7307129</ele>
        <time>2012-01-25T13:59:24Z</time>
      </trkpt>
      <trkpt lat="43.46347" lon="5.78308">
        <ele>433.6918945</ele>
        <time>2012-01-25T13:59:31Z</time>
      </trkpt>
      <trkpt lat="43.46351" lon="5.78306">
        <ele>434.1726074</ele>
        <time>2012-01-25T13:59:36Z</time>
      </trkpt>
      <trkpt lat="43.46358" lon="5.78307">
        <ele>432.7307129</ele>
        <time>2012-01-25T13:59:41Z</time>
      </trkpt>
      <trkpt lat="43.4637" lon="5.78314">
        <ele>428.885376</ele>
        <time>2012-01-25T13:59:47Z</time>
      </trkpt>
      <trkpt lat="43.46381" lon="5.78317">
        <ele>426.0013428</ele>
        <time>2012-01-25T13:59:54Z</time>
      </trkpt>
      <trkpt lat="43.46394" lon="5.78321">
        <ele>423.1174316</ele>
        <time>2012-01-25T14:00:02Z</time>
      </trkpt>
      <trkpt lat="43.46409" lon="5.7833">
        <ele>419.7528076</ele>
        <time>2012-01-25T14:00:11Z</time>
      </trkpt>
      <trkpt lat="43.46422" lon="5.78332">
        <ele>417.3496094</ele>
        <time>2012-01-25T14:00:18Z</time>
      </trkpt>
      <trkpt lat="43.46436" lon="5.78335">
        <ele>414.946167</ele>
        <time>2012-01-25T14:00:26Z</time>
      </trkpt>
      <trkpt lat="43.46444" lon="5.78343">
        <ele>414.4654541</ele>
        <time>2012-01-25T14:00:32Z</time>
      </trkpt>
      <trkpt lat="43.46444" lon="5.78347">
        <ele>414.4654541</ele>
        <time>2012-01-25T14:00:34Z</time>
      </trkpt>
      <trkpt lat="43.46439" lon="5.7836">
        <ele>414.4654541</ele>
        <time>2012-01-25T14:00:41Z</time>
      </trkpt>
      <trkpt lat="43.46429" lon="5.78368">
        <ele>413.5042725</ele>
        <time>2012-01-25T14:00:49Z</time>
      </trkpt>
      <trkpt lat="43.46417" lon="5.78372">
        <ele>409.6590576</ele>
        <time>2012-01-25T14:00:58Z</time>
      </trkpt>
      <trkpt lat="43.46411" lon="5.7838">
        <ele>407.2556152</ele>
        <time>2012-01-25T14:01:03Z</time>
      </trkpt>
      <trkpt lat="43.46415" lon="5.7839">
        <ele>406.2943115</ele>
        <time>2012-01-25T14:01:08Z</time>
      </trkpt>
      <trkpt lat="43.46427" lon="5.78396">
        <ele>402.4490967</ele>
        <time>2012-01-25T14:01:17Z</time>
      </trkpt>
      <trkpt lat="43.46442" lon="5.78396">
        <ele>400.0458984</ele>
        <time>2012-01-25T14:01:27Z</time>
      </trkpt>
      <trkpt lat="43.46458" lon="5.7839">
        <ele>396.2005615</ele>
        <time>2012-01-25T14:01:37Z</time>
      </trkpt>
      <trkpt lat="43.46476" lon="5.78383">
        <ele>395.2391357</ele>
        <time>2012-01-25T14:01:48Z</time>
      </trkpt>
      <trkpt lat="43.46491" lon="5.78376">
        <ele>395.2391357</ele>
        <time>2012-01-25T14:01:57Z</time>
      </trkpt>
      <trkpt lat="43.46505" lon="5.78369">
        <ele>393.7972412</ele>
        <time>2012-01-25T14:02:06Z</time>
      </trkpt>
      <trkpt lat="43.4652" lon="5.78363">
        <ele>390.913208</ele>
        <time>2012-01-25T14:02:16Z</time>
      </trkpt>
      <trkpt lat="43.46534" lon="5.7836">
        <ele>388.9906006</ele>
        <time>2012-01-25T14:02:25Z</time>
      </trkpt>
      <trkpt lat="43.46547" lon="5.7836">
        <ele>386.5874023</ele>
        <time>2012-01-25T14:02:33Z</time>
      </trkpt>
      <trkpt lat="43.46562" lon="5.78358">
        <ele>386.1066895</ele>
        <time>2012-01-25T14:02:42Z</time>
      </trkpt>
      <trkpt lat="43.46576" lon="5.78356">
        <ele>384.184082</ele>
        <time>2012-01-25T14:02:51Z</time>
      </trkpt>
      <trkpt lat="43.46586" lon="5.78348">
        <ele>384.6647949</ele>
        <time>2012-01-25T14:02:59Z</time>
      </trkpt>
      <trkpt lat="43.46591" lon="5.78334">
        <ele>384.6647949</ele>
        <time>2012-01-25T14:03:08Z</time>
      </trkpt>
      <trkpt lat="43.46595" lon="5.7832">
        <ele>386.1066895</ele>
        <time>2012-01-25T14:03:17Z</time>
      </trkpt>
      <trkpt lat="43.466" lon="5.78305">
        <ele>385.6259766</ele>
        <time>2012-01-25T14:03:26Z</time>
      </trkpt>
      <trkpt lat="43.46603" lon="5.78295">
        <ele>382.2613525</ele>
        <time>2012-01-25T14:03:34Z</time>
      </trkpt>
      <trkpt lat="43.46603" lon="5.78293">
        <ele>381.7806396</ele>
        <time>2012-01-25T14:03:35Z</time>
      </trkpt>
      <trkpt lat="43.46611" lon="5.7828">
        <ele>377.9354248</ele>
        <time>2012-01-25T14:03:44Z</time>
      </trkpt>
      <trkpt lat="43.46619" lon="5.78272">
        <ele>374.5708008</ele>
        <time>2012-01-25T14:03:51Z</time>
      </trkpt>
      <trkpt lat="43.46626" lon="5.78252">
        <ele>375.5321045</ele>
        <time>2012-01-25T14:04:00Z</time>
      </trkpt>
      <trkpt lat="43.46631" lon="5.78241">
        <ele>374.5708008</ele>
        <time>2012-01-25T14:04:06Z</time>
      </trkpt>
      <trkpt lat="43.46639" lon="5.7823">
        <ele>371.6868896</ele>
        <time>2012-01-25T14:04:14Z</time>
      </trkpt>
      <trkpt lat="43.46644" lon="5.78214">
        <ele>369.7642822</ele>
        <time>2012-01-25T14:04:22Z</time>
      </trkpt>
      <trkpt lat="43.46647" lon="5.78192">
        <ele>371.2062988</ele>
        <time>2012-01-25T14:04:31Z</time>
      </trkpt>
      <trkpt lat="43.46652" lon="5.7818">
        <ele>373.1289063</ele>
        <time>2012-01-25T14:04:37Z</time>
      </trkpt>
      <trkpt lat="43.46657" lon="5.78178">
        <ele>370.244873</ele>
        <time>2012-01-25T14:04:41Z</time>
      </trkpt>
      <trkpt lat="43.46664" lon="5.78171">
        <ele>364.9576416</ele>
        <time>2012-01-25T14:04:48Z</time>
      </trkpt>
      <trkpt lat="43.4667" lon="5.7817">
        <ele>364.4769287</ele>
        <time>2012-01-25T14:04:53Z</time>
      </trkpt>
      <trkpt lat="43.46672" lon="5.78182">
        <ele>363.5157471</ele>
        <time>2012-01-25T14:05:01Z</time>
      </trkpt>
      <trkpt lat="43.46675" lon="5.78193">
        <ele>363.0350342</ele>
        <time>2012-01-25T14:05:08Z</time>
      </trkpt>
      <trkpt lat="43.46684" lon="5.78204">
        <ele>362.5543213</ele>
        <time>2012-01-25T14:05:15Z</time>
      </trkpt>
      <trkpt lat="43.46699" lon="5.7821">
        <ele>363.0350342</ele>
        <time>2012-01-25T14:05:24Z</time>
      </trkpt>
      <trkpt lat="43.46711" lon="5.78213">
        <ele>363.9963379</ele>
        <time>2012-01-25T14:05:31Z</time>
      </trkpt>
      <trkpt lat="43.46728" lon="5.78217">
        <ele>363.9963379</ele>
        <time>2012-01-25T14:05:41Z</time>
      </trkpt>
      <trkpt lat="43.46742" lon="5.7822">
        <ele>363.5157471</ele>
        <time>2012-01-25T14:05:50Z</time>
      </trkpt>
      <trkpt lat="43.46759" lon="5.78223">
        <ele>363.5157471</ele>
        <time>2012-01-25T14:06:01Z</time>
      </trkpt>
      <trkpt lat="43.46773" lon="5.7823">
        <ele>363.0350342</ele>
        <time>2012-01-25T14:06:10Z</time>
      </trkpt>
      <trkpt lat="43.46784" lon="5.78242">
        <ele>362.5543213</ele>
        <time>2012-01-25T14:06:19Z</time>
      </trkpt>
      <trkpt lat="43.46789" lon="5.78259">
        <ele>363.5157471</ele>
        <time>2012-01-25T14:06:28Z</time>
      </trkpt>
      <trkpt lat="43.46784" lon="5.78269">
        <ele>364.9576416</ele>
        <time>2012-01-25T14:06:35Z</time>
      </trkpt>
      <trkpt lat="43.46782" lon="5.7827">
        <ele>365.4383545</ele>
        <time>2012-01-25T14:06:36Z</time>
      </trkpt>
      <trkpt lat="43.46782" lon="5.7827">
        <ele>365.4383545</ele>
        <time>2012-01-25T14:06:36Z</time>
      </trkpt>
      <trkpt lat="43.46772" lon="5.78272">
        <ele>366.3995361</ele>
        <time>2012-01-25T14:06:43Z</time>
      </trkpt>
      <trkpt lat="43.46761" lon="5.78283">
        <ele>365.4383545</ele>
        <time>2012-01-25T14:06:52Z</time>
      </trkpt>
      <trkpt lat="43.4675" lon="5.78304">
        <ele>364.4769287</ele>
        <time>2012-01-25T14:07:04Z</time>
      </trkpt>
      <trkpt lat="43.46741" lon="5.78323">
        <ele>363.5157471</ele>
        <time>2012-01-25T14:07:14Z</time>
      </trkpt>
      <trkpt lat="43.46731" lon="5.78339">
        <ele>362.5543213</ele>
        <time>2012-01-25T14:07:24Z</time>
      </trkpt>
      <trkpt lat="43.46719" lon="5.78357">
        <ele>362.0737305</ele>
        <time>2012-01-25T14:07:35Z</time>
      </trkpt>
      <trkpt lat="43.46708" lon="5.7837">
        <ele>362.0737305</ele>
        <time>2012-01-25T14:07:44Z</time>
      </trkpt>
      <trkpt lat="43.46704" lon="5.78384">
        <ele>361.5931396</ele>
        <time>2012-01-25T14:07:51Z</time>
      </trkpt>
      <trkpt lat="43.46708" lon="5.78397">
        <ele>360.6317139</ele>
        <time>2012-01-25T14:07:58Z</time>
      </trkpt>
      <trkpt lat="43.46717" lon="5.78412">
        <ele>359.1896973</ele>
        <time>2012-01-25T14:08:07Z</time>
      </trkpt>
      <trkpt lat="43.46724" lon="5.78424">
        <ele>358.2283936</ele>
        <time>2012-01-25T14:08:14Z</time>
      </trkpt>
      <trkpt lat="43.46733" lon="5.78439">
        <ele>357.2670898</ele>
        <time>2012-01-25T14:08:24Z</time>
      </trkpt>
      <trkpt lat="43.46742" lon="5.78455">
        <ele>355.8251953</ele>
        <time>2012-01-25T14:08:34Z</time>
      </trkpt>
      <trkpt lat="43.4675" lon="5.78469">
        <ele>354.8637695</ele>
        <time>2012-01-25T14:08:43Z</time>
      </trkpt>
      <trkpt lat="43.46755" lon="5.7848">
        <ele>353.9025879</ele>
        <time>2012-01-25T14:08:50Z</time>
      </trkpt>
      <trkpt lat="43.46762" lon="5.78489">
        <ele>353.9025879</ele>
        <time>2012-01-25T14:08:57Z</time>
      </trkpt>
      <trkpt lat="43.46769" lon="5.78493">
        <ele>353.9025879</ele>
        <time>2012-01-25T14:09:04Z</time>
      </trkpt>
      <trkpt lat="43.46777" lon="5.78497">
        <ele>355.8251953</ele>
        <time>2012-01-25T14:09:10Z</time>
      </trkpt>
      <trkpt lat="43.46782" lon="5.785">
        <ele>360.6317139</ele>
        <time>2012-01-25T14:09:16Z</time>
      </trkpt>
      <trkpt lat="43.46783" lon="5.78501">
        <ele>363.5157471</ele>
        <time>2012-01-25T14:09:20Z</time>
      </trkpt>
      <trkpt lat="43.4679" lon="5.78505">
        <ele>365.9189453</ele>
        <time>2012-01-25T14:09:25Z</time>
      </trkpt>
      <trkpt lat="43.46801" lon="5.78509">
        <ele>363.9963379</ele>
        <time>2012-01-25T14:09:31Z</time>
      </trkpt>
      <trkpt lat="43.46805" lon="5.78512">
        <ele>362.5543213</ele>
        <time>2012-01-25T14:09:33Z</time>
      </trkpt>
      <trkpt lat="43.46818" lon="5.78518">
        <ele>361.1124268</ele>
        <time>2012-01-25T14:09:40Z</time>
      </trkpt>
      <trkpt lat="43.46828" lon="5.78522">
        <ele>360.151123</ele>
        <time>2012-01-25T14:09:46Z</time>
      </trkpt>
      <trkpt lat="43.46844" lon="5.78528">
        <ele>358.2283936</ele>
        <time>2012-01-25T14:09:54Z</time>
      </trkpt>
      <trkpt lat="43.46855" lon="5.78531">
        <ele>358.2283936</ele>
        <time>2012-01-25T14:10:01Z</time>
      </trkpt>
      <trkpt lat="43.46868" lon="5.78537">
        <ele>358.2283936</ele>
        <time>2012-01-25T14:10:09Z</time>
      </trkpt>
      <trkpt lat="43.46882" lon="5.78543">
        <ele>358.2283936</ele>
        <time>2012-01-25T14:10:17Z</time>
      </trkpt>
      <trkpt lat="43.46894" lon="5.78549">
        <ele>360.151123</ele>
        <time>2012-01-25T14:10:26Z</time>
      </trkpt>
      <trkpt lat="43.46905" lon="5.78557">
        <ele>361.1124268</ele>
        <time>2012-01-25T14:10:33Z</time>
      </trkpt>
      <trkpt lat="43.46914" lon="5.78573">
        <ele>360.151123</ele>
        <time>2012-01-25T14:10:41Z</time>
      </trkpt>
      <trkpt lat="43.4692" lon="5.78583">
        <ele>360.151123</ele>
        <time>2012-01-25T14:10:47Z</time>
      </trkpt>
      <trkpt lat="43.46922" lon="5.78587">
        <ele>360.6317139</ele>
        <time>2012-01-25T14:10:49Z</time>
      </trkpt>
      <trkpt lat="43.46924" lon="5.786">
        <ele>360.151123</ele>
        <time>2012-01-25T14:10:55Z</time>
      </trkpt>
      <trkpt lat="43.4692" lon="5.78602">
        <ele>359.6704102</ele>
        <time>2012-01-25T14:10:58Z</time>
      </trkpt>
      <trkpt lat="43.46912" lon="5.78605">
        <ele>358.7089844</ele>
        <time>2012-01-25T14:11:03Z</time>
      </trkpt>
      <trkpt lat="43.46913" lon="5.7862">
        <ele>358.2283936</ele>
        <time>2012-01-25T14:11:09Z</time>
      </trkpt>
      <trkpt lat="43.46913" lon="5.78623">
        <ele>358.2283936</ele>
        <time>2012-01-25T14:11:10Z</time>
      </trkpt>
      <trkpt lat="43.46911" lon="5.78631">
        <ele>358.7089844</ele>
        <time>2012-01-25T14:11:15Z</time>
      </trkpt>
      <trkpt lat="43.46912" lon="5.78644">
        <ele>357.7478027</ele>
        <time>2012-01-25T14:11:23Z</time>
      </trkpt>
      <trkpt lat="43.46902" lon="5.78656">
        <ele>357.7478027</ele>
        <time>2012-01-25T14:11:31Z</time>
      </trkpt>
      <trkpt lat="43.46902" lon="5.78666">
        <ele>356.3057861</ele>
        <time>2012-01-25T14:11:37Z</time>
      </trkpt>
      <trkpt lat="43.469" lon="5.78676">
        <ele>356.3057861</ele>
        <time>2012-01-25T14:11:42Z</time>
      </trkpt>
      <trkpt lat="43.46897" lon="5.78685">
        <ele>356.786377</ele>
        <time>2012-01-25T14:11:47Z</time>
      </trkpt>
      <trkpt lat="43.46893" lon="5.78698">
        <ele>359.6704102</ele>
        <time>2012-01-25T14:11:53Z</time>
      </trkpt>
      <trkpt lat="43.46892" lon="5.78708">
        <ele>364.4769287</ele>
        <time>2012-01-25T14:11:58Z</time>
      </trkpt>
      <trkpt lat="43.46894" lon="5.78719">
        <ele>369.2836914</ele>
        <time>2012-01-25T14:12:04Z</time>
      </trkpt>
      <trkpt lat="43.46895" lon="5.78723">
        <ele>367.3609619</ele>
        <time>2012-01-25T14:12:06Z</time>
      </trkpt>
      <trkpt lat="43.46894" lon="5.78728">
        <ele>368.3222656</ele>
        <time>2012-01-25T14:12:09Z</time>
      </trkpt>
      <trkpt lat="43.4689" lon="5.7874">
        <ele>364.4769287</ele>
        <time>2012-01-25T14:12:15Z</time>
      </trkpt>
      <trkpt lat="43.46888" lon="5.78752">
        <ele>364.9576416</ele>
        <time>2012-01-25T14:12:20Z</time>
      </trkpt>
      <trkpt lat="43.46888" lon="5.78756">
        <ele>364.4769287</ele>
        <time>2012-01-25T14:12:22Z</time>
      </trkpt>
      <trkpt lat="43.4688" lon="5.78773">
        <ele>361.1124268</ele>
        <time>2012-01-25T14:12:30Z</time>
      </trkpt>
      <trkpt lat="43.46879" lon="5.78778">
        <ele>361.5931396</ele>
        <time>2012-01-25T14:12:32Z</time>
      </trkpt>
      <trkpt lat="43.46878" lon="5.78785">
        <ele>362.5543213</ele>
        <time>2012-01-25T14:12:36Z</time>
      </trkpt>
      <trkpt lat="43.46877" lon="5.78792">
        <ele>362.0737305</ele>
        <time>2012-01-25T14:12:39Z</time>
      </trkpt>
      <trkpt lat="43.46873" lon="5.78805">
        <ele>360.151123</ele>
        <time>2012-01-25T14:12:46Z</time>
      </trkpt>
      <trkpt lat="43.46873" lon="5.78815">
        <ele>357.7478027</ele>
        <time>2012-01-25T14:12:51Z</time>
      </trkpt>
      <trkpt lat="43.46871" lon="5.78821">
        <ele>358.2283936</ele>
        <time>2012-01-25T14:12:55Z</time>
      </trkpt>
      <trkpt lat="43.4687" lon="5.78835">
        <ele>358.7089844</ele>
        <time>2012-01-25T14:13:03Z</time>
      </trkpt>
      <trkpt lat="43.46871" lon="5.78837">
        <ele>357.7478027</ele>
        <time>2012-01-25T14:13:04Z</time>
      </trkpt>
      <trkpt lat="43.46871" lon="5.78844">
        <ele>358.2283936</ele>
        <time>2012-01-25T14:13:08Z</time>
      </trkpt>
      <trkpt lat="43.46872" lon="5.78852">
        <ele>358.7089844</ele>
        <time>2012-01-25T14:13:13Z</time>
      </trkpt>
      <trkpt lat="43.4687" lon="5.78856">
        <ele>360.6317139</ele>
        <time>2012-01-25T14:13:15Z</time>
      </trkpt>
      <trkpt lat="43.46866" lon="5.78871">
        <ele>362.5543213</ele>
        <time>2012-01-25T14:13:22Z</time>
      </trkpt>
    </trkseg>
  </trk>
</gpx>